<?xml version="1.0" encoding="UTF-8" standalone="no" ?><gpx xmlns="http://www.topografix.com/GPX/1/1" xmlns:gpxx="http://www.garmin.com/xmlschemas/GpxExtensions/v3" xmlns:wptx1="http://www.garmin.com/xmlschemas/WaypointExtension/v1" xmlns:gpxtpx="http://www.garmin.com/xmlschemas/TrackPointExtension/v1" creator="eTrex 30" version="1.1" xmlns:xsi="http://www.w3.org/2001/XMLSchema-instance" xsi:schemaLocation="http://www.topografix.com/GPX/1/1 http://www.topografix.com/GPX/1/1/gpx.xsd http://www.garmin.com/xmlschemas/GpxExtensions/v3 http://www8.garmin.com/xmlschemas/GpxExtensionsv3.xsd http://www.garmin.com/xmlschemas/WaypointExtension/v1 http://www8.garmin.com/xmlschemas/WaypointExtensionv1.xsd http://www.garmin.com/xmlschemas/TrackPointExtension/v1 http://www.garmin.com/xmlschemas/TrackPointExtensionv1.xsd"><metadata><link href="http://www.garmin.com"><text>Garmin International</text></link><time>2015-01-25T22:04:27Z</time></metadata><trk><name>Track actual: 24 ENE 2015 09:26</name><trkseg><trkpt lat="37.3059029784" lon="-3.4267142974"><ele>1146.99</ele><time>2015-01-24T08:26:35Z</time></trkpt><trkpt lat="37.3059053253" lon="-3.4266950190"><ele>1146.99</ele><time>2015-01-24T08:26:48Z</time></trkpt><trkpt lat="37.3059706204" lon="-3.4266671911"><ele>1150.35</ele><time>2015-01-24T08:26:55Z</time></trkpt><trkpt lat="37.3059722129" lon="-3.4266686160"><ele>1153.72</ele><time>2015-01-24T08:26:57Z</time></trkpt><trkpt lat="37.3059696145" lon="-3.4266678616"><ele>1157.08</ele><time>2015-01-24T08:26:59Z</time></trkpt><trkpt lat="37.3059665132" lon="-3.4266690351"><ele>1159.97</ele><time>2015-01-24T08:27:01Z</time></trkpt><trkpt lat="37.3059631605" lon="-3.4266452305"><ele>1164.29</ele><time>2015-01-24T08:27:04Z</time></trkpt><trkpt lat="37.3059783317" lon="-3.4266148042"><ele>1166.70</ele><time>2015-01-24T08:27:06Z</time></trkpt><trkpt lat="37.3059820198" lon="-3.4266116191"><ele>1170.54</ele><time>2015-01-24T08:27:10Z</time></trkpt><trkpt lat="37.3059785832" lon="-3.4266125411"><ele>1173.43</ele><time>2015-01-24T08:27:14Z</time></trkpt><trkpt lat="37.3059721291" lon="-3.4266224317"><ele>1177.27</ele><time>2015-01-24T08:27:19Z</time></trkpt><trkpt lat="37.3059731349" lon="-3.4266163968"><ele>1180.64</ele><time>2015-01-24T08:27:24Z</time></trkpt><trkpt lat="37.3059873004" lon="-3.4266013093"><ele>1182.08</ele><time>2015-01-24T08:27:28Z</time></trkpt><trkpt lat="37.3060235940" lon="-3.4265431389"><ele>1185.44</ele><time>2015-01-24T08:27:37Z</time></trkpt><trkpt lat="37.3060334846" lon="-3.4265339188"><ele>1185.92</ele><time>2015-01-24T08:27:38Z</time></trkpt><trkpt lat="37.3060541879" lon="-3.4264730662"><ele>1187.37</ele><time>2015-01-24T08:27:42Z</time></trkpt><trkpt lat="37.3060463928" lon="-3.4264177456"><ele>1188.33</ele><time>2015-01-24T08:27:45Z</time></trkpt><trkpt lat="37.3061276134" lon="-3.4262402169"><ele>1190.73</ele><time>2015-01-24T08:27:58Z</time></trkpt><trkpt lat="37.3061658349" lon="-3.4262470063"><ele>1192.17</ele><time>2015-01-24T08:28:07Z</time></trkpt><trkpt lat="37.3062568624" lon="-3.4263696335"><ele>1193.13</ele><time>2015-01-24T08:28:22Z</time></trkpt><trkpt lat="37.3063002806" lon="-3.4263761714"><ele>1194.09</ele><time>2015-01-24T08:28:35Z</time></trkpt><trkpt lat="37.3063778132" lon="-3.4264350124"><ele>1194.58</ele><time>2015-01-24T08:28:47Z</time></trkpt><trkpt lat="37.3063873686" lon="-3.4264425561"><ele>1194.58</ele><time>2015-01-24T08:28:48Z</time></trkpt><trkpt lat="37.3064912204" lon="-3.4265544545"><ele>1195.54</ele><time>2015-01-24T08:29:01Z</time></trkpt><trkpt lat="37.3065813258" lon="-3.4266802669"><ele>1196.02</ele><time>2015-01-24T08:29:14Z</time></trkpt><trkpt lat="37.3066467885" lon="-3.4267811012"><ele>1196.02</ele><time>2015-01-24T08:29:27Z</time></trkpt><trkpt lat="37.3067268357" lon="-3.4268889762"><ele>1196.50</ele><time>2015-01-24T08:29:38Z</time></trkpt><trkpt lat="37.3067800608" lon="-3.4270147048"><ele>1196.98</ele><time>2015-01-24T08:29:48Z</time></trkpt><trkpt lat="37.3067822400" lon="-3.4270281997"><ele>1196.98</ele><time>2015-01-24T08:29:49Z</time></trkpt><trkpt lat="37.3068613652" lon="-3.4272360709"><ele>1197.94</ele><time>2015-01-24T08:30:04Z</time></trkpt><trkpt lat="37.3068696633" lon="-3.4272453748"><ele>1197.94</ele><time>2015-01-24T08:30:05Z</time></trkpt><trkpt lat="37.3068881873" lon="-3.4272591211"><ele>1197.94</ele><time>2015-01-24T08:30:07Z</time></trkpt><trkpt lat="37.3069065437" lon="-3.4272680897"><ele>1197.94</ele><time>2015-01-24T08:30:09Z</time></trkpt><trkpt lat="37.3069199547" lon="-3.4272763040"><ele>1197.94</ele><time>2015-01-24T08:30:10Z</time></trkpt><trkpt lat="37.3069335334" lon="-3.4272856917"><ele>1197.94</ele><time>2015-01-24T08:30:11Z</time></trkpt><trkpt lat="37.3069445975" lon="-3.4272979293"><ele>1197.94</ele><time>2015-01-24T08:30:12Z</time></trkpt><trkpt lat="37.3069533985" lon="-3.4273088258"><ele>1198.42</ele><time>2015-01-24T08:30:13Z</time></trkpt><trkpt lat="37.3069639597" lon="-3.4273199737"><ele>1198.42</ele><time>2015-01-24T08:30:14Z</time></trkpt><trkpt lat="37.3069714196" lon="-3.4273312055"><ele>1198.42</ele><time>2015-01-24T08:30:15Z</time></trkpt><trkpt lat="37.3069836572" lon="-3.4273528308"><ele>1198.42</ele><time>2015-01-24T08:30:17Z</time></trkpt><trkpt lat="37.3070654646" lon="-3.4274514858"><ele>1199.38</ele><time>2015-01-24T08:30:27Z</time></trkpt><trkpt lat="37.3070756905" lon="-3.4274766315"><ele>1199.38</ele><time>2015-01-24T08:30:29Z</time></trkpt><trkpt lat="37.3071085475" lon="-3.4275179543"><ele>1200.34</ele><time>2015-01-24T08:30:33Z</time></trkpt><trkpt lat="37.3071234673" lon="-3.4275415912"><ele>1200.34</ele><time>2015-01-24T08:30:35Z</time></trkpt><trkpt lat="37.3072258942" lon="-3.4276728518"><ele>1201.30</ele><time>2015-01-24T08:30:47Z</time></trkpt><trkpt lat="37.3073249683" lon="-3.4277758654"><ele>1202.75</ele><time>2015-01-24T08:30:58Z</time></trkpt><trkpt lat="37.3073852342" lon="-3.4278175235"><ele>1203.23</ele><time>2015-01-24T08:31:04Z</time></trkpt><trkpt lat="37.3073935322" lon="-3.4278303478"><ele>1203.23</ele><time>2015-01-24T08:31:05Z</time></trkpt><trkpt lat="37.3074025847" lon="-3.4278422501"><ele>1203.23</ele><time>2015-01-24T08:31:06Z</time></trkpt><trkpt lat="37.3074788600" lon="-3.4279128257"><ele>1204.67</ele><time>2015-01-24T08:31:14Z</time></trkpt><trkpt lat="37.3074845597" lon="-3.4279237222"><ele>1204.67</ele><time>2015-01-24T08:31:15Z</time></trkpt><trkpt lat="37.3074935284" lon="-3.4279345348"><ele>1204.67</ele><time>2015-01-24T08:31:16Z</time></trkpt><trkpt lat="37.3075036705" lon="-3.4279450960"><ele>1204.67</ele><time>2015-01-24T08:31:17Z</time></trkpt><trkpt lat="37.3075143993" lon="-3.4279540647"><ele>1205.15</ele><time>2015-01-24T08:31:18Z</time></trkpt><trkpt lat="37.3075247090" lon="-3.4279611893"><ele>1205.15</ele><time>2015-01-24T08:31:19Z</time></trkpt><trkpt lat="37.3075792752" lon="-3.4279962257"><ele>1205.63</ele><time>2015-01-24T08:31:26Z</time></trkpt><trkpt lat="37.3075875733" lon="-3.4280060325"><ele>1205.63</ele><time>2015-01-24T08:31:27Z</time></trkpt><trkpt lat="37.3075961228" lon="-3.4280155879"><ele>1205.63</ele><time>2015-01-24T08:31:28Z</time></trkpt><trkpt lat="37.3076044209" lon="-3.4280236345"><ele>1206.11</ele><time>2015-01-24T08:31:29Z</time></trkpt><trkpt lat="37.3076614179" lon="-3.4280805476"><ele>1206.59</ele><time>2015-01-24T08:31:35Z</time></trkpt><trkpt lat="37.3076725658" lon="-3.4280864988"><ele>1206.59</ele><time>2015-01-24T08:31:36Z</time></trkpt><trkpt lat="37.3076997232" lon="-3.4281120636"><ele>1207.07</ele><time>2015-01-24T08:31:39Z</time></trkpt><trkpt lat="37.3077086080" lon="-3.4281253908"><ele>1207.07</ele><time>2015-01-24T08:31:40Z</time></trkpt><trkpt lat="37.3077167384" lon="-3.4281401429"><ele>1207.07</ele><time>2015-01-24T08:31:41Z</time></trkpt><trkpt lat="37.3077261262" lon="-3.4281525481"><ele>1207.07</ele><time>2015-01-24T08:31:42Z</time></trkpt><trkpt lat="37.3078170698" lon="-3.4282722417"><ele>1208.03</ele><time>2015-01-24T08:31:54Z</time></trkpt><trkpt lat="37.3078906629" lon="-3.4283522889"><ele>1208.51</ele><time>2015-01-24T08:32:02Z</time></trkpt><trkpt lat="37.3079957720" lon="-3.4284390416"><ele>1209.00</ele><time>2015-01-24T08:32:13Z</time></trkpt><trkpt lat="37.3080068361" lon="-3.4284537937"><ele>1209.00</ele><time>2015-01-24T08:32:14Z</time></trkpt><trkpt lat="37.3080208339" lon="-3.4284641035"><ele>1209.00</ele><time>2015-01-24T08:32:15Z</time></trkpt><trkpt lat="37.3081054073" lon="-3.4285310749"><ele>1209.48</ele><time>2015-01-24T08:32:23Z</time></trkpt><trkpt lat="37.3082992807" lon="-3.4286066797"><ele>1209.96</ele><time>2015-01-24T08:32:39Z</time></trkpt><trkpt lat="37.3084498197" lon="-3.4286114573"><ele>1209.96</ele><time>2015-01-24T08:32:52Z</time></trkpt><trkpt lat="37.3084867839" lon="-3.4286169056"><ele>1209.96</ele><time>2015-01-24T08:32:55Z</time></trkpt><trkpt lat="37.3086260073" lon="-3.4286454879"><ele>1209.96</ele><time>2015-01-24T08:33:08Z</time></trkpt><trkpt lat="37.3086383287" lon="-3.4286437277"><ele>1209.96</ele><time>2015-01-24T08:33:09Z</time></trkpt><trkpt lat="37.3087555077" lon="-3.4286555462"><ele>1209.96</ele><time>2015-01-24T08:33:20Z</time></trkpt><trkpt lat="37.3088120855" lon="-3.4286669455"><ele>1209.96</ele><time>2015-01-24T08:33:24Z</time></trkpt><trkpt lat="37.3088251613" lon="-3.4286625870"><ele>1209.96</ele><time>2015-01-24T08:33:25Z</time></trkpt><trkpt lat="37.3088394944" lon="-3.4286594018"><ele>1209.96</ele><time>2015-01-24T08:33:26Z</time></trkpt><trkpt lat="37.3088542465" lon="-3.4286574740"><ele>1209.96</ele><time>2015-01-24T08:33:27Z</time></trkpt><trkpt lat="37.3088701721" lon="-3.4286547080"><ele>1209.96</ele><time>2015-01-24T08:33:28Z</time></trkpt><trkpt lat="37.3088827450" lon="-3.4286548756"><ele>1209.96</ele><time>2015-01-24T08:33:29Z</time></trkpt><trkpt lat="37.3090266623" lon="-3.4286464937"><ele>1209.96</ele><time>2015-01-24T08:33:41Z</time></trkpt><trkpt lat="37.3090694100" lon="-3.4286477510"><ele>1209.96</ele><time>2015-01-24T08:33:44Z</time></trkpt><trkpt lat="37.3090828210" lon="-3.4286494274"><ele>1209.96</ele><time>2015-01-24T08:33:45Z</time></trkpt><trkpt lat="37.3090942204" lon="-3.4286495112"><ele>1209.96</ele><time>2015-01-24T08:33:46Z</time></trkpt><trkpt lat="37.3091060389" lon="-3.4286528639"><ele>1209.96</ele><time>2015-01-24T08:33:47Z</time></trkpt><trkpt lat="37.3091200367" lon="-3.4286578931"><ele>1209.96</ele><time>2015-01-24T08:33:48Z</time></trkpt><trkpt lat="37.3091336992" lon="-3.4286647663"><ele>1209.96</ele><time>2015-01-24T08:33:49Z</time></trkpt><trkpt lat="37.3091444280" lon="-3.4286730643"><ele>1209.96</ele><time>2015-01-24T08:33:50Z</time></trkpt><trkpt lat="37.3091546539" lon="-3.4286868945"><ele>1209.96</ele><time>2015-01-24T08:33:51Z</time></trkpt><trkpt lat="37.3091648798" lon="-3.4286987130"><ele>1209.96</ele><time>2015-01-24T08:33:52Z</time></trkpt><trkpt lat="37.3091741838" lon="-3.4287086036"><ele>1209.96</ele><time>2015-01-24T08:33:53Z</time></trkpt><trkpt lat="37.3091967311" lon="-3.4287389461"><ele>1209.96</ele><time>2015-01-24T08:33:56Z</time></trkpt><trkpt lat="37.3092018440" lon="-3.4287496749"><ele>1208.51</ele><time>2015-01-24T08:33:57Z</time></trkpt><trkpt lat="37.3092102259" lon="-3.4287614934"><ele>1208.51</ele><time>2015-01-24T08:33:58Z</time></trkpt><trkpt lat="37.3092207871" lon="-3.4287724737"><ele>1208.51</ele><time>2015-01-24T08:33:59Z</time></trkpt><trkpt lat="37.3092282470" lon="-3.4287851304"><ele>1208.51</ele><time>2015-01-24T08:34:00Z</time></trkpt><trkpt lat="37.3092344496" lon="-3.4288000502"><ele>1208.51</ele><time>2015-01-24T08:34:01Z</time></trkpt><trkpt lat="37.3092456814" lon="-3.4289158881"><ele>1208.51</ele><time>2015-01-24T08:34:08Z</time></trkpt><trkpt lat="37.3092104774" lon="-3.4291949216"><ele>1208.03</ele><time>2015-01-24T08:34:25Z</time></trkpt><trkpt lat="37.3093155865" lon="-3.4294171259"><ele>1208.03</ele><time>2015-01-24T08:34:40Z</time></trkpt><trkpt lat="37.3093920294" lon="-3.4296514001"><ele>1208.03</ele><time>2015-01-24T08:34:57Z</time></trkpt><trkpt lat="37.3093425762" lon="-3.4297809843"><ele>1209.48</ele><time>2015-01-24T08:35:06Z</time></trkpt><trkpt lat="37.3092472740" lon="-3.4300445952"><ele>1209.48</ele><time>2015-01-24T08:35:25Z</time></trkpt><trkpt lat="37.3092141654" lon="-3.4303210303"><ele>1209.48</ele><time>2015-01-24T08:35:42Z</time></trkpt><trkpt lat="37.3092098068" lon="-3.4305901732"><ele>1210.44</ele><time>2015-01-24T08:35:59Z</time></trkpt><trkpt lat="37.3093310092" lon="-3.4309269581"><ele>1210.92</ele><time>2015-01-24T08:36:22Z</time></trkpt><trkpt lat="37.3093302548" lon="-3.4309545346"><ele>1210.92</ele><time>2015-01-24T08:36:25Z</time></trkpt><trkpt lat="37.3093201127" lon="-3.4309550375"><ele>1210.92</ele><time>2015-01-24T08:36:35Z</time></trkpt><trkpt lat="37.3093357030" lon="-3.4309894871"><ele>1210.92</ele><time>2015-01-24T08:36:41Z</time></trkpt><trkpt lat="37.3093393072" lon="-3.4310035687"><ele>1210.92</ele><time>2015-01-24T08:36:42Z</time></trkpt><trkpt lat="37.3093441688" lon="-3.4310234338"><ele>1210.92</ele><time>2015-01-24T08:36:43Z</time></trkpt><trkpt lat="37.3093501199" lon="-3.4310423769"><ele>1210.92</ele><time>2015-01-24T08:36:44Z</time></trkpt><trkpt lat="37.3093560711" lon="-3.4310609847"><ele>1210.92</ele><time>2015-01-24T08:36:45Z</time></trkpt><trkpt lat="37.3093755171" lon="-3.4311095998"><ele>1210.92</ele><time>2015-01-24T08:36:48Z</time></trkpt><trkpt lat="37.3093786184" lon="-3.4311255254"><ele>1210.92</ele><time>2015-01-24T08:36:49Z</time></trkpt><trkpt lat="37.3094665445" lon="-3.4313619789"><ele>1210.92</ele><time>2015-01-24T08:37:04Z</time></trkpt><trkpt lat="37.3095609248" lon="-3.4316085745"><ele>1211.40</ele><time>2015-01-24T08:37:21Z</time></trkpt><trkpt lat="37.3095688876" lon="-3.4316280205"><ele>1211.40</ele><time>2015-01-24T08:37:22Z</time></trkpt><trkpt lat="37.3095785268" lon="-3.4316432755"><ele>1211.40</ele><time>2015-01-24T08:37:23Z</time></trkpt><trkpt lat="37.3095859028" lon="-3.4316560160"><ele>1211.40</ele><time>2015-01-24T08:37:24Z</time></trkpt><trkpt lat="37.3095940333" lon="-3.4316680022"><ele>1211.40</ele><time>2015-01-24T08:37:25Z</time></trkpt><trkpt lat="37.3096016608" lon="-3.4316819161"><ele>1211.40</ele><time>2015-01-24T08:37:26Z</time></trkpt><trkpt lat="37.3096102942" lon="-3.4316954948"><ele>1211.40</ele><time>2015-01-24T08:37:27Z</time></trkpt><trkpt lat="37.3096222803" lon="-3.4317054693"><ele>1211.40</ele><time>2015-01-24T08:37:28Z</time></trkpt><trkpt lat="37.3096357752" lon="-3.4317149408"><ele>1211.40</ele><time>2015-01-24T08:37:29Z</time></trkpt><trkpt lat="37.3096494377" lon="-3.4317244124"><ele>1211.40</ele><time>2015-01-24T08:37:30Z</time></trkpt><trkpt lat="37.3096612561" lon="-3.4317360632"><ele>1211.40</ele><time>2015-01-24T08:37:31Z</time></trkpt><trkpt lat="37.3096734099" lon="-3.4317481332"><ele>1211.40</ele><time>2015-01-24T08:37:32Z</time></trkpt><trkpt lat="37.3097986355" lon="-3.4319431800"><ele>1211.40</ele><time>2015-01-24T08:37:48Z</time></trkpt><trkpt lat="37.3098086100" lon="-3.4320088942"><ele>1211.40</ele><time>2015-01-24T08:37:53Z</time></trkpt><trkpt lat="37.3098045029" lon="-3.4320215508"><ele>1211.40</ele><time>2015-01-24T08:37:54Z</time></trkpt><trkpt lat="37.3097977974" lon="-3.4320340399"><ele>1211.40</ele><time>2015-01-24T08:37:55Z</time></trkpt><trkpt lat="37.3097899184" lon="-3.4320464451"><ele>1211.40</ele><time>2015-01-24T08:37:56Z</time></trkpt><trkpt lat="37.3097820394" lon="-3.4320606105"><ele>1211.40</ele><time>2015-01-24T08:37:57Z</time></trkpt><trkpt lat="37.3097743280" lon="-3.4320740215"><ele>1211.40</ele><time>2015-01-24T08:37:58Z</time></trkpt><trkpt lat="37.3097673710" lon="-3.4320865106"><ele>1211.40</ele><time>2015-01-24T08:37:59Z</time></trkpt><trkpt lat="37.3097582348" lon="-3.4320978262"><ele>1211.40</ele><time>2015-01-24T08:38:00Z</time></trkpt><trkpt lat="37.3096168321" lon="-3.4322467726"><ele>1211.40</ele><time>2015-01-24T08:38:14Z</time></trkpt><trkpt lat="37.3095186800" lon="-3.4324051905"><ele>1212.36</ele><time>2015-01-24T08:38:26Z</time></trkpt><trkpt lat="37.3095153272" lon="-3.4326601680"><ele>1212.84</ele><time>2015-01-24T08:38:42Z</time></trkpt><trkpt lat="37.3096402176" lon="-3.4328538738"><ele>1213.32</ele><time>2015-01-24T08:38:57Z</time></trkpt><trkpt lat="37.3096813727" lon="-3.4329272993"><ele>1213.32</ele><time>2015-01-24T08:39:02Z</time></trkpt><trkpt lat="37.3096900899" lon="-3.4329539537"><ele>1213.32</ele><time>2015-01-24T08:39:04Z</time></trkpt><trkpt lat="37.3097678740" lon="-3.4331583045"><ele>1213.32</ele><time>2015-01-24T08:39:19Z</time></trkpt><trkpt lat="37.3098748270" lon="-3.4334018826"><ele>1213.80</ele><time>2015-01-24T08:39:36Z</time></trkpt><trkpt lat="37.3099568021" lon="-3.4336146154"><ele>1213.80</ele><time>2015-01-24T08:39:55Z</time></trkpt><trkpt lat="37.3099542875" lon="-3.4336347319"><ele>1213.80</ele><time>2015-01-24T08:40:10Z</time></trkpt><trkpt lat="37.3099621665" lon="-3.4336488135"><ele>1213.80</ele><time>2015-01-24T08:40:11Z</time></trkpt><trkpt lat="37.3100197501" lon="-3.4337649867"><ele>1213.80</ele><time>2015-01-24T08:40:26Z</time></trkpt><trkpt lat="37.3100547027" lon="-3.4337680042"><ele>1213.80</ele><time>2015-01-24T08:40:47Z</time></trkpt><trkpt lat="37.3100605700" lon="-3.4337721113"><ele>1213.80</ele><time>2015-01-24T08:40:48Z</time></trkpt><trkpt lat="37.3100626655" lon="-3.4337798227"><ele>1213.80</ele><time>2015-01-24T08:40:49Z</time></trkpt><trkpt lat="37.3100899067" lon="-3.4338369034"><ele>1213.80</ele><time>2015-01-24T08:41:05Z</time></trkpt><trkpt lat="37.3101035692" lon="-3.4338458721"><ele>1213.80</ele><time>2015-01-24T08:41:09Z</time></trkpt><trkpt lat="37.3101998772" lon="-3.4339852631"><ele>1213.80</ele><time>2015-01-24T08:41:24Z</time></trkpt><trkpt lat="37.3102648370" lon="-3.4342162684"><ele>1213.80</ele><time>2015-01-24T08:41:41Z</time></trkpt><trkpt lat="37.3102385178" lon="-3.4344455134"><ele>1213.80</ele><time>2015-01-24T08:41:59Z</time></trkpt><trkpt lat="37.3102571256" lon="-3.4345674701"><ele>1213.80</ele><time>2015-01-24T08:42:09Z</time></trkpt><trkpt lat="37.3103746399" lon="-3.4347657859"><ele>1214.28</ele><time>2015-01-24T08:42:26Z</time></trkpt><trkpt lat="37.3104393482" lon="-3.4348817915"><ele>1214.28</ele><time>2015-01-24T08:42:35Z</time></trkpt><trkpt lat="37.3104581237" lon="-3.4349097032"><ele>1214.76</ele><time>2015-01-24T08:42:37Z</time></trkpt><trkpt lat="37.3104691040" lon="-3.4349207673"><ele>1214.76</ele><time>2015-01-24T08:42:38Z</time></trkpt><trkpt lat="37.3106064834" lon="-3.4350780118"><ele>1214.28</ele><time>2015-01-24T08:42:51Z</time></trkpt><trkpt lat="37.3106247559" lon="-3.4352807701"><ele>1214.28</ele><time>2015-01-24T08:43:05Z</time></trkpt><trkpt lat="37.3106244206" lon="-3.4352947678"><ele>1214.76</ele><time>2015-01-24T08:43:06Z</time></trkpt><trkpt lat="37.3105610535" lon="-3.4355690237"><ele>1215.24</ele><time>2015-01-24T08:43:23Z</time></trkpt><trkpt lat="37.3105172161" lon="-3.4357195627"><ele>1216.21</ele><time>2015-01-24T08:43:34Z</time></trkpt><trkpt lat="37.3104892205" lon="-3.4360353928"><ele>1217.17</ele><time>2015-01-24T08:43:51Z</time></trkpt><trkpt lat="37.3104862031" lon="-3.4363128338"><ele>1218.13</ele><time>2015-01-24T08:44:06Z</time></trkpt><trkpt lat="37.3104675952" lon="-3.4365609381"><ele>1218.61</ele><time>2015-01-24T08:44:19Z</time></trkpt><trkpt lat="37.3104636557" lon="-3.4366522171"><ele>1218.61</ele><time>2015-01-24T08:44:24Z</time></trkpt><trkpt lat="37.3105308786" lon="-3.4369366150"><ele>1218.61</ele><time>2015-01-24T08:44:39Z</time></trkpt><trkpt lat="37.3105364107" lon="-3.4369521216"><ele>1218.61</ele><time>2015-01-24T08:44:40Z</time></trkpt><trkpt lat="37.3106390052" lon="-3.4371247049"><ele>1218.61</ele><time>2015-01-24T08:44:53Z</time></trkpt><trkpt lat="37.3106523324" lon="-3.4371328354"><ele>1218.61</ele><time>2015-01-24T08:44:54Z</time></trkpt><trkpt lat="37.3106623068" lon="-3.4371444024"><ele>1218.61</ele><time>2015-01-24T08:44:55Z</time></trkpt><trkpt lat="37.3106733710" lon="-3.4371562209"><ele>1218.61</ele><time>2015-01-24T08:44:56Z</time></trkpt><trkpt lat="37.3106870335" lon="-3.4371685423"><ele>1218.61</ele><time>2015-01-24T08:44:57Z</time></trkpt><trkpt lat="37.3106997740" lon="-3.4371807799"><ele>1218.61</ele><time>2015-01-24T08:44:58Z</time></trkpt><trkpt lat="37.3107106704" lon="-3.4371943586"><ele>1218.61</ele><time>2015-01-24T08:44:59Z</time></trkpt><trkpt lat="37.3107245844" lon="-3.4372057579"><ele>1218.61</ele><time>2015-01-24T08:45:00Z</time></trkpt><trkpt lat="37.3107407615" lon="-3.4372144751"><ele>1218.61</ele><time>2015-01-24T08:45:01Z</time></trkpt><trkpt lat="37.3107563518" lon="-3.4372228570"><ele>1218.61</ele><time>2015-01-24T08:45:02Z</time></trkpt><trkpt lat="37.3109311145" lon="-3.4374081809"><ele>1218.61</ele><time>2015-01-24T08:45:17Z</time></trkpt><trkpt lat="37.3109638039" lon="-3.4374388587"><ele>1218.61</ele><time>2015-01-24T08:45:20Z</time></trkpt><trkpt lat="37.3109777179" lon="-3.4374453127"><ele>1218.61</ele><time>2015-01-24T08:45:21Z</time></trkpt><trkpt lat="37.3109896202" lon="-3.4374539461"><ele>1219.09</ele><time>2015-01-24T08:45:22Z</time></trkpt><trkpt lat="37.3110002652" lon="-3.4374655969"><ele>1219.09</ele><time>2015-01-24T08:45:23Z</time></trkpt><trkpt lat="37.3110118322" lon="-3.4374767449"><ele>1219.09</ele><time>2015-01-24T08:45:24Z</time></trkpt><trkpt lat="37.3110231478" lon="-3.4374878090"><ele>1219.09</ele><time>2015-01-24T08:45:25Z</time></trkpt><trkpt lat="37.3110356368" lon="-3.4374989569"><ele>1219.09</ele><time>2015-01-24T08:45:26Z</time></trkpt><trkpt lat="37.3110473715" lon="-3.4375096019"><ele>1219.09</ele><time>2015-01-24T08:45:27Z</time></trkpt><trkpt lat="37.3110603634" lon="-3.4375211690"><ele>1219.09</ele><time>2015-01-24T08:45:28Z</time></trkpt><trkpt lat="37.3110742774" lon="-3.4375318140"><ele>1219.09</ele><time>2015-01-24T08:45:29Z</time></trkpt><trkpt lat="37.3112388141" lon="-3.4376531001"><ele>1219.57</ele><time>2015-01-24T08:45:42Z</time></trkpt><trkpt lat="37.3114224616" lon="-3.4378087521"><ele>1220.05</ele><time>2015-01-24T08:45:57Z</time></trkpt><trkpt lat="37.3115281574" lon="-3.4380580299"><ele>1220.53</ele><time>2015-01-24T08:46:12Z</time></trkpt><trkpt lat="37.3115575779" lon="-3.4382000193"><ele>1221.01</ele><time>2015-01-24T08:46:26Z</time></trkpt><trkpt lat="37.3115884233" lon="-3.4381929785"><ele>1221.01</ele><time>2015-01-24T08:46:53Z</time></trkpt><trkpt lat="37.3116158321" lon="-3.4382076468"><ele>1221.01</ele><time>2015-01-24T08:47:08Z</time></trkpt><trkpt lat="37.3116278183" lon="-3.4382338822"><ele>1221.97</ele><time>2015-01-24T08:47:30Z</time></trkpt><trkpt lat="37.3116226215" lon="-3.4382398333"><ele>1221.97</ele><time>2015-01-24T08:47:53Z</time></trkpt><trkpt lat="37.3116033431" lon="-3.4382394142"><ele>1221.97</ele><time>2015-01-24T08:48:13Z</time></trkpt><trkpt lat="37.3116419837" lon="-3.4382135980"><ele>1221.97</ele><time>2015-01-24T08:48:31Z</time></trkpt><trkpt lat="37.3116812948" lon="-3.4381870274"><ele>1221.97</ele><time>2015-01-24T08:48:37Z</time></trkpt><trkpt lat="37.3117256351" lon="-3.4380678367"><ele>1222.93</ele><time>2015-01-24T08:48:48Z</time></trkpt><trkpt lat="37.3117302451" lon="-3.4380559344"><ele>1222.93</ele><time>2015-01-24T08:48:49Z</time></trkpt><trkpt lat="37.3117338493" lon="-3.4380426072"><ele>1223.42</ele><time>2015-01-24T08:48:50Z</time></trkpt><trkpt lat="37.3117359448" lon="-3.4380265977"><ele>1223.42</ele><time>2015-01-24T08:48:51Z</time></trkpt><trkpt lat="37.3117411416" lon="-3.4380102530"><ele>1223.42</ele><time>2015-01-24T08:48:52Z</time></trkpt><trkpt lat="37.3117611744" lon="-3.4379511606"><ele>1223.90</ele><time>2015-01-24T08:48:56Z</time></trkpt><trkpt lat="37.3117697239" lon="-3.4379411861"><ele>1223.90</ele><time>2015-01-24T08:48:57Z</time></trkpt><trkpt lat="37.3117765971" lon="-3.4379294515"><ele>1223.90</ele><time>2015-01-24T08:48:58Z</time></trkpt><trkpt lat="37.3117832188" lon="-3.4379162919"><ele>1224.38</ele><time>2015-01-24T08:48:59Z</time></trkpt><trkpt lat="37.3117886670" lon="-3.4379045572"><ele>1224.38</ele><time>2015-01-24T08:49:00Z</time></trkpt><trkpt lat="37.3117929418" lon="-3.4378924873"><ele>1224.38</ele><time>2015-01-24T08:49:01Z</time></trkpt><trkpt lat="37.3118577339" lon="-3.4377558623"><ele>1225.34</ele><time>2015-01-24T08:49:12Z</time></trkpt><trkpt lat="37.3118636850" lon="-3.4377421997"><ele>1225.34</ele><time>2015-01-24T08:49:13Z</time></trkpt><trkpt lat="37.3118695524" lon="-3.4377288725"><ele>1225.34</ele><time>2015-01-24T08:49:14Z</time></trkpt><trkpt lat="37.3118774313" lon="-3.4377191495"><ele>1225.34</ele><time>2015-01-24T08:49:15Z</time></trkpt><trkpt lat="37.3119910061" lon="-3.4375788365"><ele>1226.30</ele><time>2015-01-24T08:49:28Z</time></trkpt><trkpt lat="37.3120800219" lon="-3.4375105239"><ele>1227.26</ele><time>2015-01-24T08:49:37Z</time></trkpt><trkpt lat="37.3121167347" lon="-3.4374908265"><ele>1227.74</ele><time>2015-01-24T08:49:41Z</time></trkpt><trkpt lat="37.3121308163" lon="-3.4374872223"><ele>1227.74</ele><time>2015-01-24T08:49:42Z</time></trkpt><trkpt lat="37.3121446464" lon="-3.4374826960"><ele>1227.74</ele><time>2015-01-24T08:49:43Z</time></trkpt><trkpt lat="37.3121574707" lon="-3.4374780860"><ele>1227.74</ele><time>2015-01-24T08:49:44Z</time></trkpt><trkpt lat="37.3121692054" lon="-3.4374719672"><ele>1227.74</ele><time>2015-01-24T08:49:45Z</time></trkpt><trkpt lat="37.3122469895" lon="-3.4374044929"><ele>1228.70</ele><time>2015-01-24T08:49:54Z</time></trkpt><trkpt lat="37.3122547008" lon="-3.4373929258"><ele>1228.70</ele><time>2015-01-24T08:49:55Z</time></trkpt><trkpt lat="37.3122765776" lon="-3.4373271279"><ele>1229.18</ele><time>2015-01-24T08:50:01Z</time></trkpt><trkpt lat="37.3122609034" lon="-3.4372575581"><ele>1229.66</ele><time>2015-01-24T08:50:14Z</time></trkpt><trkpt lat="37.3122578859" lon="-3.4372507688"><ele>1229.66</ele><time>2015-01-24T08:50:15Z</time></trkpt><trkpt lat="37.3122539464" lon="-3.4372381121"><ele>1229.66</ele><time>2015-01-24T08:50:16Z</time></trkpt><trkpt lat="37.3122242745" lon="-3.4372169897"><ele>1229.66</ele><time>2015-01-24T08:50:20Z</time></trkpt><trkpt lat="37.3121925071" lon="-3.4371942747"><ele>1230.14</ele><time>2015-01-24T08:50:23Z</time></trkpt><trkpt lat="37.3121821973" lon="-3.4371837974"><ele>1230.14</ele><time>2015-01-24T08:50:24Z</time></trkpt><trkpt lat="37.3121715523" lon="-3.4371729847"><ele>1230.14</ele><time>2015-01-24T08:50:25Z</time></trkpt><trkpt lat="37.3120739032" lon="-3.4370700549"><ele>1231.11</ele><time>2015-01-24T08:50:37Z</time></trkpt><trkpt lat="37.3120223545" lon="-3.4369170852"><ele>1231.59</ele><time>2015-01-24T08:50:48Z</time></trkpt><trkpt lat="37.3120170739" lon="-3.4367056936"><ele>1233.03</ele><time>2015-01-24T08:51:03Z</time></trkpt><trkpt lat="37.3120167386" lon="-3.4366842359"><ele>1232.55</ele><time>2015-01-24T08:51:05Z</time></trkpt><trkpt lat="37.3120154813" lon="-3.4366697352"><ele>1232.55</ele><time>2015-01-24T08:51:06Z</time></trkpt><trkpt lat="37.3120117094" lon="-3.4366555698"><ele>1233.03</ele><time>2015-01-24T08:51:07Z</time></trkpt><trkpt lat="37.3120109551" lon="-3.4366423264"><ele>1233.03</ele><time>2015-01-24T08:51:08Z</time></trkpt><trkpt lat="37.3120115418" lon="-3.4366284125"><ele>1233.03</ele><time>2015-01-24T08:51:09Z</time></trkpt><trkpt lat="37.3120010644" lon="-3.4365579206"><ele>1233.51</ele><time>2015-01-24T08:51:20Z</time></trkpt><trkpt lat="37.3120076023" lon="-3.4365423303"><ele>1233.51</ele><time>2015-01-24T08:51:21Z</time></trkpt><trkpt lat="37.3120494280" lon="-3.4364576731"><ele>1234.47</ele><time>2015-01-24T08:51:34Z</time></trkpt><trkpt lat="37.3120771721" lon="-3.4363838285"><ele>1234.95</ele><time>2015-01-24T08:51:45Z</time></trkpt><trkpt lat="37.3120899964" lon="-3.4363477863"><ele>1234.95</ele><time>2015-01-24T08:51:48Z</time></trkpt><trkpt lat="37.3120927624" lon="-3.4363264963"><ele>1234.95</ele><time>2015-01-24T08:51:49Z</time></trkpt><trkpt lat="37.3121644277" lon="-3.4360389970"><ele>1236.87</ele><time>2015-01-24T08:52:02Z</time></trkpt><trkpt lat="37.3122681119" lon="-3.4357867856"><ele>1239.28</ele><time>2015-01-24T08:52:20Z</time></trkpt><trkpt lat="37.3122955207" lon="-3.4357157070"><ele>1239.76</ele><time>2015-01-24T08:52:25Z</time></trkpt><trkpt lat="37.3124111909" lon="-3.4355404414"><ele>1240.72</ele><time>2015-01-24T08:52:41Z</time></trkpt><trkpt lat="37.3124236800" lon="-3.4355371725"><ele>1241.20</ele><time>2015-01-24T08:52:42Z</time></trkpt><trkpt lat="37.3124285415" lon="-3.4355181456"><ele>1241.20</ele><time>2015-01-24T08:52:44Z</time></trkpt><trkpt lat="37.3124307208" lon="-3.4355040640"><ele>1241.20</ele><time>2015-01-24T08:52:45Z</time></trkpt><trkpt lat="37.3124370072" lon="-3.4354925808"><ele>1241.20</ele><time>2015-01-24T08:52:46Z</time></trkpt><trkpt lat="37.3124471493" lon="-3.4354841150"><ele>1241.20</ele><time>2015-01-24T08:52:47Z</time></trkpt><trkpt lat="37.3124579620" lon="-3.4354770742"><ele>1241.68</ele><time>2015-01-24T08:52:48Z</time></trkpt><trkpt lat="37.3124691099" lon="-3.4354700334"><ele>1241.68</ele><time>2015-01-24T08:52:49Z</time></trkpt><trkpt lat="37.3124842811" lon="-3.4354482405"><ele>1241.68</ele><time>2015-01-24T08:52:51Z</time></trkpt><trkpt lat="37.3125050683" lon="-3.4354073368"><ele>1242.16</ele><time>2015-01-24T08:52:55Z</time></trkpt><trkpt lat="37.3125140369" lon="-3.4353973623"><ele>1242.16</ele><time>2015-01-24T08:52:56Z</time></trkpt><trkpt lat="37.3126298748" lon="-3.4352333285"><ele>1244.08</ele><time>2015-01-24T08:53:10Z</time></trkpt><trkpt lat="37.3126649112" lon="-3.4351868089"><ele>1244.08</ele><time>2015-01-24T08:53:14Z</time></trkpt><trkpt lat="37.3126978520" lon="-3.4351371042"><ele>1244.56</ele><time>2015-01-24T08:53:19Z</time></trkpt><trkpt lat="37.3127592076" lon="-3.4350567218"><ele>1245.04</ele><time>2015-01-24T08:53:26Z</time></trkpt><trkpt lat="37.3127647396" lon="-3.4350464959"><ele>1245.04</ele><time>2015-01-24T08:53:27Z</time></trkpt><trkpt lat="37.3127763905" lon="-3.4350388683"><ele>1245.04</ele><time>2015-01-24T08:53:28Z</time></trkpt><trkpt lat="37.3128788173" lon="-3.4349366091"><ele>1246.49</ele><time>2015-01-24T08:53:40Z</time></trkpt><trkpt lat="37.3129569367" lon="-3.4347569849"><ele>1247.45</ele><time>2015-01-24T08:53:54Z</time></trkpt><trkpt lat="37.3129581101" lon="-3.4347411431"><ele>1247.93</ele><time>2015-01-24T08:53:55Z</time></trkpt><trkpt lat="37.3129568528" lon="-3.4347221162"><ele>1247.93</ele><time>2015-01-24T08:53:56Z</time></trkpt><trkpt lat="37.3129572719" lon="-3.4347035084"><ele>1247.93</ele><time>2015-01-24T08:53:57Z</time></trkpt><trkpt lat="37.3129580263" lon="-3.4346869960"><ele>1248.41</ele><time>2015-01-24T08:53:58Z</time></trkpt><trkpt lat="37.3129429389" lon="-3.4344667196"><ele>1249.85</ele><time>2015-01-24T08:54:13Z</time></trkpt><trkpt lat="37.3129149433" lon="-3.4342786297"><ele>1250.81</ele><time>2015-01-24T08:54:26Z</time></trkpt><trkpt lat="37.3129101656" lon="-3.4342633747"><ele>1250.81</ele><time>2015-01-24T08:54:27Z</time></trkpt><trkpt lat="37.3129028734" lon="-3.4342497960"><ele>1250.81</ele><time>2015-01-24T08:54:28Z</time></trkpt><trkpt lat="37.3128975928" lon="-3.4342369717"><ele>1251.29</ele><time>2015-01-24T08:54:29Z</time></trkpt><trkpt lat="37.3128921445" lon="-3.4342233930"><ele>1251.29</ele><time>2015-01-24T08:54:30Z</time></trkpt><trkpt lat="37.3128863610" lon="-3.4342087246"><ele>1251.29</ele><time>2015-01-24T08:54:31Z</time></trkpt><trkpt lat="37.3128810804" lon="-3.4341931343"><ele>1251.29</ele><time>2015-01-24T08:54:32Z</time></trkpt><trkpt lat="37.3128302861" lon="-3.4340513963"><ele>1252.74</ele><time>2015-01-24T08:54:42Z</time></trkpt><trkpt lat="37.3127846047" lon="-3.4338475484"><ele>1253.22</ele><time>2015-01-24T08:54:55Z</time></trkpt><trkpt lat="37.3127750494" lon="-3.4337261785"><ele>1254.18</ele><time>2015-01-24T08:55:02Z</time></trkpt><trkpt lat="37.3127781507" lon="-3.4337105881"><ele>1254.66</ele><time>2015-01-24T08:55:03Z</time></trkpt><trkpt lat="37.3127752170" lon="-3.4336953331"><ele>1254.66</ele><time>2015-01-24T08:55:04Z</time></trkpt><trkpt lat="37.3127305415" lon="-3.4335003700"><ele>1255.62</ele><time>2015-01-24T08:55:17Z</time></trkpt><trkpt lat="37.3127277754" lon="-3.4334696084"><ele>1255.62</ele><time>2015-01-24T08:55:19Z</time></trkpt><trkpt lat="37.3127499036" lon="-3.4332875535"><ele>1256.58</ele><time>2015-01-24T08:55:32Z</time></trkpt><trkpt lat="37.3127620574" lon="-3.4331069235"><ele>1257.54</ele><time>2015-01-24T08:55:44Z</time></trkpt><trkpt lat="37.3127664160" lon="-3.4330945183"><ele>1257.54</ele><time>2015-01-24T08:55:45Z</time></trkpt><trkpt lat="37.3127695173" lon="-3.4330759104"><ele>1257.54</ele><time>2015-01-24T08:55:46Z</time></trkpt><trkpt lat="37.3127868678" lon="-3.4328829590"><ele>1258.98</ele><time>2015-01-24T08:55:58Z</time></trkpt><trkpt lat="37.3127826769" lon="-3.4326615091"><ele>1260.43</ele><time>2015-01-24T08:56:12Z</time></trkpt><trkpt lat="37.3127462994" lon="-3.4324740898"><ele>1261.39</ele><time>2015-01-24T08:56:24Z</time></trkpt><trkpt lat="37.3127063178" lon="-3.4322077129"><ele>1262.83</ele><time>2015-01-24T08:56:41Z</time></trkpt><trkpt lat="37.3127052281" lon="-3.4321917873"><ele>1262.83</ele><time>2015-01-24T08:56:42Z</time></trkpt><trkpt lat="37.3126829322" lon="-3.4320596047"><ele>1263.31</ele><time>2015-01-24T08:56:50Z</time></trkpt><trkpt lat="37.3126766458" lon="-3.4320471156"><ele>1263.31</ele><time>2015-01-24T08:56:51Z</time></trkpt><trkpt lat="37.3125792481" lon="-3.4318890329"><ele>1264.75</ele><time>2015-01-24T08:57:05Z</time></trkpt><trkpt lat="37.3125707824" lon="-3.4318842553"><ele>1265.23</ele><time>2015-01-24T08:57:06Z</time></trkpt><trkpt lat="37.3125628196" lon="-3.4318737779"><ele>1265.23</ele><time>2015-01-24T08:57:07Z</time></trkpt><trkpt lat="37.3124846164" lon="-3.4317778051"><ele>1266.19</ele><time>2015-01-24T08:57:19Z</time></trkpt><trkpt lat="37.3124792520" lon="-3.4317726083"><ele>1266.19</ele><time>2015-01-24T08:57:38Z</time></trkpt><trkpt lat="37.3124660924" lon="-3.4317649808"><ele>1266.19</ele><time>2015-01-24T08:57:43Z</time></trkpt><trkpt lat="37.3124566209" lon="-3.4317540005"><ele>1266.19</ele><time>2015-01-24T08:57:44Z</time></trkpt><trkpt lat="37.3124512564" lon="-3.4317391645"><ele>1266.19</ele><time>2015-01-24T08:57:45Z</time></trkpt><trkpt lat="37.3124462273" lon="-3.4317229874"><ele>1266.19</ele><time>2015-01-24T08:57:46Z</time></trkpt><trkpt lat="37.3124388512" lon="-3.4317101631"><ele>1266.19</ele><time>2015-01-24T08:57:47Z</time></trkpt><trkpt lat="37.3124287929" lon="-3.4316959139"><ele>1266.19</ele><time>2015-01-24T08:57:48Z</time></trkpt><trkpt lat="37.3124194052" lon="-3.4316759650"><ele>1266.19</ele><time>2015-01-24T08:57:49Z</time></trkpt><trkpt lat="37.3123809323" lon="-3.4316049702"><ele>1266.19</ele><time>2015-01-24T08:57:52Z</time></trkpt><trkpt lat="37.3123829439" lon="-3.4315543436"><ele>1266.67</ele><time>2015-01-24T08:58:01Z</time></trkpt><trkpt lat="37.3123705387" lon="-3.4315329697"><ele>1266.67</ele><time>2015-01-24T08:58:10Z</time></trkpt><trkpt lat="37.3123621568" lon="-3.4315208998"><ele>1266.67</ele><time>2015-01-24T08:58:11Z</time></trkpt><trkpt lat="37.3123582173" lon="-3.4315082431"><ele>1266.67</ele><time>2015-01-24T08:58:12Z</time></trkpt><trkpt lat="37.3123466503" lon="-3.4314415231"><ele>1267.16</ele><time>2015-01-24T08:58:17Z</time></trkpt><trkpt lat="37.3123479914" lon="-3.4313690197"><ele>1267.16</ele><time>2015-01-24T08:58:22Z</time></trkpt><trkpt lat="37.3123464826" lon="-3.4313534293"><ele>1267.16</ele><time>2015-01-24T08:58:23Z</time></trkpt><trkpt lat="37.3123474047" lon="-3.4313376714"><ele>1268.12</ele><time>2015-01-24T08:58:24Z</time></trkpt><trkpt lat="37.3123468179" lon="-3.4312981088"><ele>1268.12</ele><time>2015-01-24T08:58:27Z</time></trkpt><trkpt lat="37.3123503383" lon="-3.4312823508"><ele>1268.12</ele><time>2015-01-24T08:58:28Z</time></trkpt><trkpt lat="37.3123562895" lon="-3.4312656708"><ele>1268.12</ele><time>2015-01-24T08:58:29Z</time></trkpt><trkpt lat="37.3123605642" lon="-3.4312488232"><ele>1268.12</ele><time>2015-01-24T08:58:30Z</time></trkpt><trkpt lat="37.3123646714" lon="-3.4312298801"><ele>1268.12</ele><time>2015-01-24T08:58:31Z</time></trkpt><trkpt lat="37.3123691976" lon="-3.4312134515"><ele>1268.12</ele><time>2015-01-24T08:58:32Z</time></trkpt><trkpt lat="37.3123694491" lon="-3.4311898146"><ele>1268.12</ele><time>2015-01-24T08:58:34Z</time></trkpt><trkpt lat="37.3123997916" lon="-3.4310283791"><ele>1269.56</ele><time>2015-01-24T08:58:45Z</time></trkpt><trkpt lat="37.3124441318" lon="-3.4308672789"><ele>1271.00</ele><time>2015-01-24T08:58:58Z</time></trkpt><trkpt lat="37.3124621529" lon="-3.4307898302"><ele>1271.48</ele><time>2015-01-24T08:59:04Z</time></trkpt><trkpt lat="37.3124701995" lon="-3.4307793528"><ele>1271.48</ele><time>2015-01-24T08:59:05Z</time></trkpt><trkpt lat="37.3124776594" lon="-3.4307526145"><ele>1271.48</ele><time>2015-01-24T08:59:07Z</time></trkpt><trkpt lat="37.3124809284" lon="-3.4307381138"><ele>1271.48</ele><time>2015-01-24T08:59:08Z</time></trkpt><trkpt lat="37.3124847841" lon="-3.4307247028"><ele>1271.48</ele><time>2015-01-24T08:59:09Z</time></trkpt><trkpt lat="37.3124946747" lon="-3.4306609165"><ele>1271.96</ele><time>2015-01-24T08:59:13Z</time></trkpt><trkpt lat="37.3124997038" lon="-3.4306493495"><ele>1271.96</ele><time>2015-01-24T08:59:14Z</time></trkpt><trkpt lat="37.3125073314" lon="-3.4306244552"><ele>1272.44</ele><time>2015-01-24T08:59:16Z</time></trkpt><trkpt lat="37.3125163838" lon="-3.4305012412"><ele>1273.40</ele><time>2015-01-24T08:59:26Z</time></trkpt><trkpt lat="37.3125546053" lon="-3.4303563181"><ele>1274.36</ele><time>2015-01-24T08:59:38Z</time></trkpt><trkpt lat="37.3125545215" lon="-3.4303408116"><ele>1274.36</ele><time>2015-01-24T08:59:39Z</time></trkpt><trkpt lat="37.3125659209" lon="-3.4302972257"><ele>1275.33</ele><time>2015-01-24T08:59:43Z</time></trkpt><trkpt lat="37.3125730455" lon="-3.4302819706"><ele>1275.33</ele><time>2015-01-24T08:59:44Z</time></trkpt><trkpt lat="37.3125868756" lon="-3.4302333556"><ele>1275.81</ele><time>2015-01-24T08:59:48Z</time></trkpt><trkpt lat="37.3125888035" lon="-3.4302165918"><ele>1275.81</ele><time>2015-01-24T08:59:49Z</time></trkpt><trkpt lat="37.3125950899" lon="-3.4301713295"><ele>1276.29</ele><time>2015-01-24T08:59:52Z</time></trkpt><trkpt lat="37.3126056511" lon="-3.4301525541"><ele>1276.29</ele><time>2015-01-24T08:59:54Z</time></trkpt><trkpt lat="37.3126103450" lon="-3.4301383048"><ele>1276.77</ele><time>2015-01-24T08:59:55Z</time></trkpt><trkpt lat="37.3126167990" lon="-3.4301257320"><ele>1276.77</ele><time>2015-01-24T08:59:56Z</time></trkpt><trkpt lat="37.3126243427" lon="-3.4301125724"><ele>1276.77</ele><time>2015-01-24T08:59:57Z</time></trkpt><trkpt lat="37.3126301263" lon="-3.4300965630"><ele>1276.77</ele><time>2015-01-24T08:59:58Z</time></trkpt><trkpt lat="37.3126678448" lon="-3.4299731813"><ele>1277.73</ele><time>2015-01-24T09:00:08Z</time></trkpt><trkpt lat="37.3126744665" lon="-3.4299598541"><ele>1277.73</ele><time>2015-01-24T09:00:09Z</time></trkpt><trkpt lat="37.3126839381" lon="-3.4299490415"><ele>1277.73</ele><time>2015-01-24T09:00:10Z</time></trkpt><trkpt lat="37.3127815034" lon="-3.4298218042"><ele>1279.17</ele><time>2015-01-24T09:00:22Z</time></trkpt><trkpt lat="37.3127915617" lon="-3.4298154339"><ele>1279.17</ele><time>2015-01-24T09:00:23Z</time></trkpt><trkpt lat="37.3129502311" lon="-3.4297085647"><ele>1280.13</ele><time>2015-01-24T09:00:37Z</time></trkpt><trkpt lat="37.3129668273" lon="-3.4296894539"><ele>1280.13</ele><time>2015-01-24T09:00:39Z</time></trkpt><trkpt lat="37.3129753768" lon="-3.4296783060"><ele>1280.61</ele><time>2015-01-24T09:00:40Z</time></trkpt><trkpt lat="37.3129845969" lon="-3.4296659008"><ele>1280.61</ele><time>2015-01-24T09:00:41Z</time></trkpt><trkpt lat="37.3130983394" lon="-3.4295195527"><ele>1282.54</ele><time>2015-01-24T09:00:55Z</time></trkpt><trkpt lat="37.3131149355" lon="-3.4294689260"><ele>1282.54</ele><time>2015-01-24T09:00:59Z</time></trkpt><trkpt lat="37.3131384049" lon="-3.4293701034"><ele>1283.02</ele><time>2015-01-24T09:01:06Z</time></trkpt><trkpt lat="37.3131727707" lon="-3.4292280301"><ele>1284.46</ele><time>2015-01-24T09:01:17Z</time></trkpt><trkpt lat="37.3131803144" lon="-3.4291591309"><ele>1284.94</ele><time>2015-01-24T09:01:22Z</time></trkpt><trkpt lat="37.3132278398" lon="-3.4290435445"><ele>1285.90</ele><time>2015-01-24T09:01:31Z</time></trkpt><trkpt lat="37.3132368084" lon="-3.4290325642"><ele>1285.90</ele><time>2015-01-24T09:01:32Z</time></trkpt><trkpt lat="37.3132456094" lon="-3.4290227573"><ele>1285.90</ele><time>2015-01-24T09:01:33Z</time></trkpt><trkpt lat="37.3132523987" lon="-3.4290091787"><ele>1285.90</ele><time>2015-01-24T09:01:34Z</time></trkpt><trkpt lat="37.3132549971" lon="-3.4289914928"><ele>1285.90</ele><time>2015-01-24T09:01:35Z</time></trkpt><trkpt lat="37.3132668156" lon="-3.4289541934"><ele>1286.38</ele><time>2015-01-24T09:01:38Z</time></trkpt><trkpt lat="37.3132830765" lon="-3.4289374296"><ele>1286.86</ele><time>2015-01-24T09:01:40Z</time></trkpt><trkpt lat="37.3132952303" lon="-3.4289287962"><ele>1286.86</ele><time>2015-01-24T09:01:41Z</time></trkpt><trkpt lat="37.3133124970" lon="-3.4289116971"><ele>1286.86</ele><time>2015-01-24T09:01:43Z</time></trkpt><trkpt lat="37.3133198731" lon="-3.4289003816"><ele>1287.34</ele><time>2015-01-24T09:01:44Z</time></trkpt><trkpt lat="37.3133257404" lon="-3.4288868029"><ele>1287.34</ele><time>2015-01-24T09:01:45Z</time></trkpt><trkpt lat="37.3133493774" lon="-3.4288595617"><ele>1287.34</ele><time>2015-01-24T09:01:48Z</time></trkpt><trkpt lat="37.3134005070" lon="-3.4287974518"><ele>1288.30</ele><time>2015-01-24T09:01:55Z</time></trkpt><trkpt lat="37.3134109844" lon="-3.4287884831"><ele>1288.30</ele><time>2015-01-24T09:01:56Z</time></trkpt><trkpt lat="37.3134207074" lon="-3.4287602361"><ele>1288.30</ele><time>2015-01-24T09:01:58Z</time></trkpt><trkpt lat="37.3134569172" lon="-3.4287024010"><ele>1288.78</ele><time>2015-01-24T09:02:04Z</time></trkpt><trkpt lat="37.3135476932" lon="-3.4285462461"><ele>1290.71</ele><time>2015-01-24T09:02:19Z</time></trkpt><trkpt lat="37.3135822266" lon="-3.4283622634"><ele>1291.67</ele><time>2015-01-24T09:02:32Z</time></trkpt><trkpt lat="37.3135508783" lon="-3.4282252192"><ele>1292.15</ele><time>2015-01-24T09:02:42Z</time></trkpt><trkpt lat="37.3134623654" lon="-3.4279676434"><ele>1294.07</ele><time>2015-01-24T09:03:01Z</time></trkpt><trkpt lat="37.3134595156" lon="-3.4279113170"><ele>1294.55</ele><time>2015-01-24T09:03:05Z</time></trkpt><trkpt lat="37.3134832364" lon="-3.4278217983"><ele>1295.51</ele><time>2015-01-24T09:03:13Z</time></trkpt><trkpt lat="37.3135165963" lon="-3.4278033581"><ele>1296.48</ele><time>2015-01-24T09:03:25Z</time></trkpt><trkpt lat="37.3135936260" lon="-3.4278211277"><ele>1297.44</ele><time>2015-01-24T09:03:38Z</time></trkpt><trkpt lat="37.3136038519" lon="-3.4278313536"><ele>1297.44</ele><time>2015-01-24T09:03:39Z</time></trkpt><trkpt lat="37.3137219530" lon="-3.4280866664"><ele>1298.88</ele><time>2015-01-24T09:03:58Z</time></trkpt><trkpt lat="37.3137382139" lon="-3.4281235468"><ele>1298.88</ele><time>2015-01-24T09:04:01Z</time></trkpt><trkpt lat="37.3137426563" lon="-3.4281373769"><ele>1298.88</ele><time>2015-01-24T09:04:02Z</time></trkpt><trkpt lat="37.3138004076" lon="-3.4282855690"><ele>1299.36</ele><time>2015-01-24T09:04:13Z</time></trkpt><trkpt lat="37.3138035927" lon="-3.4282988124"><ele>1299.36</ele><time>2015-01-24T09:04:14Z</time></trkpt><trkpt lat="37.3138076160" lon="-3.4283138998"><ele>1299.84</ele><time>2015-01-24T09:04:15Z</time></trkpt><trkpt lat="37.3138128128" lon="-3.4283295739"><ele>1299.84</ele><time>2015-01-24T09:04:16Z</time></trkpt><trkpt lat="37.3138183448" lon="-3.4283461701"><ele>1299.84</ele><time>2015-01-24T09:04:17Z</time></trkpt><trkpt lat="37.3138251342" lon="-3.4283629339"><ele>1299.84</ele><time>2015-01-24T09:04:18Z</time></trkpt><trkpt lat="37.3138306662" lon="-3.4283783566"><ele>1300.32</ele><time>2015-01-24T09:04:19Z</time></trkpt><trkpt lat="37.3139200173" lon="-3.4285309073"><ele>1301.76</ele><time>2015-01-24T09:04:32Z</time></trkpt><trkpt lat="37.3139326740" lon="-3.4285379481"><ele>1301.76</ele><time>2015-01-24T09:04:33Z</time></trkpt><trkpt lat="37.3139469232" lon="-3.4285409655"><ele>1302.24</ele><time>2015-01-24T09:04:34Z</time></trkpt><trkpt lat="37.3140683770" lon="-3.4284772631"><ele>1302.72</ele><time>2015-01-24T09:04:48Z</time></trkpt><trkpt lat="37.3140669521" lon="-3.4283019975"><ele>1303.69</ele><time>2015-01-24T09:05:00Z</time></trkpt><trkpt lat="37.3139884975" lon="-3.4280844033"><ele>1305.13</ele><time>2015-01-24T09:05:15Z</time></trkpt><trkpt lat="37.3139399663" lon="-3.4278244805"><ele>1305.61</ele><time>2015-01-24T09:05:32Z</time></trkpt><trkpt lat="37.3140167445" lon="-3.4275509790"><ele>1307.05</ele><time>2015-01-24T09:05:50Z</time></trkpt><trkpt lat="37.3141324986" lon="-3.4273561835"><ele>1307.53</ele><time>2015-01-24T09:06:06Z</time></trkpt><trkpt lat="37.3142510187" lon="-3.4271053132"><ele>1308.49</ele><time>2015-01-24T09:06:24Z</time></trkpt><trkpt lat="37.3143188283" lon="-3.4269230906"><ele>1309.45</ele><time>2015-01-24T09:06:37Z</time></trkpt><trkpt lat="37.3143194150" lon="-3.4269100986"><ele>1309.45</ele><time>2015-01-24T09:06:38Z</time></trkpt><trkpt lat="37.3143655155" lon="-3.4268563706"><ele>1310.41</ele><time>2015-01-24T09:06:52Z</time></trkpt><trkpt lat="37.3143456504" lon="-3.4268068336"><ele>1310.41</ele><time>2015-01-24T09:07:10Z</time></trkpt><trkpt lat="37.3143469915" lon="-3.4267338272"><ele>1310.41</ele><time>2015-01-24T09:07:23Z</time></trkpt><trkpt lat="37.3143450636" lon="-3.4266832005"><ele>1310.41</ele><time>2015-01-24T09:07:27Z</time></trkpt><trkpt lat="37.3143427167" lon="-3.4266562946"><ele>1310.90</ele><time>2015-01-24T09:07:29Z</time></trkpt><trkpt lat="37.3143390287" lon="-3.4266399499"><ele>1310.90</ele><time>2015-01-24T09:07:30Z</time></trkpt><trkpt lat="37.3143351730" lon="-3.4266220964"><ele>1310.90</ele><time>2015-01-24T09:07:31Z</time></trkpt><trkpt lat="37.3143300600" lon="-3.4266053326"><ele>1310.90</ele><time>2015-01-24T09:07:32Z</time></trkpt><trkpt lat="37.3143242765" lon="-3.4265915025"><ele>1310.90</ele><time>2015-01-24T09:07:33Z</time></trkpt><trkpt lat="37.3143103626" lon="-3.4265775885"><ele>1310.90</ele><time>2015-01-24T09:07:47Z</time></trkpt><trkpt lat="37.3143022321" lon="-3.4265531972"><ele>1309.93</ele><time>2015-01-24T09:07:50Z</time></trkpt><trkpt lat="37.3143003881" lon="-3.4265526943"><ele>1310.90</ele><time>2015-01-24T09:07:52Z</time></trkpt><trkpt lat="37.3142913356" lon="-3.4265582263"><ele>1310.90</ele><time>2015-01-24T09:08:07Z</time></trkpt><trkpt lat="37.3142681178" lon="-3.4265599865"><ele>1310.90</ele><time>2015-01-24T09:08:24Z</time></trkpt><trkpt lat="37.3142665252" lon="-3.4265554603"><ele>1310.90</ele><time>2015-01-24T09:08:51Z</time></trkpt><trkpt lat="37.3142557964" lon="-3.4265459049"><ele>1310.90</ele><time>2015-01-24T09:09:13Z</time></trkpt><trkpt lat="37.3142562993" lon="-3.4265518561"><ele>1309.45</ele><time>2015-01-24T09:09:15Z</time></trkpt><trkpt lat="37.3142450675" lon="-3.4265591484"><ele>1309.93</ele><time>2015-01-24T09:09:30Z</time></trkpt><trkpt lat="37.3142805230" lon="-3.4265697934"><ele>1309.93</ele><time>2015-01-24T09:09:49Z</time></trkpt><trkpt lat="37.3142669443" lon="-3.4265609924"><ele>1309.93</ele><time>2015-01-24T09:10:02Z</time></trkpt><trkpt lat="37.3142611608" lon="-3.4265532810"><ele>1309.93</ele><time>2015-01-24T09:10:13Z</time></trkpt><trkpt lat="37.3142726440" lon="-3.4265548736"><ele>1309.93</ele><time>2015-01-24T09:10:27Z</time></trkpt><trkpt lat="37.3142561316" lon="-3.4265454020"><ele>1309.93</ele><time>2015-01-24T09:10:46Z</time></trkpt><trkpt lat="37.3142235260" lon="-3.4265736490"><ele>1308.97</ele><time>2015-01-24T09:11:01Z</time></trkpt><trkpt lat="37.3142771702" lon="-3.4265493415"><ele>1308.97</ele><time>2015-01-24T09:11:18Z</time></trkpt><trkpt lat="37.3142942693" lon="-3.4265480842"><ele>1309.93</ele><time>2015-01-24T09:11:26Z</time></trkpt><trkpt lat="37.3143226001" lon="-3.4265259560"><ele>1309.93</ele><time>2015-01-24T09:11:32Z</time></trkpt><trkpt lat="37.3143966962" lon="-3.4265930951"><ele>1309.93</ele><time>2015-01-24T09:11:41Z</time></trkpt><trkpt lat="37.3145467322" lon="-3.4266316518"><ele>1311.38</ele><time>2015-01-24T09:11:52Z</time></trkpt><trkpt lat="37.3145437986" lon="-3.4266195819"><ele>1311.38</ele><time>2015-01-24T09:12:06Z</time></trkpt><trkpt lat="37.3145439662" lon="-3.4265714698"><ele>1311.38</ele><time>2015-01-24T09:12:35Z</time></trkpt><trkpt lat="37.3145614844" lon="-3.4266242757"><ele>1311.38</ele><time>2015-01-24T09:13:00Z</time></trkpt><trkpt lat="37.3145187367" lon="-3.4266351722"><ele>1309.93</ele><time>2015-01-24T09:13:14Z</time></trkpt><trkpt lat="37.3145120312" lon="-3.4266302269"><ele>1309.93</ele><time>2015-01-24T09:13:15Z</time></trkpt><trkpt lat="37.3144206684" lon="-3.4265722241"><ele>1309.45</ele><time>2015-01-24T09:13:23Z</time></trkpt><trkpt lat="37.3144667689" lon="-3.4266398661"><ele>1309.45</ele><time>2015-01-24T09:13:27Z</time></trkpt><trkpt lat="37.3144841194" lon="-3.4266450629"><ele>1309.45</ele><time>2015-01-24T09:13:28Z</time></trkpt><trkpt lat="37.3144820239" lon="-3.4266216774"><ele>1309.45</ele><time>2015-01-24T09:13:31Z</time></trkpt><trkpt lat="37.3144628294" lon="-3.4266027343"><ele>1309.45</ele><time>2015-01-24T09:13:32Z</time></trkpt><trkpt lat="37.3143277969" lon="-3.4264924284"><ele>1308.97</ele><time>2015-01-24T09:13:39Z</time></trkpt><trkpt lat="37.3143169004" lon="-3.4264638461"><ele>1308.97</ele><time>2015-01-24T09:13:40Z</time></trkpt><trkpt lat="37.3143122904" lon="-3.4264316596"><ele>1308.97</ele><time>2015-01-24T09:13:41Z</time></trkpt><trkpt lat="37.3143213429" lon="-3.4260455891"><ele>1307.53</ele><time>2015-01-24T09:13:52Z</time></trkpt><trkpt lat="37.3143148888" lon="-3.4257549886"><ele>1307.53</ele><time>2015-01-24T09:14:01Z</time></trkpt><trkpt lat="37.3142904975" lon="-3.4254518151"><ele>1307.53</ele><time>2015-01-24T09:14:11Z</time></trkpt><trkpt lat="37.3142780922" lon="-3.4251912218"><ele>1306.57</ele><time>2015-01-24T09:14:25Z</time></trkpt><trkpt lat="37.3144375160" lon="-3.4249314666"><ele>1306.57</ele><time>2015-01-24T09:14:42Z</time></trkpt><trkpt lat="37.3146452196" lon="-3.4247482382"><ele>1306.09</ele><time>2015-01-24T09:14:53Z</time></trkpt><trkpt lat="37.3148285318" lon="-3.4245930053"><ele>1305.13</ele><time>2015-01-24T09:15:10Z</time></trkpt><trkpt lat="37.3149634805" lon="-3.4244620800"><ele>1305.13</ele><time>2015-01-24T09:15:25Z</time></trkpt><trkpt lat="37.3150524963" lon="-3.4243480023"><ele>1305.13</ele><time>2015-01-24T09:15:35Z</time></trkpt><trkpt lat="37.3151758779" lon="-3.4241169970"><ele>1304.65</ele><time>2015-01-24T09:15:54Z</time></trkpt><trkpt lat="37.3153254949" lon="-3.4240003210"><ele>1302.72</ele><time>2015-01-24T09:16:09Z</time></trkpt><trkpt lat="37.3153358046" lon="-3.4239916876"><ele>1302.24</ele><time>2015-01-24T09:16:10Z</time></trkpt><trkpt lat="37.3153466173" lon="-3.4239856526"><ele>1302.24</ele><time>2015-01-24T09:16:11Z</time></trkpt><trkpt lat="37.3153586034" lon="-3.4239803720"><ele>1302.24</ele><time>2015-01-24T09:16:12Z</time></trkpt><trkpt lat="37.3153715953" lon="-3.4239783604"><ele>1302.24</ele><time>2015-01-24T09:16:13Z</time></trkpt><trkpt lat="37.3153840005" lon="-3.4239770193"><ele>1301.76</ele><time>2015-01-24T09:16:14Z</time></trkpt><trkpt lat="37.3154501338" lon="-3.4239592496"><ele>1300.80</ele><time>2015-01-24T09:16:20Z</time></trkpt><trkpt lat="37.3154606950" lon="-3.4239549749"><ele>1300.80</ele><time>2015-01-24T09:16:21Z</time></trkpt><trkpt lat="37.3155855015" lon="-3.4238393884"><ele>1298.88</ele><time>2015-01-24T09:16:34Z</time></trkpt><trkpt lat="37.3155906145" lon="-3.4238267317"><ele>1298.88</ele><time>2015-01-24T09:16:35Z</time></trkpt><trkpt lat="37.3155980743" lon="-3.4238160029"><ele>1298.88</ele><time>2015-01-24T09:16:36Z</time></trkpt><trkpt lat="37.3156068753" lon="-3.4238040168"><ele>1298.88</ele><time>2015-01-24T09:16:37Z</time></trkpt><trkpt lat="37.3156151734" lon="-3.4237929527"><ele>1298.88</ele><time>2015-01-24T09:16:38Z</time></trkpt><trkpt lat="37.3156207055" lon="-3.4237808827"><ele>1298.88</ele><time>2015-01-24T09:16:39Z</time></trkpt><trkpt lat="37.3156280816" lon="-3.4237688128"><ele>1298.40</ele><time>2015-01-24T09:16:40Z</time></trkpt><trkpt lat="37.3156361282" lon="-3.4237560723"><ele>1298.40</ele><time>2015-01-24T09:16:41Z</time></trkpt><trkpt lat="37.3156444263" lon="-3.4237450082"><ele>1298.40</ele><time>2015-01-24T09:16:42Z</time></trkpt><trkpt lat="37.3156541493" lon="-3.4237363748"><ele>1298.40</ele><time>2015-01-24T09:16:43Z</time></trkpt><trkpt lat="37.3156637046" lon="-3.4237284120"><ele>1298.40</ele><time>2015-01-24T09:16:44Z</time></trkpt><trkpt lat="37.3156734277" lon="-3.4237188566"><ele>1298.40</ele><time>2015-01-24T09:16:45Z</time></trkpt><trkpt lat="37.3156831507" lon="-3.4237079602"><ele>1298.40</ele><time>2015-01-24T09:16:46Z</time></trkpt><trkpt lat="37.3156929575" lon="-3.4236973990"><ele>1297.92</ele><time>2015-01-24T09:16:47Z</time></trkpt><trkpt lat="37.3157033511" lon="-3.4236880112"><ele>1297.92</ele><time>2015-01-24T09:16:48Z</time></trkpt><trkpt lat="37.3157137446" lon="-3.4236782882"><ele>1297.92</ele><time>2015-01-24T09:16:49Z</time></trkpt><trkpt lat="37.3157229647" lon="-3.4236688167"><ele>1297.92</ele><time>2015-01-24T09:16:50Z</time></trkpt><trkpt lat="37.3157329392" lon="-3.4236596804"><ele>1297.92</ele><time>2015-01-24T09:16:51Z</time></trkpt><trkpt lat="37.3157427460" lon="-3.4236502927"><ele>1297.44</ele><time>2015-01-24T09:16:52Z</time></trkpt><trkpt lat="37.3157508764" lon="-3.4236403182"><ele>1297.44</ele><time>2015-01-24T09:16:53Z</time></trkpt><trkpt lat="37.3158709891" lon="-3.4235560801"><ele>1296.48</ele><time>2015-01-24T09:17:05Z</time></trkpt><trkpt lat="37.3159962147" lon="-3.4234264120"><ele>1295.99</ele><time>2015-01-24T09:17:19Z</time></trkpt><trkpt lat="37.3160947859" lon="-3.4232994262"><ele>1295.03</ele><time>2015-01-24T09:17:33Z</time></trkpt><trkpt lat="37.3161414731" lon="-3.4230348933"><ele>1294.55</ele><time>2015-01-24T09:17:51Z</time></trkpt><trkpt lat="37.3160667066" lon="-3.4227636550"><ele>1293.59</ele><time>2015-01-24T09:18:09Z</time></trkpt><trkpt lat="37.3159291595" lon="-3.4226386808"><ele>1291.19</ele><time>2015-01-24T09:18:25Z</time></trkpt><trkpt lat="37.3159020860" lon="-3.4225711226"><ele>1290.71</ele><time>2015-01-24T09:18:31Z</time></trkpt><trkpt lat="37.3159026727" lon="-3.4225581307"><ele>1290.71</ele><time>2015-01-24T09:18:32Z</time></trkpt><trkpt lat="37.3159756791" lon="-3.4223696217"><ele>1289.27</ele><time>2015-01-24T09:18:46Z</time></trkpt><trkpt lat="37.3160884995" lon="-3.4221700486"><ele>1288.30</ele><time>2015-01-24T09:19:02Z</time></trkpt><trkpt lat="37.3163277190" lon="-3.4220342617"><ele>1285.90</ele><time>2015-01-24T09:19:24Z</time></trkpt><trkpt lat="37.3165075947" lon="-3.4219272248"><ele>1284.46</ele><time>2015-01-24T09:19:42Z</time></trkpt><trkpt lat="37.3167100176" lon="-3.4217913542"><ele>1283.02</ele><time>2015-01-24T09:20:00Z</time></trkpt><trkpt lat="37.3167002946" lon="-3.4215542302"><ele>1281.09</ele><time>2015-01-24T09:20:17Z</time></trkpt><trkpt lat="37.3165181559" lon="-3.4213471971"><ele>1279.17</ele><time>2015-01-24T09:20:37Z</time></trkpt><trkpt lat="37.3164198361" lon="-3.4212114941"><ele>1279.17</ele><time>2015-01-24T09:20:49Z</time></trkpt><trkpt lat="37.3164142203" lon="-3.4212007653"><ele>1279.17</ele><time>2015-01-24T09:20:50Z</time></trkpt><trkpt lat="37.3162544612" lon="-3.4209946543"><ele>1278.69</ele><time>2015-01-24T09:21:09Z</time></trkpt><trkpt lat="37.3161413055" lon="-3.4207730368"><ele>1277.73</ele><time>2015-01-24T09:21:27Z</time></trkpt><trkpt lat="37.3161377851" lon="-3.4207558539"><ele>1277.25</ele><time>2015-01-24T09:21:28Z</time></trkpt><trkpt lat="37.3161340132" lon="-3.4207426105"><ele>1277.25</ele><time>2015-01-24T09:21:29Z</time></trkpt><trkpt lat="37.3160827998" lon="-3.4205598850"><ele>1276.29</ele><time>2015-01-24T09:21:42Z</time></trkpt><trkpt lat="37.3160518706" lon="-3.4204684384"><ele>1275.81</ele><time>2015-01-24T09:21:51Z</time></trkpt><trkpt lat="37.3160414770" lon="-3.4204081725"><ele>1274.85</ele><time>2015-01-24T09:21:55Z</time></trkpt><trkpt lat="37.3160390463" lon="-3.4203961026"><ele>1274.85</ele><time>2015-01-24T09:21:56Z</time></trkpt><trkpt lat="37.3160382081" lon="-3.4203826077"><ele>1274.85</ele><time>2015-01-24T09:21:57Z</time></trkpt><trkpt lat="37.3160403874" lon="-3.4201728087"><ele>1273.40</ele><time>2015-01-24T09:22:12Z</time></trkpt><trkpt lat="37.3160996474" lon="-3.4199327510"><ele>1272.44</ele><time>2015-01-24T09:22:28Z</time></trkpt><trkpt lat="37.3161118012" lon="-3.4197123069"><ele>1272.44</ele><time>2015-01-24T09:22:44Z</time></trkpt><trkpt lat="37.3161065206" lon="-3.4196307510"><ele>1272.44</ele><time>2015-01-24T09:22:55Z</time></trkpt><trkpt lat="37.3161066882" lon="-3.4196148254"><ele>1271.96</ele><time>2015-01-24T09:23:12Z</time></trkpt><trkpt lat="37.3161138128" lon="-3.4195837285"><ele>1271.96</ele><time>2015-01-24T09:23:15Z</time></trkpt><trkpt lat="37.3161154054" lon="-3.4195725806"><ele>1271.96</ele><time>2015-01-24T09:23:16Z</time></trkpt><trkpt lat="37.3161709774" lon="-3.4193283319"><ele>1271.00</ele><time>2015-01-24T09:23:33Z</time></trkpt><trkpt lat="37.3162211850" lon="-3.4191841632"><ele>1271.00</ele><time>2015-01-24T09:23:47Z</time></trkpt><trkpt lat="37.3163228575" lon="-3.4189809021"><ele>1271.00</ele><time>2015-01-24T09:24:04Z</time></trkpt><trkpt lat="37.3163244501" lon="-3.4189651441"><ele>1271.00</ele><time>2015-01-24T09:24:05Z</time></trkpt><trkpt lat="37.3162867315" lon="-3.4187164530"><ele>1272.92</ele><time>2015-01-24T09:24:19Z</time></trkpt><trkpt lat="37.3161829636" lon="-3.4185319673"><ele>1274.85</ele><time>2015-01-24T09:24:34Z</time></trkpt><trkpt lat="37.3161702231" lon="-3.4185235016"><ele>1274.85</ele><time>2015-01-24T09:24:35Z</time></trkpt><trkpt lat="37.3161613382" lon="-3.4185126889"><ele>1274.85</ele><time>2015-01-24T09:24:36Z</time></trkpt><trkpt lat="37.3161519505" lon="-3.4185031336"><ele>1274.85</ele><time>2015-01-24T09:24:37Z</time></trkpt><trkpt lat="37.3161418084" lon="-3.4184932429"><ele>1275.33</ele><time>2015-01-24T09:24:38Z</time></trkpt><trkpt lat="37.3159808759" lon="-3.4183427040"><ele>1276.29</ele><time>2015-01-24T09:24:55Z</time></trkpt><trkpt lat="37.3159360327" lon="-3.4180951025"><ele>1278.69</ele><time>2015-01-24T09:25:12Z</time></trkpt><trkpt lat="37.3159073666" lon="-3.4178346768"><ele>1279.65</ele><time>2015-01-24T09:25:30Z</time></trkpt><trkpt lat="37.3159052711" lon="-3.4176078625"><ele>1280.13</ele><time>2015-01-24T09:25:45Z</time></trkpt><trkpt lat="37.3159082886" lon="-3.4175936133"><ele>1280.13</ele><time>2015-01-24T09:25:46Z</time></trkpt><trkpt lat="37.3159082886" lon="-3.4175783582"><ele>1280.13</ele><time>2015-01-24T09:25:47Z</time></trkpt><trkpt lat="37.3158715758" lon="-3.4173322655"><ele>1280.13</ele><time>2015-01-24T09:26:03Z</time></trkpt><trkpt lat="37.3157919478" lon="-3.4170454368"><ele>1280.13</ele><time>2015-01-24T09:26:22Z</time></trkpt><trkpt lat="37.3158717435" lon="-3.4167840052"><ele>1280.13</ele><time>2015-01-24T09:26:41Z</time></trkpt><trkpt lat="37.3159739189" lon="-3.4166529961"><ele>1280.13</ele><time>2015-01-24T09:26:54Z</time></trkpt><trkpt lat="37.3159794509" lon="-3.4166412614"><ele>1280.13</ele><time>2015-01-24T09:26:55Z</time></trkpt><trkpt lat="37.3160841409" lon="-3.4164227452"><ele>1280.61</ele><time>2015-01-24T09:27:13Z</time></trkpt><trkpt lat="37.3161663674" lon="-3.4162138682"><ele>1282.06</ele><time>2015-01-24T09:27:29Z</time></trkpt><trkpt lat="37.3163305689" lon="-3.4160505049"><ele>1282.06</ele><time>2015-01-24T09:27:47Z</time></trkpt><trkpt lat="37.3164997995" lon="-3.4159194119"><ele>1280.61</ele><time>2015-01-24T09:28:05Z</time></trkpt><trkpt lat="37.3166213371" lon="-3.4157520253"><ele>1280.13</ele><time>2015-01-24T09:28:21Z</time></trkpt><trkpt lat="37.3167411145" lon="-3.4155631810"><ele>1280.13</ele><time>2015-01-24T09:28:39Z</time></trkpt><trkpt lat="37.3168123607" lon="-3.4153131489"><ele>1278.69</ele><time>2015-01-24T09:28:58Z</time></trkpt><trkpt lat="37.3168323934" lon="-3.4151204489"><ele>1278.69</ele><time>2015-01-24T09:29:12Z</time></trkpt><trkpt lat="37.3167951778" lon="-3.4149069618"><ele>1278.69</ele><time>2015-01-24T09:29:30Z</time></trkpt><trkpt lat="37.3167387675" lon="-3.4146833327"><ele>1278.69</ele><time>2015-01-24T09:29:47Z</time></trkpt><trkpt lat="37.3166976124" lon="-3.4144101664"><ele>1278.69</ele><time>2015-01-24T09:30:06Z</time></trkpt><trkpt lat="37.3166873027" lon="-3.4142852761"><ele>1278.21</ele><time>2015-01-24T09:30:14Z</time></trkpt><trkpt lat="37.3166905716" lon="-3.4142700210"><ele>1278.21</ele><time>2015-01-24T09:30:15Z</time></trkpt><trkpt lat="37.3166914098" lon="-3.4142540954"><ele>1278.21</ele><time>2015-01-24T09:30:16Z</time></trkpt><trkpt lat="37.3167102691" lon="-3.4141664207"><ele>1279.65</ele><time>2015-01-24T09:30:23Z</time></trkpt><trkpt lat="37.3167137895" lon="-3.4141507465"><ele>1279.65</ele><time>2015-01-24T09:30:24Z</time></trkpt><trkpt lat="37.3167184833" lon="-3.4141365811"><ele>1279.65</ele><time>2015-01-24T09:30:25Z</time></trkpt><trkpt lat="37.3168349918" lon="-3.4139315598"><ele>1278.21</ele><time>2015-01-24T09:30:42Z</time></trkpt><trkpt lat="37.3169810046" lon="-3.4137455653"><ele>1278.69</ele><time>2015-01-24T09:30:59Z</time></trkpt><trkpt lat="37.3171390034" lon="-3.4136194177"><ele>1278.69</ele><time>2015-01-24T09:31:16Z</time></trkpt><trkpt lat="37.3171415180" lon="-3.4136070125"><ele>1278.69</ele><time>2015-01-24T09:31:17Z</time></trkpt><trkpt lat="37.3171438649" lon="-3.4135920927"><ele>1278.69</ele><time>2015-01-24T09:31:18Z</time></trkpt><trkpt lat="37.3171432782" lon="-3.4135768376"><ele>1278.69</ele><time>2015-01-24T09:31:19Z</time></trkpt><trkpt lat="37.3171317112" lon="-3.4135219362"><ele>1279.65</ele><time>2015-01-24T09:31:23Z</time></trkpt><trkpt lat="37.3170066532" lon="-3.4133667033"><ele>1278.21</ele><time>2015-01-24T09:31:38Z</time></trkpt><trkpt lat="37.3168173060" lon="-3.4132235404"><ele>1277.25</ele><time>2015-01-24T09:31:55Z</time></trkpt><trkpt lat="37.3166909907" lon="-3.4129419085"><ele>1276.29</ele><time>2015-01-24T09:32:14Z</time></trkpt><trkpt lat="37.3166105244" lon="-3.4126748610"><ele>1276.29</ele><time>2015-01-24T09:32:31Z</time></trkpt><trkpt lat="37.3165156413" lon="-3.4124459513"><ele>1276.29</ele><time>2015-01-24T09:32:47Z</time></trkpt><trkpt lat="37.3164185788" lon="-3.4121975955"><ele>1276.29</ele><time>2015-01-24T09:33:05Z</time></trkpt><trkpt lat="37.3163328320" lon="-3.4119124431"><ele>1276.29</ele><time>2015-01-24T09:33:23Z</time></trkpt><trkpt lat="37.3163082730" lon="-3.4116199985"><ele>1274.85</ele><time>2015-01-24T09:33:41Z</time></trkpt><trkpt lat="37.3163281381" lon="-3.4113304876"><ele>1274.85</ele><time>2015-01-24T09:33:59Z</time></trkpt><trkpt lat="37.3163719755" lon="-3.4110757615"><ele>1274.36</ele><time>2015-01-24T09:34:14Z</time></trkpt><trkpt lat="37.3164812755" lon="-3.4107029345"><ele>1273.88</ele><time>2015-01-24T09:34:37Z</time></trkpt><trkpt lat="37.3166610673" lon="-3.4103612881"><ele>1273.88</ele><time>2015-01-24T09:35:01Z</time></trkpt><trkpt lat="37.3168113548" lon="-3.4101335518"><ele>1273.88</ele><time>2015-01-24T09:35:18Z</time></trkpt><trkpt lat="37.3168337345" lon="-3.4100941569"><ele>1273.88</ele><time>2015-01-24T09:35:21Z</time></trkpt><trkpt lat="37.3168432899" lon="-3.4100843500"><ele>1273.88</ele><time>2015-01-24T09:35:22Z</time></trkpt><trkpt lat="37.3168523423" lon="-3.4100724477"><ele>1273.88</ele><time>2015-01-24T09:35:23Z</time></trkpt><trkpt lat="37.3169353232" lon="-3.4099716134"><ele>1273.88</ele><time>2015-01-24T09:35:33Z</time></trkpt><trkpt lat="37.3169431183" lon="-3.4099607170"><ele>1273.88</ele><time>2015-01-24T09:35:34Z</time></trkpt><trkpt lat="37.3169530090" lon="-3.4099522512"><ele>1273.88</ele><time>2015-01-24T09:35:35Z</time></trkpt><trkpt lat="37.3169643246" lon="-3.4099437017"><ele>1273.88</ele><time>2015-01-24T09:35:36Z</time></trkpt><trkpt lat="37.3169751372" lon="-3.4099329729"><ele>1273.88</ele><time>2015-01-24T09:35:37Z</time></trkpt><trkpt lat="37.3171040509" lon="-3.4098015446"><ele>1275.81</ele><time>2015-01-24T09:35:51Z</time></trkpt><trkpt lat="37.3172384128" lon="-3.4096610639"><ele>1277.73</ele><time>2015-01-24T09:36:07Z</time></trkpt><trkpt lat="37.3172629718" lon="-3.4096525144"><ele>1277.73</ele><time>2015-01-24T09:36:09Z</time></trkpt><trkpt lat="37.3174237367" lon="-3.4095531888"><ele>1279.65</ele><time>2015-01-24T09:36:25Z</time></trkpt><trkpt lat="37.3176130839" lon="-3.4094903246"><ele>1282.06</ele><time>2015-01-24T09:36:43Z</time></trkpt><trkpt lat="37.3177018482" lon="-3.4094166476"><ele>1283.50</ele><time>2015-01-24T09:36:53Z</time></trkpt><trkpt lat="37.3177067935" lon="-3.4094022308"><ele>1283.50</ele><time>2015-01-24T09:36:54Z</time></trkpt><trkpt lat="37.3177102301" lon="-3.4093880653"><ele>1283.50</ele><time>2015-01-24T09:36:55Z</time></trkpt><trkpt lat="37.3177140020" lon="-3.4093736485"><ele>1283.98</ele><time>2015-01-24T09:36:56Z</time></trkpt><trkpt lat="37.3177174386" lon="-3.4093591478"><ele>1283.98</ele><time>2015-01-24T09:36:57Z</time></trkpt><trkpt lat="37.3177336995" lon="-3.4092479199"><ele>1284.94</ele><time>2015-01-24T09:37:05Z</time></trkpt><trkpt lat="37.3177353758" lon="-3.4092319943"><ele>1284.94</ele><time>2015-01-24T09:37:06Z</time></trkpt><trkpt lat="37.3177378066" lon="-3.4092148114"><ele>1284.94</ele><time>2015-01-24T09:37:07Z</time></trkpt><trkpt lat="37.3177387286" lon="-3.4091981314"><ele>1284.94</ele><time>2015-01-24T09:37:08Z</time></trkpt><trkpt lat="37.3177404050" lon="-3.4091832116"><ele>1284.94</ele><time>2015-01-24T09:37:09Z</time></trkpt><trkpt lat="37.3177982401" lon="-3.4090279788"><ele>1287.34</ele><time>2015-01-24T09:37:22Z</time></trkpt><trkpt lat="37.3178072087" lon="-3.4090206027"><ele>1287.34</ele><time>2015-01-24T09:37:23Z</time></trkpt><trkpt lat="37.3179952148" lon="-3.4090318345"><ele>1289.27</ele><time>2015-01-24T09:37:40Z</time></trkpt><trkpt lat="37.3181467596" lon="-3.4091295674"><ele>1289.75</ele><time>2015-01-24T09:37:55Z</time></trkpt><trkpt lat="37.3183383700" lon="-3.4092080221"><ele>1291.19</ele><time>2015-01-24T09:38:12Z</time></trkpt><trkpt lat="37.3184071854" lon="-3.4092126321"><ele>1291.67</ele><time>2015-01-24T09:38:18Z</time></trkpt><trkpt lat="37.3184279725" lon="-3.4092012327"><ele>1292.63</ele><time>2015-01-24T09:38:20Z</time></trkpt><trkpt lat="37.3184350971" lon="-3.4091919288"><ele>1292.63</ele><time>2015-01-24T09:38:21Z</time></trkpt><trkpt lat="37.3184619192" lon="-3.4091675375"><ele>1292.63</ele><time>2015-01-24T09:38:24Z</time></trkpt><trkpt lat="37.3184723966" lon="-3.4091571439"><ele>1292.63</ele><time>2015-01-24T09:38:25Z</time></trkpt><trkpt lat="37.3184829578" lon="-3.4091496840"><ele>1293.59</ele><time>2015-01-24T09:38:26Z</time></trkpt><trkpt lat="37.3185479175" lon="-3.4089562297"><ele>1294.07</ele><time>2015-01-24T09:38:42Z</time></trkpt><trkpt lat="37.3185771704" lon="-3.4087995719"><ele>1295.03</ele><time>2015-01-24T09:38:53Z</time></trkpt><trkpt lat="37.3185793497" lon="-3.4087838139"><ele>1295.99</ele><time>2015-01-24T09:38:54Z</time></trkpt><trkpt lat="37.3185827862" lon="-3.4087682236"><ele>1295.99</ele><time>2015-01-24T09:38:55Z</time></trkpt><trkpt lat="37.3185873963" lon="-3.4087541420"><ele>1295.99</ele><time>2015-01-24T09:38:56Z</time></trkpt><trkpt lat="37.3185911682" lon="-3.4087368753"><ele>1295.99</ele><time>2015-01-24T09:38:57Z</time></trkpt><trkpt lat="37.3186970316" lon="-3.4085168503"><ele>1296.96</ele><time>2015-01-24T09:39:13Z</time></trkpt><trkpt lat="37.3189047351" lon="-3.4083166905"><ele>1296.96</ele><time>2015-01-24T09:39:33Z</time></trkpt><trkpt lat="37.3189152963" lon="-3.4083082248"><ele>1296.96</ele><time>2015-01-24T09:39:34Z</time></trkpt><trkpt lat="37.3189240973" lon="-3.4082970768"><ele>1296.96</ele><time>2015-01-24T09:39:35Z</time></trkpt><trkpt lat="37.3190856166" lon="-3.4080950730"><ele>1298.40</ele><time>2015-01-24T09:39:53Z</time></trkpt><trkpt lat="37.3191624787" lon="-3.4078849386"><ele>1298.88</ele><time>2015-01-24T09:40:08Z</time></trkpt><trkpt lat="37.3191151209" lon="-3.4076631535"><ele>1300.32</ele><time>2015-01-24T09:40:23Z</time></trkpt><trkpt lat="37.3190656677" lon="-3.4073777497"><ele>1301.76</ele><time>2015-01-24T09:40:41Z</time></trkpt><trkpt lat="37.3190451320" lon="-3.4070868976"><ele>1303.20</ele><time>2015-01-24T09:41:00Z</time></trkpt><trkpt lat="37.3190316372" lon="-3.4069661982"><ele>1303.69</ele><time>2015-01-24T09:41:08Z</time></trkpt><trkpt lat="37.3190258536" lon="-3.4069410525"><ele>1304.17</ele><time>2015-01-24T09:41:10Z</time></trkpt><trkpt lat="37.3190250155" lon="-3.4069255460"><ele>1304.17</ele><time>2015-01-24T09:41:11Z</time></trkpt><trkpt lat="37.3190253507" lon="-3.4069092013"><ele>1304.65</ele><time>2015-01-24T09:41:12Z</time></trkpt><trkpt lat="37.3190263566" lon="-3.4068926051"><ele>1304.65</ele><time>2015-01-24T09:41:13Z</time></trkpt><trkpt lat="37.3190282844" lon="-3.4068739973"><ele>1304.65</ele><time>2015-01-24T09:41:14Z</time></trkpt><trkpt lat="37.3190302122" lon="-3.4068567306"><ele>1304.65</ele><time>2015-01-24T09:41:15Z</time></trkpt><trkpt lat="37.3190544359" lon="-3.4065846540"><ele>1306.09</ele><time>2015-01-24T09:41:33Z</time></trkpt><trkpt lat="37.3190934118" lon="-3.4063855000"><ele>1308.49</ele><time>2015-01-24T09:41:48Z</time></trkpt><trkpt lat="37.3190970160" lon="-3.4063736815"><ele>1308.49</ele><time>2015-01-24T09:41:49Z</time></trkpt><trkpt lat="37.3190948367" lon="-3.4063595999"><ele>1308.49</ele><time>2015-01-24T09:41:50Z</time></trkpt><trkpt lat="37.3191292025" lon="-3.4062851686"><ele>1308.97</ele><time>2015-01-24T09:42:02Z</time></trkpt><trkpt lat="37.3191318009" lon="-3.4062667284"><ele>1309.45</ele><time>2015-01-24T09:42:15Z</time></trkpt><trkpt lat="37.3191488162" lon="-3.4062591847"><ele>1308.49</ele><time>2015-01-24T09:42:37Z</time></trkpt><trkpt lat="37.3191381712" lon="-3.4062660579"><ele>1308.49</ele><time>2015-01-24T09:42:52Z</time></trkpt><trkpt lat="37.3191608023" lon="-3.4062132519"><ele>1308.49</ele><time>2015-01-24T09:43:06Z</time></trkpt><trkpt lat="37.3191623110" lon="-3.4062096477"><ele>1308.49</ele><time>2015-01-24T09:43:19Z</time></trkpt><trkpt lat="37.3191580363" lon="-3.4062149283"><ele>1308.49</ele><time>2015-01-24T09:43:32Z</time></trkpt><trkpt lat="37.3191633169" lon="-3.4062316082"><ele>1309.45</ele><time>2015-01-24T09:43:49Z</time></trkpt><trkpt lat="37.3191592097" lon="-3.4062254895"><ele>1309.45</ele><time>2015-01-24T09:44:03Z</time></trkpt><trkpt lat="37.3191623110" lon="-3.4062350448"><ele>1309.45</ele><time>2015-01-24T09:44:22Z</time></trkpt><trkpt lat="37.3191738781" lon="-3.4062504675"><ele>1309.93</ele><time>2015-01-24T09:44:40Z</time></trkpt><trkpt lat="37.3191645741" lon="-3.4062280878"><ele>1309.93</ele><time>2015-01-24T09:44:59Z</time></trkpt><trkpt lat="37.3191864509" lon="-3.4061717615"><ele>1308.49</ele><time>2015-01-24T09:45:21Z</time></trkpt><trkpt lat="37.3192046396" lon="-3.4061610326"><ele>1308.49</ele><time>2015-01-24T09:45:23Z</time></trkpt><trkpt lat="37.3192712758" lon="-3.4061094001"><ele>1308.49</ele><time>2015-01-24T09:45:32Z</time></trkpt><trkpt lat="37.3193944059" lon="-3.4059985075"><ele>1309.45</ele><time>2015-01-24T09:45:46Z</time></trkpt><trkpt lat="37.3195265047" lon="-3.4058515728"><ele>1309.45</ele><time>2015-01-24T09:46:04Z</time></trkpt><trkpt lat="37.3196077254" lon="-3.4057383332"><ele>1309.45</ele><time>2015-01-24T09:46:14Z</time></trkpt><trkpt lat="37.3196102399" lon="-3.4057235811"><ele>1309.45</ele><time>2015-01-24T09:46:15Z</time></trkpt><trkpt lat="37.3196715955" lon="-3.4055738803"><ele>1310.90</ele><time>2015-01-24T09:46:26Z</time></trkpt><trkpt lat="37.3196722660" lon="-3.4055463038"><ele>1310.90</ele><time>2015-01-24T09:46:28Z</time></trkpt><trkpt lat="37.3196990881" lon="-3.4054398537"><ele>1310.90</ele><time>2015-01-24T09:46:36Z</time></trkpt><trkpt lat="37.3196985852" lon="-3.4054240119"><ele>1310.90</ele><time>2015-01-24T09:46:37Z</time></trkpt><trkpt lat="37.3197877686" lon="-3.4052436333"><ele>1311.86</ele><time>2015-01-24T09:46:52Z</time></trkpt><trkpt lat="37.3199321050" lon="-3.4051319025"><ele>1311.86</ele><time>2015-01-24T09:47:07Z</time></trkpt><trkpt lat="37.3199782893" lon="-3.4051120374"><ele>1311.86</ele><time>2015-01-24T09:47:11Z</time></trkpt><trkpt lat="37.3199875932" lon="-3.4051060025"><ele>1311.86</ele><time>2015-01-24T09:47:12Z</time></trkpt><trkpt lat="37.3199978191" lon="-3.4050972853"><ele>1311.86</ele><time>2015-01-24T09:47:13Z</time></trkpt><trkpt lat="37.3200079612" lon="-3.4050891548"><ele>1311.86</ele><time>2015-01-24T09:47:14Z</time></trkpt><trkpt lat="37.3200170975" lon="-3.4050800186"><ele>1311.86</ele><time>2015-01-24T09:47:15Z</time></trkpt><trkpt lat="37.3200565763" lon="-3.4050310683"><ele>1310.90</ele><time>2015-01-24T09:47:19Z</time></trkpt><trkpt lat="37.3200982343" lon="-3.4048085287"><ele>1310.90</ele><time>2015-01-24T09:47:34Z</time></trkpt><trkpt lat="37.3200984020" lon="-3.4047387913"><ele>1310.90</ele><time>2015-01-24T09:47:39Z</time></trkpt><trkpt lat="37.3200994078" lon="-3.4047234524"><ele>1310.90</ele><time>2015-01-24T09:47:40Z</time></trkpt><trkpt lat="37.3201573268" lon="-3.4045366198"><ele>1311.86</ele><time>2015-01-24T09:47:54Z</time></trkpt><trkpt lat="37.3202222865" lon="-3.4044199437"><ele>1311.86</ele><time>2015-01-24T09:48:04Z</time></trkpt><trkpt lat="37.3202310875" lon="-3.4044121485"><ele>1311.86</ele><time>2015-01-24T09:48:05Z</time></trkpt><trkpt lat="37.3202371225" lon="-3.4044025932"><ele>1311.86</ele><time>2015-01-24T09:48:06Z</time></trkpt><trkpt lat="37.3202534672" lon="-3.4043671377"><ele>1311.86</ele><time>2015-01-24T09:48:09Z</time></trkpt><trkpt lat="37.3202599213" lon="-3.4043545648"><ele>1311.86</ele><time>2015-01-24T09:48:10Z</time></trkpt><trkpt lat="37.3203133140" lon="-3.4042612743"><ele>1312.82</ele><time>2015-01-24T09:48:18Z</time></trkpt><trkpt lat="37.3204254638" lon="-3.4041000064"><ele>1313.78</ele><time>2015-01-24T09:48:32Z</time></trkpt><trkpt lat="37.3204539623" lon="-3.4040513914"><ele>1314.74</ele><time>2015-01-24T09:48:36Z</time></trkpt><trkpt lat="37.3204625957" lon="-3.4039726853"><ele>1315.22</ele><time>2015-01-24T09:48:45Z</time></trkpt><trkpt lat="37.3204481788" lon="-3.4038384072"><ele>1317.62</ele><time>2015-01-24T09:48:58Z</time></trkpt><trkpt lat="37.3204474244" lon="-3.4037976712"><ele>1317.62</ele><time>2015-01-24T09:49:01Z</time></trkpt><trkpt lat="37.3204784375" lon="-3.4037028719"><ele>1319.07</ele><time>2015-01-24T09:49:09Z</time></trkpt><trkpt lat="37.3205918446" lon="-3.4036576096"><ele>1319.55</ele><time>2015-01-24T09:49:20Z</time></trkpt><trkpt lat="37.3206019029" lon="-3.4036553465"><ele>1320.03</ele><time>2015-01-24T09:49:21Z</time></trkpt><trkpt lat="37.3206118774" lon="-3.4036524128"><ele>1320.03</ele><time>2015-01-24T09:49:22Z</time></trkpt><trkpt lat="37.3206228577" lon="-3.4036472999"><ele>1320.03</ele><time>2015-01-24T09:49:23Z</time></trkpt><trkpt lat="37.3206327483" lon="-3.4036411811"><ele>1320.51</ele><time>2015-01-24T09:49:24Z</time></trkpt><trkpt lat="37.3207179923" lon="-3.4035063162"><ele>1321.95</ele><time>2015-01-24T09:49:37Z</time></trkpt><trkpt lat="37.3207174055" lon="-3.4034907259"><ele>1321.95</ele><time>2015-01-24T09:49:38Z</time></trkpt><trkpt lat="37.3207187466" lon="-3.4034756385"><ele>1321.95</ele><time>2015-01-24T09:49:39Z</time></trkpt><trkpt lat="37.3207180761" lon="-3.4034587070"><ele>1321.95</ele><time>2015-01-24T09:49:40Z</time></trkpt><trkpt lat="37.3207174893" lon="-3.4034428652"><ele>1321.95</ele><time>2015-01-24T09:49:41Z</time></trkpt><trkpt lat="37.3207165673" lon="-3.4034277778"><ele>1321.95</ele><time>2015-01-24T09:49:42Z</time></trkpt><trkpt lat="37.3207350913" lon="-3.4032948408"><ele>1322.43</ele><time>2015-01-24T09:49:51Z</time></trkpt><trkpt lat="37.3207367677" lon="-3.4032822680"><ele>1322.91</ele><time>2015-01-24T09:49:52Z</time></trkpt><trkpt lat="37.3208017275" lon="-3.4030818567"><ele>1323.87</ele><time>2015-01-24T09:50:08Z</time></trkpt><trkpt lat="37.3208488338" lon="-3.4028274659"><ele>1324.83</ele><time>2015-01-24T09:50:26Z</time></trkpt><trkpt lat="37.3208618257" lon="-3.4027984645"><ele>1324.83</ele><time>2015-01-24T09:50:29Z</time></trkpt><trkpt lat="37.3208692018" lon="-3.4027868975"><ele>1324.83</ele><time>2015-01-24T09:50:30Z</time></trkpt><trkpt lat="37.3208773322" lon="-3.4027748276"><ele>1324.83</ele><time>2015-01-24T09:50:31Z</time></trkpt><trkpt lat="37.3209421244" lon="-3.4025430679"><ele>1325.31</ele><time>2015-01-24T09:50:48Z</time></trkpt><trkpt lat="37.3209242709" lon="-3.4024495259"><ele>1325.31</ele><time>2015-01-24T09:50:55Z</time></trkpt><trkpt lat="37.3209681921" lon="-3.4022650402"><ele>1326.76</ele><time>2015-01-24T09:51:11Z</time></trkpt><trkpt lat="37.3210436292" lon="-3.4021010064"><ele>1328.68</ele><time>2015-01-24T09:51:26Z</time></trkpt><trkpt lat="37.3211000394" lon="-3.4019575920"><ele>1330.12</ele><time>2015-01-24T09:51:41Z</time></trkpt><trkpt lat="37.3211212456" lon="-3.4017841704"><ele>1332.04</ele><time>2015-01-24T09:51:58Z</time></trkpt><trkpt lat="37.3211188987" lon="-3.4017700888"><ele>1332.04</ele><time>2015-01-24T09:51:59Z</time></trkpt><trkpt lat="37.3211132828" lon="-3.4017564263"><ele>1332.04</ele><time>2015-01-24T09:52:00Z</time></trkpt><trkpt lat="37.3210536875" lon="-3.4015759639"><ele>1333.97</ele><time>2015-01-24T09:52:16Z</time></trkpt><trkpt lat="37.3210511729" lon="-3.4015628882"><ele>1333.97</ele><time>2015-01-24T09:52:17Z</time></trkpt><trkpt lat="37.3210484907" lon="-3.4013877902"><ele>1334.45</ele><time>2015-01-24T09:52:31Z</time></trkpt><trkpt lat="37.3210971057" lon="-3.4011968505"><ele>1335.41</ele><time>2015-01-24T09:52:46Z</time></trkpt><trkpt lat="37.3211646639" lon="-3.4010222554"><ele>1336.37</ele><time>2015-01-24T09:53:01Z</time></trkpt><trkpt lat="37.3212651629" lon="-3.4008500073"><ele>1337.81</ele><time>2015-01-24T09:53:19Z</time></trkpt><trkpt lat="37.3213208187" lon="-3.4006850515"><ele>1340.22</ele><time>2015-01-24T09:53:34Z</time></trkpt><trkpt lat="37.3213090003" lon="-3.4005291481"><ele>1341.18</ele><time>2015-01-24T09:53:50Z</time></trkpt><trkpt lat="37.3212912306" lon="-3.4004879929"><ele>1341.66</ele><time>2015-01-24T09:53:55Z</time></trkpt><trkpt lat="37.3212714493" lon="-3.4004644398"><ele>1341.66</ele><time>2015-01-24T09:53:58Z</time></trkpt><trkpt lat="37.3211636581" lon="-3.4003820457"><ele>1342.62</ele><time>2015-01-24T09:54:12Z</time></trkpt><trkpt lat="37.3210417852" lon="-3.4003237076"><ele>1343.58</ele><time>2015-01-24T09:54:25Z</time></trkpt><trkpt lat="37.3209406156" lon="-3.4002680518"><ele>1344.06</ele><time>2015-01-24T09:54:39Z</time></trkpt><trkpt lat="37.3208526056" lon="-3.4001091309"><ele>1344.06</ele><time>2015-01-24T09:54:55Z</time></trkpt><trkpt lat="37.3208380211" lon="-3.4000257310"><ele>1344.06</ele><time>2015-01-24T09:55:06Z</time></trkpt><trkpt lat="37.3208105285" lon="-3.3999814745"><ele>1344.06</ele><time>2015-01-24T09:55:13Z</time></trkpt><trkpt lat="37.3207682837" lon="-3.3999271598"><ele>1345.02</ele><time>2015-01-24T09:55:25Z</time></trkpt><trkpt lat="37.3206842132" lon="-3.3998181950"><ele>1346.94</ele><time>2015-01-24T09:55:37Z</time></trkpt><trkpt lat="37.3206008133" lon="-3.3997264970"><ele>1347.91</ele><time>2015-01-24T09:55:52Z</time></trkpt><trkpt lat="37.3206059262" lon="-3.3996833302"><ele>1347.91</ele><time>2015-01-24T09:56:08Z</time></trkpt><trkpt lat="37.3206043337" lon="-3.3997068834"><ele>1347.91</ele><time>2015-01-24T09:56:21Z</time></trkpt><trkpt lat="37.3205933534" lon="-3.3996804804"><ele>1347.91</ele><time>2015-01-24T09:56:32Z</time></trkpt><trkpt lat="37.3205886595" lon="-3.3996752836"><ele>1347.91</ele><time>2015-01-24T09:56:47Z</time></trkpt><trkpt lat="37.3205794394" lon="-3.3996561728"><ele>1347.91</ele><time>2015-01-24T09:56:59Z</time></trkpt><trkpt lat="37.3205846362" lon="-3.3996508084"><ele>1347.91</ele><time>2015-01-24T09:57:16Z</time></trkpt><trkpt lat="37.3205799423" lon="-3.3996520657"><ele>1349.83</ele><time>2015-01-24T09:57:25Z</time></trkpt><trkpt lat="37.3205705546" lon="-3.3996110782"><ele>1349.83</ele><time>2015-01-24T09:57:42Z</time></trkpt><trkpt lat="37.3205643520" lon="-3.3995962422"><ele>1349.83</ele><time>2015-01-24T09:57:44Z</time></trkpt><trkpt lat="37.3205628432" lon="-3.3995984215"><ele>1349.83</ele><time>2015-01-24T09:57:53Z</time></trkpt><trkpt lat="37.3205620889" lon="-3.3995987568"><ele>1349.83</ele><time>2015-01-24T09:58:02Z</time></trkpt><trkpt lat="37.3205493484" lon="-3.3995728567"><ele>1349.83</ele><time>2015-01-24T09:58:13Z</time></trkpt><trkpt lat="37.3205352668" lon="-3.3995423466"><ele>1350.31</ele><time>2015-01-24T09:58:17Z</time></trkpt><trkpt lat="37.3205304891" lon="-3.3995271754"><ele>1350.31</ele><time>2015-01-24T09:58:18Z</time></trkpt><trkpt lat="37.3204913456" lon="-3.3994257543"><ele>1351.75</ele><time>2015-01-24T09:58:29Z</time></trkpt><trkpt lat="37.3204690497" lon="-3.3993847668"><ele>1351.75</ele><time>2015-01-24T09:58:40Z</time></trkpt><trkpt lat="37.3204351030" lon="-3.3992861118"><ele>1352.71</ele><time>2015-01-24T09:58:52Z</time></trkpt><trkpt lat="37.3204226140" lon="-3.3992348984"><ele>1353.19</ele><time>2015-01-24T09:58:57Z</time></trkpt><trkpt lat="37.3204222787" lon="-3.3991000336"><ele>1355.12</ele><time>2015-01-24T09:59:10Z</time></trkpt><trkpt lat="37.3204589076" lon="-3.3989842795"><ele>1356.08</ele><time>2015-01-24T09:59:23Z</time></trkpt><trkpt lat="37.3204926867" lon="-3.3989196550"><ele>1356.56</ele><time>2015-01-24T09:59:36Z</time></trkpt><trkpt lat="37.3205118813" lon="-3.3989105187"><ele>1356.56</ele><time>2015-01-24T09:59:38Z</time></trkpt><trkpt lat="37.3205231968" lon="-3.3989052381"><ele>1356.56</ele><time>2015-01-24T09:59:39Z</time></trkpt><trkpt lat="37.3205983825" lon="-3.3988516778"><ele>1357.04</ele><time>2015-01-24T09:59:49Z</time></trkpt><trkpt lat="37.3206012323" lon="-3.3988443855"><ele>1358.00</ele><time>2015-01-24T09:59:58Z</time></trkpt><trkpt lat="37.3206132185" lon="-3.3988279570"><ele>1358.00</ele><time>2015-01-24T10:00:17Z</time></trkpt><trkpt lat="37.3206135537" lon="-3.3988421224"><ele>1358.00</ele><time>2015-01-24T10:00:18Z</time></trkpt><trkpt lat="37.3205926828" lon="-3.3988509234"><ele>1358.00</ele><time>2015-01-24T10:00:29Z</time></trkpt><trkpt lat="37.3206105363" lon="-3.3988339081"><ele>1358.00</ele><time>2015-01-24T10:00:43Z</time></trkpt><trkpt lat="37.3206282221" lon="-3.3988282923"><ele>1358.00</ele><time>2015-01-24T10:01:00Z</time></trkpt><trkpt lat="37.3206288926" lon="-3.3988317288"><ele>1358.00</ele><time>2015-01-24T10:01:20Z</time></trkpt><trkpt lat="37.3206102848" lon="-3.3988279570"><ele>1358.00</ele><time>2015-01-24T10:01:36Z</time></trkpt><trkpt lat="37.3206137214" lon="-3.3988342434"><ele>1358.00</ele><time>2015-01-24T10:01:53Z</time></trkpt><trkpt lat="37.3206030764" lon="-3.3988473192"><ele>1358.00</ele><time>2015-01-24T10:02:09Z</time></trkpt><trkpt lat="37.3206006456" lon="-3.3988416195"><ele>1358.00</ele><time>2015-01-24T10:02:32Z</time></trkpt><trkpt lat="37.3206427228" lon="-3.3988097683"><ele>1358.00</ele><time>2015-01-24T10:02:42Z</time></trkpt><trkpt lat="37.3207257874" lon="-3.3987465687"><ele>1358.48</ele><time>2015-01-24T10:02:53Z</time></trkpt><trkpt lat="37.3208335787" lon="-3.3986037411"><ele>1358.96</ele><time>2015-01-24T10:03:10Z</time></trkpt><trkpt lat="37.3208778352" lon="-3.3985588141"><ele>1358.96</ele><time>2015-01-24T10:03:18Z</time></trkpt><trkpt lat="37.3209001310" lon="-3.3985382784"><ele>1358.96</ele><time>2015-01-24T10:03:20Z</time></trkpt><trkpt lat="37.3209069204" lon="-3.3985243645"><ele>1358.96</ele><time>2015-01-24T10:03:21Z</time></trkpt><trkpt lat="37.3209125362" lon="-3.3985126298"><ele>1358.96</ele><time>2015-01-24T10:03:22Z</time></trkpt><trkpt lat="37.3209978640" lon="-3.3983985521"><ele>1359.44</ele><time>2015-01-24T10:03:33Z</time></trkpt><trkpt lat="37.3210210819" lon="-3.3983833808"><ele>1359.92</ele><time>2015-01-24T10:03:43Z</time></trkpt><trkpt lat="37.3209808487" lon="-3.3983881585"><ele>1359.92</ele><time>2015-01-24T10:03:46Z</time></trkpt><trkpt lat="37.3209196609" lon="-3.3984773420"><ele>1359.92</ele><time>2015-01-24T10:03:57Z</time></trkpt><trkpt lat="37.3209178168" lon="-3.3984463289"><ele>1359.92</ele><time>2015-01-24T10:04:19Z</time></trkpt><trkpt lat="37.3209540267" lon="-3.3984231111"><ele>1360.40</ele><time>2015-01-24T10:04:33Z</time></trkpt><trkpt lat="37.3210559506" lon="-3.3982580714"><ele>1361.36</ele><time>2015-01-24T10:04:49Z</time></trkpt><trkpt lat="37.3210775759" lon="-3.3982010745"><ele>1361.36</ele><time>2015-01-24T10:04:54Z</time></trkpt><trkpt lat="37.3211520072" lon="-3.3980827220"><ele>1362.33</ele><time>2015-01-24T10:05:07Z</time></trkpt><trkpt lat="37.3212356586" lon="-3.3979458455"><ele>1363.29</ele><time>2015-01-24T10:05:20Z</time></trkpt><trkpt lat="37.3213070724" lon="-3.3978366293"><ele>1363.29</ele><time>2015-01-24T10:05:30Z</time></trkpt><trkpt lat="37.3213275243" lon="-3.3975964040"><ele>1363.77</ele><time>2015-01-24T10:05:47Z</time></trkpt><trkpt lat="37.3213185556" lon="-3.3975198772"><ele>1364.73</ele><time>2015-01-24T10:05:52Z</time></trkpt><trkpt lat="37.3213145323" lon="-3.3974569291"><ele>1365.21</ele><time>2015-01-24T10:05:57Z</time></trkpt><trkpt lat="37.3213021271" lon="-3.3973079827"><ele>1366.17</ele><time>2015-01-24T10:06:10Z</time></trkpt><trkpt lat="37.3213123530" lon="-3.3971830085"><ele>1367.61</ele><time>2015-01-24T10:06:23Z</time></trkpt><trkpt lat="37.3213320505" lon="-3.3970447071"><ele>1369.05</ele><time>2015-01-24T10:06:36Z</time></trkpt><trkpt lat="37.3213354032" lon="-3.3970341459"><ele>1369.05</ele><time>2015-01-24T10:06:37Z</time></trkpt><trkpt lat="37.3213473894" lon="-3.3968747221"><ele>1370.50</ele><time>2015-01-24T10:06:52Z</time></trkpt><trkpt lat="37.3213561904" lon="-3.3967023063"><ele>1372.42</ele><time>2015-01-24T10:07:07Z</time></trkpt><trkpt lat="37.3213962559" lon="-3.3965442237"><ele>1372.90</ele><time>2015-01-24T10:07:21Z</time></trkpt><trkpt lat="37.3214015365" lon="-3.3965288009"><ele>1373.38</ele><time>2015-01-24T10:07:23Z</time></trkpt><trkpt lat="37.3214197252" lon="-3.3964551240"><ele>1373.38</ele><time>2015-01-24T10:07:31Z</time></trkpt><trkpt lat="37.3214275204" lon="-3.3963971213"><ele>1373.38</ele><time>2015-01-24T10:07:36Z</time></trkpt><trkpt lat="37.3214385845" lon="-3.3963677846"><ele>1373.86</ele><time>2015-01-24T10:07:39Z</time></trkpt><trkpt lat="37.3214438651" lon="-3.3963482548"><ele>1373.86</ele><time>2015-01-24T10:07:41Z</time></trkpt><trkpt lat="37.3214787338" lon="-3.3962455764"><ele>1373.86</ele><time>2015-01-24T10:07:51Z</time></trkpt><trkpt lat="37.3214991856" lon="-3.3961902559"><ele>1373.86</ele><time>2015-01-24T10:07:56Z</time></trkpt><trkpt lat="37.3215227388" lon="-3.3961243741"><ele>1374.34</ele><time>2015-01-24T10:08:02Z</time></trkpt><trkpt lat="37.3215364013" lon="-3.3960522059"><ele>1374.34</ele><time>2015-01-24T10:08:07Z</time></trkpt><trkpt lat="37.3215628043" lon="-3.3959074505"><ele>1374.82</ele><time>2015-01-24T10:08:19Z</time></trkpt><trkpt lat="37.3215783108" lon="-3.3958392218"><ele>1375.30</ele><time>2015-01-24T10:08:26Z</time></trkpt><trkpt lat="37.3215933982" lon="-3.3957101405"><ele>1376.26</ele><time>2015-01-24T10:08:37Z</time></trkpt><trkpt lat="37.3216015287" lon="-3.3956906945"><ele>1376.26</ele><time>2015-01-24T10:08:40Z</time></trkpt><trkpt lat="37.3216061387" lon="-3.3956548199"><ele>1376.75</ele><time>2015-01-24T10:08:43Z</time></trkpt><trkpt lat="37.3216012772" lon="-3.3956300095"><ele>1377.23</ele><time>2015-01-24T10:08:45Z</time></trkpt><trkpt lat="37.3215927277" lon="-3.3955673967"><ele>1377.23</ele><time>2015-01-24T10:08:50Z</time></trkpt><trkpt lat="37.3215963319" lon="-3.3955342881"><ele>1377.71</ele><time>2015-01-24T10:08:53Z</time></trkpt><trkpt lat="37.3215808254" lon="-3.3954203781"><ele>1378.67</ele><time>2015-01-24T10:09:05Z</time></trkpt><trkpt lat="37.3216127604" lon="-3.3953026123"><ele>1380.11</ele><time>2015-01-24T10:09:17Z</time></trkpt><trkpt lat="37.3216369003" lon="-3.3951631375"><ele>1381.07</ele><time>2015-01-24T10:09:30Z</time></trkpt><trkpt lat="37.3216906283" lon="-3.3950251713"><ele>1382.03</ele><time>2015-01-24T10:09:44Z</time></trkpt><trkpt lat="37.3217385728" lon="-3.3949436154"><ele>1382.03</ele><time>2015-01-24T10:09:53Z</time></trkpt><trkpt lat="37.3217857629" lon="-3.3947959263"><ele>1382.03</ele><time>2015-01-24T10:10:05Z</time></trkpt><trkpt lat="37.3217999283" lon="-3.3947745524"><ele>1382.03</ele><time>2015-01-24T10:10:07Z</time></trkpt><trkpt lat="37.3218113277" lon="-3.3947387617"><ele>1382.03</ele><time>2015-01-24T10:10:10Z</time></trkpt><trkpt lat="37.3218164407" lon="-3.3947132807"><ele>1382.03</ele><time>2015-01-24T10:10:12Z</time></trkpt><trkpt lat="37.3218498845" lon="-3.3946400229"><ele>1382.03</ele><time>2015-01-24T10:10:18Z</time></trkpt><trkpt lat="37.3219053727" lon="-3.3944990393"><ele>1382.51</ele><time>2015-01-24T10:10:30Z</time></trkpt><trkpt lat="37.3219361342" lon="-3.3943930920"><ele>1382.51</ele><time>2015-01-24T10:10:40Z</time></trkpt><trkpt lat="37.3220290896" lon="-3.3942349255"><ele>1382.99</ele><time>2015-01-24T10:10:55Z</time></trkpt><trkpt lat="37.3220883496" lon="-3.3940869849"><ele>1383.47</ele><time>2015-01-24T10:11:07Z</time></trkpt><trkpt lat="37.3220949713" lon="-3.3940486796"><ele>1383.47</ele><time>2015-01-24T10:11:10Z</time></trkpt><trkpt lat="37.3221500404" lon="-3.3939259686"><ele>1384.92</ele><time>2015-01-24T10:11:23Z</time></trkpt><trkpt lat="37.3221724201" lon="-3.3938811254"><ele>1384.92</ele><time>2015-01-24T10:11:28Z</time></trkpt><trkpt lat="37.3222172633" lon="-3.3938230388"><ele>1385.40</ele><time>2015-01-24T10:11:36Z</time></trkpt><trkpt lat="37.3222486116" lon="-3.3937871642"><ele>1385.88</ele><time>2015-01-24T10:11:41Z</time></trkpt><trkpt lat="37.3223408964" lon="-3.3936128207"><ele>1387.32</ele><time>2015-01-24T10:11:56Z</time></trkpt><trkpt lat="37.3224440776" lon="-3.3934780397"><ele>1388.28</ele><time>2015-01-24T10:12:10Z</time></trkpt><trkpt lat="37.3225261364" lon="-3.3934252337"><ele>1388.76</ele><time>2015-01-24T10:12:21Z</time></trkpt><trkpt lat="37.3226296529" lon="-3.3933594357"><ele>1389.72</ele><time>2015-01-24T10:12:34Z</time></trkpt><trkpt lat="37.3226879910" lon="-3.3933022711"><ele>1390.20</ele><time>2015-01-24T10:12:48Z</time></trkpt><trkpt lat="37.3226874042" lon="-3.3933020197"><ele>1390.20</ele><time>2015-01-24T10:13:01Z</time></trkpt><trkpt lat="37.3227115441" lon="-3.3932726830"><ele>1390.68</ele><time>2015-01-24T10:13:15Z</time></trkpt><trkpt lat="37.3227241170" lon="-3.3932487946"><ele>1390.68</ele><time>2015-01-24T10:13:40Z</time></trkpt><trkpt lat="37.3227287270" lon="-3.3931703400"><ele>1390.68</ele><time>2015-01-24T10:13:52Z</time></trkpt><trkpt lat="37.3227247037" lon="-3.3932048734"><ele>1390.68</ele><time>2015-01-24T10:14:07Z</time></trkpt><trkpt lat="37.3227466643" lon="-3.3932393230"><ele>1390.68</ele><time>2015-01-24T10:14:21Z</time></trkpt><trkpt lat="37.3227517772" lon="-3.3932240680"><ele>1390.68</ele><time>2015-01-24T10:14:32Z</time></trkpt><trkpt lat="37.3227454070" lon="-3.3932356350"><ele>1390.68</ele><time>2015-01-24T10:14:42Z</time></trkpt><trkpt lat="37.3227411322" lon="-3.3932238165"><ele>1390.68</ele><time>2015-01-24T10:14:57Z</time></trkpt><trkpt lat="37.3227744084" lon="-3.3931705076"><ele>1390.68</ele><time>2015-01-24T10:15:17Z</time></trkpt><trkpt lat="37.3227979615" lon="-3.3931697533"><ele>1390.68</ele><time>2015-01-24T10:15:30Z</time></trkpt><trkpt lat="37.3227682896" lon="-3.3932109084"><ele>1390.68</ele><time>2015-01-24T10:15:52Z</time></trkpt><trkpt lat="37.3227713071" lon="-3.3931721002"><ele>1389.24</ele><time>2015-01-24T10:16:06Z</time></trkpt><trkpt lat="37.3227914236" lon="-3.3931546658"><ele>1389.24</ele><time>2015-01-24T10:16:25Z</time></trkpt><trkpt lat="37.3228072654" lon="-3.3930653147"><ele>1389.24</ele><time>2015-01-24T10:16:37Z</time></trkpt><trkpt lat="37.3227865621" lon="-3.3931149356"><ele>1389.24</ele><time>2015-01-24T10:16:48Z</time></trkpt><trkpt lat="37.3228095286" lon="-3.3930788934"><ele>1389.24</ele><time>2015-01-24T10:17:05Z</time></trkpt><trkpt lat="37.3227905855" lon="-3.3931179531"><ele>1389.24</ele><time>2015-01-24T10:17:17Z</time></trkpt><trkpt lat="37.3227925971" lon="-3.3931440208"><ele>1389.24</ele><time>2015-01-24T10:17:32Z</time></trkpt><trkpt lat="37.3227878194" lon="-3.3931506425"><ele>1389.24</ele><time>2015-01-24T10:17:46Z</time></trkpt><trkpt lat="37.3227975424" lon="-3.3931373153"><ele>1389.24</ele><time>2015-01-24T10:18:06Z</time></trkpt><trkpt lat="37.3227962852" lon="-3.3931591921"><ele>1389.24</ele><time>2015-01-24T10:18:20Z</time></trkpt><trkpt lat="37.3227906693" lon="-3.3931555878"><ele>1389.24</ele><time>2015-01-24T10:18:45Z</time></trkpt><trkpt lat="37.3227877356" lon="-3.3931700047"><ele>1389.24</ele><time>2015-01-24T10:19:11Z</time></trkpt><trkpt lat="37.3227674514" lon="-3.3931845054"><ele>1389.24</ele><time>2015-01-24T10:19:26Z</time></trkpt><trkpt lat="37.3227767553" lon="-3.3932355512"><ele>1389.24</ele><time>2015-01-24T10:19:38Z</time></trkpt><trkpt lat="37.3228195030" lon="-3.3932144288"><ele>1390.20</ele><time>2015-01-24T10:19:45Z</time></trkpt><trkpt lat="37.3229018133" lon="-3.3931415901"><ele>1391.17</ele><time>2015-01-24T10:19:58Z</time></trkpt><trkpt lat="37.3229167331" lon="-3.3931311127"><ele>1391.17</ele><time>2015-01-24T10:20:00Z</time></trkpt><trkpt lat="37.3229847103" lon="-3.3930786420"><ele>1391.65</ele><time>2015-01-24T10:20:13Z</time></trkpt><trkpt lat="37.3229998816" lon="-3.3930455334"><ele>1392.13</ele><time>2015-01-24T10:20:25Z</time></trkpt><trkpt lat="37.3230685294" lon="-3.3930068929"><ele>1392.61</ele><time>2015-01-24T10:20:42Z</time></trkpt><trkpt lat="37.3231205810" lon="-3.3929851837"><ele>1393.57</ele><time>2015-01-24T10:20:57Z</time></trkpt><trkpt lat="37.3232056573" lon="-3.3929277677"><ele>1394.53</ele><time>2015-01-24T10:21:09Z</time></trkpt><trkpt lat="37.3232393526" lon="-3.3929119259"><ele>1395.01</ele><time>2015-01-24T10:21:14Z</time></trkpt><trkpt lat="37.3233297095" lon="-3.3928587846"><ele>1395.97</ele><time>2015-01-24T10:21:26Z</time></trkpt><trkpt lat="37.3233440425" lon="-3.3928537555"><ele>1395.97</ele><time>2015-01-24T10:21:28Z</time></trkpt><trkpt lat="37.3234333936" lon="-3.3928117622"><ele>1396.93</ele><time>2015-01-24T10:21:40Z</time></trkpt><trkpt lat="37.3235041369" lon="-3.3927949145"><ele>1397.89</ele><time>2015-01-24T10:21:47Z</time></trkpt><trkpt lat="37.3235640675" lon="-3.3927650750"><ele>1398.37</ele><time>2015-01-24T10:21:58Z</time></trkpt><trkpt lat="37.3236069828" lon="-3.3927493170"><ele>1398.86</ele><time>2015-01-24T10:22:10Z</time></trkpt><trkpt lat="37.3236841802" lon="-3.3927407674"><ele>1399.34</ele><time>2015-01-24T10:22:24Z</time></trkpt><trkpt lat="37.3237918038" lon="-3.3927048929"><ele>1400.78</ele><time>2015-01-24T10:22:38Z</time></trkpt><trkpt lat="37.3238368146" lon="-3.3926951699"><ele>1400.78</ele><time>2015-01-24T10:22:50Z</time></trkpt><trkpt lat="37.3238549195" lon="-3.3926869556"><ele>1400.78</ele><time>2015-01-24T10:22:52Z</time></trkpt><trkpt lat="37.3239126708" lon="-3.3926487342"><ele>1401.74</ele><time>2015-01-24T10:23:03Z</time></trkpt><trkpt lat="37.3239503894" lon="-3.3926407713"><ele>1402.22</ele><time>2015-01-24T10:23:18Z</time></trkpt><trkpt lat="37.3240009323" lon="-3.3926118538"><ele>1403.18</ele><time>2015-01-24T10:23:35Z</time></trkpt><trkpt lat="37.3240304366" lon="-3.3926114347"><ele>1403.66</ele><time>2015-01-24T10:24:00Z</time></trkpt><trkpt lat="37.3240971565" lon="-3.3925794996"><ele>1404.14</ele><time>2015-01-24T10:24:13Z</time></trkpt><trkpt lat="37.3241323605" lon="-3.3925666753"><ele>1404.62</ele><time>2015-01-24T10:24:31Z</time></trkpt><trkpt lat="37.3242207896" lon="-3.3925739676"><ele>1405.58</ele><time>2015-01-24T10:24:45Z</time></trkpt><trkpt lat="37.3242318537" lon="-3.3926222473"><ele>1406.55</ele><time>2015-01-24T10:24:56Z</time></trkpt><trkpt lat="37.3242481146" lon="-3.3926505782"><ele>1406.55</ele><time>2015-01-24T10:25:10Z</time></trkpt><trkpt lat="37.3242554907" lon="-3.3926821779"><ele>1407.03</ele><time>2015-01-24T10:25:27Z</time></trkpt><trkpt lat="37.3242790438" lon="-3.3926855307"><ele>1407.03</ele><time>2015-01-24T10:25:40Z</time></trkpt><trkpt lat="37.3242867552" lon="-3.3926799148"><ele>1407.03</ele><time>2015-01-24T10:25:55Z</time></trkpt><trkpt lat="37.3242822289" lon="-3.3926908113"><ele>1407.03</ele><time>2015-01-24T10:26:08Z</time></trkpt><trkpt lat="37.3242711648" lon="-3.3927126043"><ele>1407.03</ele><time>2015-01-24T10:26:24Z</time></trkpt><trkpt lat="37.3242743500" lon="-3.3927226625"><ele>1407.03</ele><time>2015-01-24T10:26:25Z</time></trkpt><trkpt lat="37.3242992442" lon="-3.3927623089"><ele>1407.51</ele><time>2015-01-24T10:26:29Z</time></trkpt><trkpt lat="37.3242450971" lon="-3.3927968424"><ele>1409.43</ele><time>2015-01-24T10:26:42Z</time></trkpt><trkpt lat="37.3242436722" lon="-3.3927889634"><ele>1408.95</ele><time>2015-01-24T10:26:56Z</time></trkpt><trkpt lat="37.3242716677" lon="-3.3928088285"><ele>1408.95</ele><time>2015-01-24T10:27:18Z</time></trkpt><trkpt lat="37.3243052792" lon="-3.3927815035"><ele>1407.51</ele><time>2015-01-24T10:27:27Z</time></trkpt><trkpt lat="37.3243027646" lon="-3.3927348163"><ele>1407.51</ele><time>2015-01-24T10:27:32Z</time></trkpt><trkpt lat="37.3243013397" lon="-3.3927242551"><ele>1406.55</ele><time>2015-01-24T10:27:44Z</time></trkpt><trkpt lat="37.3242982384" lon="-3.3927409351"><ele>1406.55</ele><time>2015-01-24T10:27:48Z</time></trkpt><trkpt lat="37.3243180197" lon="-3.3927851077"><ele>1406.55</ele><time>2015-01-24T10:27:52Z</time></trkpt><trkpt lat="37.3243321851" lon="-3.3928040508"><ele>1406.55</ele><time>2015-01-24T10:27:54Z</time></trkpt><trkpt lat="37.3243393935" lon="-3.3928265981"><ele>1407.99</ele><time>2015-01-24T10:27:56Z</time></trkpt><trkpt lat="37.3243787047" lon="-3.3928795718"><ele>1408.47</ele><time>2015-01-24T10:28:10Z</time></trkpt><trkpt lat="37.3244556505" lon="-3.3929296955"><ele>1408.95</ele><time>2015-01-24T10:28:23Z</time></trkpt><trkpt lat="37.3245053552" lon="-3.3929555956"><ele>1409.43</ele><time>2015-01-24T10:28:29Z</time></trkpt><trkpt lat="37.3245310038" lon="-3.3929610439"><ele>1409.91</ele><time>2015-01-24T10:28:32Z</time></trkpt><trkpt lat="37.3245698959" lon="-3.3929742035"><ele>1409.91</ele><time>2015-01-24T10:28:37Z</time></trkpt><trkpt lat="37.3246724065" lon="-3.3930135146"><ele>1410.87</ele><time>2015-01-24T10:28:50Z</time></trkpt><trkpt lat="37.3247860651" lon="-3.3930503950"><ele>1411.83</ele><time>2015-01-24T10:29:06Z</time></trkpt><trkpt lat="37.3248748295" lon="-3.3930713497"><ele>1412.31</ele><time>2015-01-24T10:29:17Z</time></trkpt><trkpt lat="37.3249975406" lon="-3.3930980880"><ele>1413.76</ele><time>2015-01-24T10:29:31Z</time></trkpt><trkpt lat="37.3250733130" lon="-3.3930968307"><ele>1414.24</ele><time>2015-01-24T10:29:44Z</time></trkpt><trkpt lat="37.3250946868" lon="-3.3930897061"><ele>1414.24</ele><time>2015-01-24T10:29:49Z</time></trkpt><trkpt lat="37.3251973651" lon="-3.3930446114"><ele>1415.20</ele><time>2015-01-24T10:30:04Z</time></trkpt><trkpt lat="37.3251958564" lon="-3.3930265065"><ele>1415.20</ele><time>2015-01-24T10:30:17Z</time></trkpt><trkpt lat="37.3252006341" lon="-3.3930229861"><ele>1415.20</ele><time>2015-01-24T10:30:30Z</time></trkpt><trkpt lat="37.3253682721" lon="-3.3929532487"><ele>1416.16</ele><time>2015-01-24T10:30:47Z</time></trkpt><trkpt lat="37.3254251853" lon="-3.3929179609"><ele>1417.12</ele><time>2015-01-24T10:30:56Z</time></trkpt><trkpt lat="37.3255385086" lon="-3.3928762190"><ele>1418.08</ele><time>2015-01-24T10:31:10Z</time></trkpt><trkpt lat="37.3257575277" lon="-3.3928269334"><ele>1419.52</ele><time>2015-01-24T10:31:23Z</time></trkpt><trkpt lat="37.3258841783" lon="-3.3928121813"><ele>1420.97</ele><time>2015-01-24T10:31:33Z</time></trkpt><trkpt lat="37.3259850126" lon="-3.3928129356"><ele>1421.93</ele><time>2015-01-24T10:31:46Z</time></trkpt><trkpt lat="37.3260808177" lon="-3.3928454574"><ele>1422.89</ele><time>2015-01-24T10:31:58Z</time></trkpt><trkpt lat="37.3261945602" lon="-3.3928897977"><ele>1424.33</ele><time>2015-01-24T10:32:11Z</time></trkpt><trkpt lat="37.3263284191" lon="-3.3929459564"><ele>1425.29</ele><time>2015-01-24T10:32:27Z</time></trkpt><trkpt lat="37.3263793811" lon="-3.3929657377"><ele>1425.77</ele><time>2015-01-24T10:32:33Z</time></trkpt><trkpt lat="37.3264751025" lon="-3.3930140175"><ele>1426.25</ele><time>2015-01-24T10:32:46Z</time></trkpt><trkpt lat="37.3266091291" lon="-3.3930656500"><ele>1427.70</ele><time>2015-01-24T10:33:02Z</time></trkpt><trkpt lat="37.3267512862" lon="-3.3930843417"><ele>1428.66</ele><time>2015-01-24T10:33:21Z</time></trkpt><trkpt lat="37.3268689681" lon="-3.3930214774"><ele>1429.62</ele><time>2015-01-24T10:33:38Z</time></trkpt><trkpt lat="37.3269178346" lon="-3.3929302823"><ele>1430.10</ele><time>2015-01-24T10:33:54Z</time></trkpt><trkpt lat="37.3269311618" lon="-3.3929068968"><ele>1430.10</ele><time>2015-01-24T10:34:16Z</time></trkpt><trkpt lat="37.3269842193" lon="-3.3928550966"><ele>1431.06</ele><time>2015-01-24T10:34:29Z</time></trkpt><trkpt lat="37.3270120472" lon="-3.3928337228"><ele>1431.06</ele><time>2015-01-24T10:34:40Z</time></trkpt><trkpt lat="37.3270110413" lon="-3.3927950822"><ele>1432.98</ele><time>2015-01-24T10:34:54Z</time></trkpt><trkpt lat="37.3270167410" lon="-3.3928083256"><ele>1433.46</ele><time>2015-01-24T10:35:07Z</time></trkpt><trkpt lat="37.3270249553" lon="-3.3928147797"><ele>1433.46</ele><time>2015-01-24T10:35:25Z</time></trkpt><trkpt lat="37.3270075209" lon="-3.3928309567"><ele>1433.46</ele><time>2015-01-24T10:35:44Z</time></trkpt><trkpt lat="37.3269987199" lon="-3.3928405959"><ele>1433.46</ele><time>2015-01-24T10:36:05Z</time></trkpt><trkpt lat="37.3269979656" lon="-3.3928403445"><ele>1433.46</ele><time>2015-01-24T10:36:30Z</time></trkpt><trkpt lat="37.3270029947" lon="-3.3927960042"><ele>1432.02</ele><time>2015-01-24T10:36:59Z</time></trkpt><trkpt lat="37.3270213511" lon="-3.3928796556"><ele>1432.02</ele><time>2015-01-24T10:37:11Z</time></trkpt><trkpt lat="37.3270280566" lon="-3.3928924799"><ele>1432.02</ele><time>2015-01-24T10:37:12Z</time></trkpt><trkpt lat="37.3270344269" lon="-3.3929075673"><ele>1432.02</ele><time>2015-01-24T10:37:13Z</time></trkpt><trkpt lat="37.3270402104" lon="-3.3929246664"><ele>1432.02</ele><time>2015-01-24T10:37:14Z</time></trkpt><trkpt lat="37.3270454071" lon="-3.3929421008"><ele>1432.02</ele><time>2015-01-24T10:37:15Z</time></trkpt><trkpt lat="37.3270395398" lon="-3.3933891915"><ele>1432.02</ele><time>2015-01-24T10:37:30Z</time></trkpt><trkpt lat="37.3270152323" lon="-3.3934709150"><ele>1432.02</ele><time>2015-01-24T10:37:38Z</time></trkpt></trkseg><trkseg><trkpt lat="37.3269932717" lon="-3.3928428590"><ele>1432.02</ele><time>2015-01-24T10:40:14Z</time></trkpt><trkpt lat="37.3269668687" lon="-3.3928167075"><ele>1432.02</ele><time>2015-01-24T10:40:33Z</time></trkpt></trkseg><trkseg><trkpt lat="37.3271561321" lon="-3.3929244988"><ele>1432.02</ele><time>2015-01-24T10:41:24Z</time></trkpt><trkpt lat="37.3270369414" lon="-3.3928535040"><ele>1432.02</ele><time>2015-01-24T10:41:48Z</time></trkpt><trkpt lat="37.3270192556" lon="-3.3928243350"><ele>1432.02</ele><time>2015-01-24T10:42:08Z</time></trkpt><trkpt lat="37.3270059284" lon="-3.3928316273"><ele>1433.46</ele><time>2015-01-24T10:42:21Z</time></trkpt><trkpt lat="37.3270052578" lon="-3.3927975129"><ele>1433.46</ele><time>2015-01-24T10:42:34Z</time></trkpt><trkpt lat="37.3270066828" lon="-3.3928136062"><ele>1433.46</ele><time>2015-01-24T10:42:53Z</time></trkpt><trkpt lat="37.3269926012" lon="-3.3928055596"><ele>1433.46</ele><time>2015-01-24T10:43:12Z</time></trkpt><trkpt lat="37.3269921821" lon="-3.3928037994"><ele>1433.46</ele><time>2015-01-24T10:43:38Z</time></trkpt><trkpt lat="37.3269753344" lon="-3.3927926514"><ele>1433.46</ele><time>2015-01-24T10:44:06Z</time></trkpt><trkpt lat="37.3269792739" lon="-3.3927995246"><ele>1433.46</ele><time>2015-01-24T10:44:28Z</time></trkpt><trkpt lat="37.3269884102" lon="-3.3928147797"><ele>1433.94</ele><time>2015-01-24T10:44:49Z</time></trkpt><trkpt lat="37.3269855604" lon="-3.3928178810"><ele>1433.94</ele><time>2015-01-24T10:45:04Z</time></trkpt><trkpt lat="37.3269941937" lon="-3.3928080741"><ele>1433.94</ele><time>2015-01-24T10:45:18Z</time></trkpt><trkpt lat="37.3269929364" lon="-3.3928068168"><ele>1433.94</ele><time>2015-01-24T10:45:32Z</time></trkpt><trkpt lat="37.3269983847" lon="-3.3927992731"><ele>1433.94</ele><time>2015-01-24T10:45:44Z</time></trkpt><trkpt lat="37.3269842193" lon="-3.3928303700"><ele>1432.50</ele><time>2015-01-24T10:45:50Z</time></trkpt><trkpt lat="37.3269574810" lon="-3.3928476367"><ele>1431.54</ele><time>2015-01-24T10:46:12Z</time></trkpt><trkpt lat="37.3269586544" lon="-3.3928488102"><ele>1432.02</ele><time>2015-01-24T10:46:29Z</time></trkpt><trkpt lat="37.3269573972" lon="-3.3928481396"><ele>1431.54</ele><time>2015-01-24T10:46:45Z</time></trkpt><trkpt lat="37.3269541282" lon="-3.3928786498"><ele>1431.54</ele><time>2015-01-24T10:47:04Z</time></trkpt><trkpt lat="37.3269503564" lon="-3.3928787336"><ele>1431.54</ele><time>2015-01-24T10:47:05Z</time></trkpt><trkpt lat="37.3269310780" lon="-3.3928936534"><ele>1430.58</ele><time>2015-01-24T10:47:18Z</time></trkpt><trkpt lat="37.3269340955" lon="-3.3928809967"><ele>1430.58</ele><time>2015-01-24T10:47:39Z</time></trkpt><trkpt lat="37.3269278929" lon="-3.3928711899"><ele>1430.10</ele><time>2015-01-24T10:47:58Z</time></trkpt><trkpt lat="37.3269158229" lon="-3.3928814158"><ele>1430.10</ele><time>2015-01-24T10:48:12Z</time></trkpt><trkpt lat="37.3269194271" lon="-3.3928886242"><ele>1430.10</ele><time>2015-01-24T10:48:35Z</time></trkpt><trkpt lat="37.3269356880" lon="-3.3928942401"><ele>1430.10</ele><time>2015-01-24T10:48:55Z</time></trkpt><trkpt lat="37.3269276414" lon="-3.3928942401"><ele>1430.10</ele><time>2015-01-24T10:49:17Z</time></trkpt><trkpt lat="37.3269165773" lon="-3.3928339742"><ele>1430.10</ele><time>2015-01-24T10:49:29Z</time></trkpt><trkpt lat="37.3269086983" lon="-3.3928213175"><ele>1431.54</ele><time>2015-01-24T10:49:31Z</time></trkpt><trkpt lat="37.3269095365" lon="-3.3928025421"><ele>1431.54</ele><time>2015-01-24T10:49:45Z</time></trkpt><trkpt lat="37.3269022442" lon="-3.3928072359"><ele>1431.54</ele><time>2015-01-24T10:49:59Z</time></trkpt><trkpt lat="37.3269154876" lon="-3.3927820902"><ele>1431.54</ele><time>2015-01-24T10:50:19Z</time></trkpt><trkpt lat="37.3269149847" lon="-3.3927953336"><ele>1431.54</ele><time>2015-01-24T10:50:46Z</time></trkpt><trkpt lat="37.3269119672" lon="-3.3927953336"><ele>1431.54</ele><time>2015-01-24T10:51:08Z</time></trkpt><trkpt lat="37.3269055970" lon="-3.3927597106"><ele>1431.54</ele><time>2015-01-24T10:51:27Z</time></trkpt><trkpt lat="37.3268931918" lon="-3.3927014563"><ele>1431.54</ele><time>2015-01-24T10:51:43Z</time></trkpt><trkpt lat="37.3268879950" lon="-3.3926511649"><ele>1432.02</ele><time>2015-01-24T10:51:56Z</time></trkpt><trkpt lat="37.3269089498" lon="-3.3926270250"><ele>1432.02</ele><time>2015-01-24T10:52:23Z</time></trkpt><trkpt lat="37.3269051779" lon="-3.3926199842"><ele>1432.50</ele><time>2015-01-24T10:52:49Z</time></trkpt><trkpt lat="37.3268853966" lon="-3.3926526736"><ele>1432.50</ele><time>2015-01-24T10:53:11Z</time></trkpt><trkpt lat="37.3268907610" lon="-3.3926335629"><ele>1432.50</ele><time>2015-01-24T10:53:32Z</time></trkpt><trkpt lat="37.3268947843" lon="-3.3926214930"><ele>1432.50</ele><time>2015-01-24T10:53:44Z</time></trkpt><trkpt lat="37.3269291501" lon="-3.3926991932"><ele>1432.50</ele><time>2015-01-24T10:53:57Z</time></trkpt><trkpt lat="37.3269399628" lon="-3.3927934058"><ele>1432.50</ele><time>2015-01-24T10:54:11Z</time></trkpt><trkpt lat="37.3269385379" lon="-3.3928139415"><ele>1432.50</ele><time>2015-01-24T10:54:13Z</time></trkpt><trkpt lat="37.3269164097" lon="-3.3928815834"><ele>1432.50</ele><time>2015-01-24T10:54:26Z</time></trkpt><trkpt lat="37.3269255459" lon="-3.3928716928"><ele>1432.50</ele><time>2015-01-24T10:54:42Z</time></trkpt><trkpt lat="37.3269281443" lon="-3.3928861935"><ele>1432.50</ele><time>2015-01-24T10:54:52Z</time></trkpt><trkpt lat="37.3269460816" lon="-3.3928723633"><ele>1432.50</ele><time>2015-01-24T10:55:02Z</time></trkpt><trkpt lat="37.3269962892" lon="-3.3928654063"><ele>1432.50</ele><time>2015-01-24T10:55:17Z</time></trkpt><trkpt lat="37.3270193394" lon="-3.3928458765"><ele>1433.94</ele><time>2015-01-24T10:55:28Z</time></trkpt><trkpt lat="37.3270239495" lon="-3.3928161208"><ele>1434.42</ele><time>2015-01-24T10:55:42Z</time></trkpt><trkpt lat="37.3270159028" lon="-3.3927948307"><ele>1434.42</ele><time>2015-01-24T10:56:16Z</time></trkpt><trkpt lat="37.3270008154" lon="-3.3927474730"><ele>1434.42</ele><time>2015-01-24T10:56:53Z</time></trkpt><trkpt lat="37.3270110413" lon="-3.3927935734"><ele>1434.42</ele><time>2015-01-24T10:57:24Z</time></trkpt><trkpt lat="37.3269804474" lon="-3.3928086609"><ele>1434.91</ele><time>2015-01-24T10:58:05Z</time></trkpt><trkpt lat="37.3270068504" lon="-3.3927969262"><ele>1434.91</ele><time>2015-01-24T10:58:33Z</time></trkpt><trkpt lat="37.3270258773" lon="-3.3928501513"><ele>1434.91</ele><time>2015-01-24T10:59:15Z</time></trkpt><trkpt lat="37.3270381149" lon="-3.3928094991"><ele>1434.91</ele><time>2015-01-24T10:59:48Z</time></trkpt><trkpt lat="37.3270190880" lon="-3.3928736206"><ele>1434.91</ele><time>2015-01-24T11:00:25Z</time></trkpt><trkpt lat="37.3269790225" lon="-3.3927938249"><ele>1434.91</ele><time>2015-01-24T11:00:40Z</time></trkpt><trkpt lat="37.3269670364" lon="-3.3927664161"><ele>1434.91</ele><time>2015-01-24T11:00:42Z</time></trkpt><trkpt lat="37.3269437347" lon="-3.3926803339"><ele>1434.91</ele><time>2015-01-24T11:00:53Z</time></trkpt><trkpt lat="37.3269425612" lon="-3.3926732931"><ele>1433.94</ele><time>2015-01-24T11:00:58Z</time></trkpt><trkpt lat="37.3269436508" lon="-3.3926815912"><ele>1433.94</ele><time>2015-01-24T11:00:59Z</time></trkpt><trkpt lat="37.3269843869" lon="-3.3927973453"><ele>1433.94</ele><time>2015-01-24T11:01:11Z</time></trkpt><trkpt lat="37.3269506078" lon="-3.3929027896"><ele>1432.98</ele><time>2015-01-24T11:01:22Z</time></trkpt><trkpt lat="37.3269141465" lon="-3.3929038793"><ele>1432.50</ele><time>2015-01-24T11:01:41Z</time></trkpt><trkpt lat="37.3269132245" lon="-3.3929152787"><ele>1432.50</ele><time>2015-01-24T11:02:03Z</time></trkpt><trkpt lat="37.3269202653" lon="-3.3928141091"><ele>1432.50</ele><time>2015-01-24T11:02:15Z</time></trkpt><trkpt lat="37.3268979695" lon="-3.3926992770"><ele>1432.50</ele><time>2015-01-24T11:02:28Z</time></trkpt><trkpt lat="37.3269066028" lon="-3.3925029729"><ele>1433.94</ele><time>2015-01-24T11:02:48Z</time></trkpt><trkpt lat="37.3268829659" lon="-3.3923220076"><ele>1435.39</ele><time>2015-01-24T11:03:09Z</time></trkpt><trkpt lat="37.3268798646" lon="-3.3922624961"><ele>1435.87</ele><time>2015-01-24T11:03:16Z</time></trkpt><trkpt lat="37.3268701416" lon="-3.3921044972"><ele>1436.83</ele><time>2015-01-24T11:03:31Z</time></trkpt><trkpt lat="37.3268633522" lon="-3.3920388669"><ele>1437.79</ele><time>2015-01-24T11:03:43Z</time></trkpt><trkpt lat="37.3268537968" lon="-3.3919067681"><ele>1438.27</ele><time>2015-01-24T11:03:57Z</time></trkpt><trkpt lat="37.3268629331" lon="-3.3917646110"><ele>1439.71</ele><time>2015-01-24T11:04:12Z</time></trkpt><trkpt lat="37.3268923536" lon="-3.3916283213"><ele>1440.67</ele><time>2015-01-24T11:04:27Z</time></trkpt><trkpt lat="37.3269397113" lon="-3.3914390579"><ele>1441.63</ele><time>2015-01-24T11:04:46Z</time></trkpt><trkpt lat="37.3269578163" lon="-3.3913007565"><ele>1442.60</ele><time>2015-01-24T11:05:01Z</time></trkpt><trkpt lat="37.3269669525" lon="-3.3911688253"><ele>1443.56</ele><time>2015-01-24T11:05:15Z</time></trkpt><trkpt lat="37.3269543797" lon="-3.3910167776"><ele>1444.04</ele><time>2015-01-24T11:05:32Z</time></trkpt><trkpt lat="37.3269485962" lon="-3.3908900432"><ele>1445.00</ele><time>2015-01-24T11:05:46Z</time></trkpt><trkpt lat="37.3269444052" lon="-3.3907365706"><ele>1445.00</ele><time>2015-01-24T11:06:01Z</time></trkpt><trkpt lat="37.3269496020" lon="-3.3906264324"><ele>1446.44</ele><time>2015-01-24T11:06:17Z</time></trkpt><trkpt lat="37.3269432317" lon="-3.3906209003"><ele>1446.44</ele><time>2015-01-24T11:06:33Z</time></trkpt><trkpt lat="37.3269546311" lon="-3.3905024640"><ele>1446.44</ele><time>2015-01-24T11:06:51Z</time></trkpt><trkpt lat="37.3269698024" lon="-3.3903684374"><ele>1446.92</ele><time>2015-01-24T11:07:04Z</time></trkpt><trkpt lat="37.3269822914" lon="-3.3902343269"><ele>1447.88</ele><time>2015-01-24T11:07:14Z</time></trkpt><trkpt lat="37.3270242848" lon="-3.3900976181"><ele>1448.36</ele><time>2015-01-24T11:07:29Z</time></trkpt><trkpt lat="37.3270815331" lon="-3.3899625856"><ele>1449.32</ele><time>2015-01-24T11:07:43Z</time></trkpt><trkpt lat="37.3271395359" lon="-3.3898355160"><ele>1450.29</ele><time>2015-01-24T11:08:00Z</time></trkpt><trkpt lat="37.3271266278" lon="-3.3898099512"><ele>1450.29</ele><time>2015-01-24T11:08:13Z</time></trkpt><trkpt lat="37.3271552101" lon="-3.3897410519"><ele>1451.25</ele><time>2015-01-24T11:08:26Z</time></trkpt><trkpt lat="37.3271599878" lon="-3.3897186723"><ele>1450.29</ele><time>2015-01-24T11:08:42Z</time></trkpt><trkpt lat="37.3272269592" lon="-3.3896652795"><ele>1450.29</ele><time>2015-01-24T11:08:52Z</time></trkpt><trkpt lat="37.3272902425" lon="-3.3896394633"><ele>1451.25</ele><time>2015-01-24T11:09:00Z</time></trkpt><trkpt lat="37.3273057491" lon="-3.3896224480"><ele>1451.25</ele><time>2015-01-24T11:09:02Z</time></trkpt><trkpt lat="37.3274205811" lon="-3.3895445801"><ele>1452.21</ele><time>2015-01-24T11:09:17Z</time></trkpt><trkpt lat="37.3274375126" lon="-3.3895357791"><ele>1452.69</ele><time>2015-01-24T11:09:19Z</time></trkpt><trkpt lat="37.3275448848" lon="-3.3894718252"><ele>1454.13</ele><time>2015-01-24T11:09:33Z</time></trkpt><trkpt lat="37.3276105989" lon="-3.3894434106"><ele>1454.13</ele><time>2015-01-24T11:09:39Z</time></trkpt><trkpt lat="37.3277260177" lon="-3.3893665485"><ele>1455.57</ele><time>2015-01-24T11:09:54Z</time></trkpt><trkpt lat="37.3278097529" lon="-3.3893160895"><ele>1456.05</ele><time>2015-01-24T11:10:05Z</time></trkpt><trkpt lat="37.3278401792" lon="-3.3892905246"><ele>1456.53</ele><time>2015-01-24T11:10:09Z</time></trkpt><trkpt lat="37.3278892133" lon="-3.3892693184"><ele>1457.02</ele><time>2015-01-24T11:10:16Z</time></trkpt><trkpt lat="37.3279458750" lon="-3.3892518841"><ele>1457.50</ele><time>2015-01-24T11:10:23Z</time></trkpt><trkpt lat="37.3280529119" lon="-3.3892325219"><ele>1458.46</ele><time>2015-01-24T11:10:37Z</time></trkpt><trkpt lat="37.3281040415" lon="-3.3892354555"><ele>1459.42</ele><time>2015-01-24T11:10:44Z</time></trkpt><trkpt lat="37.3281506449" lon="-3.3892626967"><ele>1459.42</ele><time>2015-01-24T11:10:50Z</time></trkpt><trkpt lat="37.3281916324" lon="-3.3892800473"><ele>1459.90</ele><time>2015-01-24T11:10:55Z</time></trkpt><trkpt lat="37.3282386549" lon="-3.3893154189"><ele>1459.90</ele><time>2015-01-24T11:11:02Z</time></trkpt><trkpt lat="37.3282989208" lon="-3.3893549815"><ele>1460.86</ele><time>2015-01-24T11:11:12Z</time></trkpt><trkpt lat="37.3283407465" lon="-3.3894198574"><ele>1461.34</ele><time>2015-01-24T11:11:22Z</time></trkpt><trkpt lat="37.3283710051" lon="-3.3894709870"><ele>1461.82</ele><time>2015-01-24T11:11:33Z</time></trkpt><trkpt lat="37.3283849191" lon="-3.3894870803"><ele>1461.82</ele><time>2015-01-24T11:11:35Z</time></trkpt><trkpt lat="37.3284180276" lon="-3.3895057719"><ele>1462.30</ele><time>2015-01-24T11:11:42Z</time></trkpt><trkpt lat="37.3284497112" lon="-3.3895803709"><ele>1462.78</ele><time>2015-01-24T11:11:54Z</time></trkpt><trkpt lat="37.3284859210" lon="-3.3896680456"><ele>1463.26</ele><time>2015-01-24T11:12:06Z</time></trkpt><trkpt lat="37.3285196163" lon="-3.3897271380"><ele>1463.74</ele><time>2015-01-24T11:12:14Z</time></trkpt><trkpt lat="37.3285403196" lon="-3.3897557203"><ele>1463.74</ele><time>2015-01-24T11:12:16Z</time></trkpt><trkpt lat="37.3285528086" lon="-3.3897730708"><ele>1464.23</ele><time>2015-01-24T11:12:17Z</time></trkpt><trkpt lat="37.3285777867" lon="-3.3898182493"><ele>1464.23</ele><time>2015-01-24T11:12:26Z</time></trkpt><trkpt lat="37.3286027648" lon="-3.3898849692"><ele>1465.19</ele><time>2015-01-24T11:12:36Z</time></trkpt><trkpt lat="37.3286325205" lon="-3.3899428882"><ele>1465.67</ele><time>2015-01-24T11:12:48Z</time></trkpt><trkpt lat="37.3286612704" lon="-3.3900055010"><ele>1465.67</ele><time>2015-01-24T11:13:00Z</time></trkpt><trkpt lat="37.3286663834" lon="-3.3900121227"><ele>1465.67</ele><time>2015-01-24T11:13:01Z</time></trkpt><trkpt lat="37.3286668863" lon="-3.3900573011"><ele>1466.15</ele><time>2015-01-24T11:13:16Z</time></trkpt><trkpt lat="37.3286675569" lon="-3.3900668565"><ele>1466.15</ele><time>2015-01-24T11:13:24Z</time></trkpt><trkpt lat="37.3286929540" lon="-3.3900398668"><ele>1466.15</ele><time>2015-01-24T11:13:43Z</time></trkpt><trkpt lat="37.3287017550" lon="-3.3900537807"><ele>1466.15</ele><time>2015-01-24T11:13:50Z</time></trkpt><trkpt lat="37.3287418205" lon="-3.3900690358"><ele>1466.63</ele><time>2015-01-24T11:13:55Z</time></trkpt><trkpt lat="37.3287980631" lon="-3.3901195787"><ele>1466.63</ele><time>2015-01-24T11:14:05Z</time></trkpt><trkpt lat="37.3288457561" lon="-3.3901463170"><ele>1467.11</ele><time>2015-01-24T11:14:12Z</time></trkpt><trkpt lat="37.3288988136" lon="-3.3902023081"><ele>1467.59</ele><time>2015-01-24T11:14:23Z</time></trkpt><trkpt lat="37.3289439920" lon="-3.3902150486"><ele>1468.07</ele><time>2015-01-24T11:14:31Z</time></trkpt><trkpt lat="37.3289915174" lon="-3.3902122825"><ele>1468.07</ele><time>2015-01-24T11:14:40Z</time></trkpt><trkpt lat="37.3290642723" lon="-3.3901785873"><ele>1468.55</ele><time>2015-01-24T11:14:52Z</time></trkpt><trkpt lat="37.3290774319" lon="-3.3901401982"><ele>1469.03</ele><time>2015-01-24T11:14:57Z</time></trkpt><trkpt lat="37.3291192576" lon="-3.3900738973"><ele>1469.03</ele><time>2015-01-24T11:15:07Z</time></trkpt><trkpt lat="37.3291601613" lon="-3.3899940178"><ele>1469.51</ele><time>2015-01-24T11:15:18Z</time></trkpt><trkpt lat="37.3291795235" lon="-3.3899862226"><ele>1469.51</ele><time>2015-01-24T11:15:20Z</time></trkpt><trkpt lat="37.3292204272" lon="-3.3899991307"><ele>1470.47</ele><time>2015-01-24T11:15:28Z</time></trkpt><trkpt lat="37.3292575590" lon="-3.3900301438"><ele>1472.40</ele><time>2015-01-24T11:15:37Z</time></trkpt><trkpt lat="37.3292742390" lon="-3.3900367655"><ele>1472.88</ele><time>2015-01-24T11:15:46Z</time></trkpt><trkpt lat="37.3292755801" lon="-3.3900271263"><ele>1472.88</ele><time>2015-01-24T11:16:05Z</time></trkpt><trkpt lat="37.3292614985" lon="-3.3900920022"><ele>1473.84</ele><time>2015-01-24T11:16:18Z</time></trkpt><trkpt lat="37.3292231932" lon="-3.3901339956"><ele>1473.84</ele><time>2015-01-24T11:16:33Z</time></trkpt><trkpt lat="37.3292221036" lon="-3.3901530225"><ele>1473.84</ele><time>2015-01-24T11:16:37Z</time></trkpt><trkpt lat="37.3292178288" lon="-3.3901935909"><ele>1474.32</ele><time>2015-01-24T11:16:56Z</time></trkpt><trkpt lat="37.3292050045" lon="-3.3902609814"><ele>1474.80</ele><time>2015-01-24T11:17:19Z</time></trkpt><trkpt lat="37.3292039149" lon="-3.3903303836"><ele>1475.28</ele><time>2015-01-24T11:17:33Z</time></trkpt><trkpt lat="37.3292083573" lon="-3.3904324751"><ele>1475.76</ele><time>2015-01-24T11:17:48Z</time></trkpt><trkpt lat="37.3292002268" lon="-3.3904291224"><ele>1476.24</ele><time>2015-01-24T11:18:04Z</time></trkpt><trkpt lat="37.3291984666" lon="-3.3904938307"><ele>1476.72</ele><time>2015-01-24T11:18:15Z</time></trkpt><trkpt lat="37.3291889951" lon="-3.3905491512"><ele>1477.20</ele><time>2015-01-24T11:18:26Z</time></trkpt><trkpt lat="37.3291892465" lon="-3.3906483930"><ele>1477.68</ele><time>2015-01-24T11:18:35Z</time></trkpt><trkpt lat="37.3292144760" lon="-3.3907586150"><ele>1478.16</ele><time>2015-01-24T11:18:46Z</time></trkpt><trkpt lat="37.3292340059" lon="-3.3908532467"><ele>1479.13</ele><time>2015-01-24T11:18:59Z</time></trkpt><trkpt lat="37.3292475846" lon="-3.3909379039"><ele>1480.09</ele><time>2015-01-24T11:19:10Z</time></trkpt><trkpt lat="37.3292899132" lon="-3.3910350502"><ele>1480.09</ele><time>2015-01-24T11:19:24Z</time></trkpt><trkpt lat="37.3292961996" lon="-3.3910415880"><ele>1480.09</ele><time>2015-01-24T11:19:25Z</time></trkpt><trkpt lat="37.3293254524" lon="-3.3911294304"><ele>1481.53</ele><time>2015-01-24T11:19:37Z</time></trkpt><trkpt lat="37.3293354269" lon="-3.3911838289"><ele>1481.53</ele><time>2015-01-24T11:19:44Z</time></trkpt><trkpt lat="37.3293612432" lon="-3.3912632894"><ele>1482.01</ele><time>2015-01-24T11:19:54Z</time></trkpt><trkpt lat="37.3293951061" lon="-3.3913351223"><ele>1482.49</ele><time>2015-01-24T11:20:06Z</time></trkpt><trkpt lat="37.3294037394" lon="-3.3913980704"><ele>1482.97</ele><time>2015-01-24T11:20:19Z</time></trkpt><trkpt lat="37.3294282146" lon="-3.3915026765"><ele>1483.93</ele><time>2015-01-24T11:20:32Z</time></trkpt><trkpt lat="37.3294621613" lon="-3.3915869985"><ele>1483.93</ele><time>2015-01-24T11:20:43Z</time></trkpt><trkpt lat="37.3294967785" lon="-3.3916626871"><ele>1484.89</ele><time>2015-01-24T11:20:54Z</time></trkpt><trkpt lat="37.3295176495" lon="-3.3917256352"><ele>1485.37</ele><time>2015-01-24T11:21:04Z</time></trkpt><trkpt lat="37.3295194935" lon="-3.3917570673"><ele>1485.85</ele><time>2015-01-24T11:21:08Z</time></trkpt><trkpt lat="37.3295512609" lon="-3.3918608353"><ele>1486.34</ele><time>2015-01-24T11:21:19Z</time></trkpt><trkpt lat="37.3295728862" lon="-3.3919790201"><ele>1486.82</ele><time>2015-01-24T11:21:33Z</time></trkpt><trkpt lat="37.3295689467" lon="-3.3919914253"><ele>1486.82</ele><time>2015-01-24T11:21:34Z</time></trkpt><trkpt lat="37.3295688629" lon="-3.3920037467"><ele>1486.82</ele><time>2015-01-24T11:21:35Z</time></trkpt><trkpt lat="37.3295593914" lon="-3.3921160642"><ele>1487.78</ele><time>2015-01-24T11:21:49Z</time></trkpt><trkpt lat="37.3295483273" lon="-3.3921819460"><ele>1487.78</ele><time>2015-01-24T11:22:04Z</time></trkpt><trkpt lat="37.3295495007" lon="-3.3922659326"><ele>1488.74</ele><time>2015-01-24T11:22:16Z</time></trkpt><trkpt lat="37.3295420408" lon="-3.3923795074"><ele>1489.22</ele><time>2015-01-24T11:22:33Z</time></trkpt><trkpt lat="37.3295375984" lon="-3.3924813475"><ele>1489.70</ele><time>2015-01-24T11:22:45Z</time></trkpt><trkpt lat="37.3295470700" lon="-3.3925869595"><ele>1490.18</ele><time>2015-01-24T11:22:57Z</time></trkpt><trkpt lat="37.3295544460" lon="-3.3926515002"><ele>1491.14</ele><time>2015-01-24T11:23:10Z</time></trkpt><trkpt lat="37.3295550328" lon="-3.3926546015"><ele>1491.14</ele><time>2015-01-24T11:23:20Z</time></trkpt><trkpt lat="37.3295614030" lon="-3.3926809207"><ele>1491.14</ele><time>2015-01-24T11:23:36Z</time></trkpt><trkpt lat="37.3295665998" lon="-3.3927664999"><ele>1491.62</ele><time>2015-01-24T11:23:52Z</time></trkpt><trkpt lat="37.3295893986" lon="-3.3928909712"><ele>1492.10</ele><time>2015-01-24T11:24:07Z</time></trkpt><trkpt lat="37.3296186514" lon="-3.3930290211"><ele>1493.06</ele><time>2015-01-24T11:24:24Z</time></trkpt><trkpt lat="37.3296350800" lon="-3.3931503911"><ele>1494.03</ele><time>2015-01-24T11:24:40Z</time></trkpt><trkpt lat="37.3296503350" lon="-3.3932241518"><ele>1494.51</ele><time>2015-01-24T11:24:51Z</time></trkpt><trkpt lat="37.3296491615" lon="-3.3933031932"><ele>1494.99</ele><time>2015-01-24T11:25:02Z</time></trkpt><trkpt lat="37.3296361696" lon="-3.3933990821"><ele>1495.47</ele><time>2015-01-24T11:25:13Z</time></trkpt><trkpt lat="37.3296318110" lon="-3.3934435900"><ele>1495.95</ele><time>2015-01-24T11:25:17Z</time></trkpt><trkpt lat="37.3296262790" lon="-3.3935124893"><ele>1496.43</ele><time>2015-01-24T11:25:26Z</time></trkpt><trkpt lat="37.3296174780" lon="-3.3935250621"><ele>1496.43</ele><time>2015-01-24T11:25:37Z</time></trkpt><trkpt lat="37.3296074197" lon="-3.3935512975"><ele>1496.43</ele><time>2015-01-24T11:25:48Z</time></trkpt><trkpt lat="37.3296068329" lon="-3.3935993258"><ele>1496.91</ele><time>2015-01-24T11:25:52Z</time></trkpt><trkpt lat="37.3295997083" lon="-3.3937747590"><ele>1498.35</ele><time>2015-01-24T11:26:08Z</time></trkpt><trkpt lat="37.3296033964" lon="-3.3937885053"><ele>1498.35</ele><time>2015-01-24T11:26:09Z</time></trkpt><trkpt lat="37.3296034802" lon="-3.3938870765"><ele>1498.83</ele><time>2015-01-24T11:26:19Z</time></trkpt><trkpt lat="37.3296184000" lon="-3.3939370327"><ele>1499.79</ele><time>2015-01-24T11:26:33Z</time></trkpt><trkpt lat="37.3296169750" lon="-3.3939776011"><ele>1499.79</ele><time>2015-01-24T11:26:49Z</time></trkpt><trkpt lat="37.3295919970" lon="-3.3939809538"><ele>1499.79</ele><time>2015-01-24T11:27:00Z</time></trkpt><trkpt lat="37.3295669351" lon="-3.3939667046"><ele>1499.79</ele><time>2015-01-24T11:27:17Z</time></trkpt><trkpt lat="37.3295610677" lon="-3.3939766791"><ele>1499.79</ele><time>2015-01-24T11:27:19Z</time></trkpt><trkpt lat="37.3295700364" lon="-3.3939931076"><ele>1500.27</ele><time>2015-01-24T11:27:30Z</time></trkpt><trkpt lat="37.3295883927" lon="-3.3940055128"><ele>1500.27</ele><time>2015-01-24T11:27:49Z</time></trkpt><trkpt lat="37.3295540269" lon="-3.3939687163"><ele>1500.76</ele><time>2015-01-24T11:28:12Z</time></trkpt><trkpt lat="37.3295654263" lon="-3.3939237054"><ele>1500.76</ele><time>2015-01-24T11:28:31Z</time></trkpt><trkpt lat="37.3295711260" lon="-3.3939505275"><ele>1500.76</ele><time>2015-01-24T11:28:56Z</time></trkpt><trkpt lat="37.3295782506" lon="-3.3940027468"><ele>1501.24</ele><time>2015-01-24T11:29:16Z</time></trkpt><trkpt lat="37.3295853753" lon="-3.3939776849"><ele>1499.79</ele><time>2015-01-24T11:29:26Z</time></trkpt><trkpt lat="37.3295840342" lon="-3.3940028306"><ele>1500.27</ele><time>2015-01-24T11:29:48Z</time></trkpt><trkpt lat="37.3295883927" lon="-3.3940318320"><ele>1501.24</ele><time>2015-01-24T11:29:53Z</time></trkpt><trkpt lat="37.3296023905" lon="-3.3941442333"><ele>1502.20</ele><time>2015-01-24T11:30:06Z</time></trkpt><trkpt lat="37.3296033125" lon="-3.3942765836"><ele>1502.68</ele><time>2015-01-24T11:30:21Z</time></trkpt><trkpt lat="37.3296028096" lon="-3.3943522722"><ele>1503.16</ele><time>2015-01-24T11:30:32Z</time></trkpt><trkpt lat="37.3295963556" lon="-3.3944454789"><ele>1503.64</ele><time>2015-01-24T11:30:42Z</time></trkpt><trkpt lat="37.3295854591" lon="-3.3945453912"><ele>1504.12</ele><time>2015-01-24T11:30:55Z</time></trkpt><trkpt lat="37.3295577150" lon="-3.3946240973"><ele>1504.60</ele><time>2015-01-24T11:31:06Z</time></trkpt><trkpt lat="37.3295479920" lon="-3.3947100118"><ele>1505.08</ele><time>2015-01-24T11:31:17Z</time></trkpt><trkpt lat="37.3295379337" lon="-3.3947592136"><ele>1505.56</ele><time>2015-01-24T11:31:23Z</time></trkpt><trkpt lat="37.3295023106" lon="-3.3948685136"><ele>1506.04</ele><time>2015-01-24T11:31:36Z</time></trkpt><trkpt lat="37.3294686154" lon="-3.3948782366"><ele>1506.52</ele><time>2015-01-24T11:31:47Z</time></trkpt><trkpt lat="37.3294400331" lon="-3.3949639834"><ele>1507.00</ele><time>2015-01-24T11:31:59Z</time></trkpt><trkpt lat="37.3294122890" lon="-3.3950362355"><ele>1507.48</ele><time>2015-01-24T11:32:11Z</time></trkpt><trkpt lat="37.3294086009" lon="-3.3950426895"><ele>1507.48</ele><time>2015-01-24T11:32:22Z</time></trkpt><trkpt lat="37.3293704633" lon="-3.3950869460"><ele>1507.48</ele><time>2015-01-24T11:32:34Z</time></trkpt><trkpt lat="37.3293329962" lon="-3.3951655682"><ele>1508.45</ele><time>2015-01-24T11:32:44Z</time></trkpt><trkpt lat="37.3293255363" lon="-3.3951876964"><ele>1508.45</ele><time>2015-01-24T11:32:55Z</time></trkpt><trkpt lat="37.3292936850" lon="-3.3952181228"><ele>1508.45</ele><time>2015-01-24T11:33:15Z</time></trkpt><trkpt lat="37.3292490095" lon="-3.3952994272"><ele>1509.41</ele><time>2015-01-24T11:33:28Z</time></trkpt><trkpt lat="37.3291960359" lon="-3.3953674883"><ele>1509.89</ele><time>2015-01-24T11:33:38Z</time></trkpt><trkpt lat="37.3291374464" lon="-3.3954499662"><ele>1509.89</ele><time>2015-01-24T11:33:49Z</time></trkpt><trkpt lat="37.3290839698" lon="-3.3954986650"><ele>1510.85</ele><time>2015-01-24T11:34:01Z</time></trkpt><trkpt lat="37.3290397972" lon="-3.3955579251"><ele>1511.81</ele><time>2015-01-24T11:34:16Z</time></trkpt><trkpt lat="37.3290065210" lon="-3.3955994155"><ele>1511.81</ele><time>2015-01-24T11:34:31Z</time></trkpt><trkpt lat="37.3289329279" lon="-3.3956818096"><ele>1511.81</ele><time>2015-01-24T11:34:43Z</time></trkpt><trkpt lat="37.3289080337" lon="-3.3957091346"><ele>1512.29</ele><time>2015-01-24T11:34:47Z</time></trkpt><trkpt lat="37.3288884200" lon="-3.3957451768"><ele>1512.77</ele><time>2015-01-24T11:34:52Z</time></trkpt><trkpt lat="37.3288818821" lon="-3.3957539778"><ele>1512.29</ele><time>2015-01-24T11:34:53Z</time></trkpt><trkpt lat="37.3288230412" lon="-3.3958304208"><ele>1513.25</ele><time>2015-01-24T11:35:05Z</time></trkpt><trkpt lat="37.3287730012" lon="-3.3958836459"><ele>1513.73</ele><time>2015-01-24T11:35:15Z</time></trkpt><trkpt lat="37.3287614342" lon="-3.3959317580"><ele>1513.73</ele><time>2015-01-24T11:35:30Z</time></trkpt><trkpt lat="37.3287118971" lon="-3.3960491046"><ele>1514.69</ele><time>2015-01-24T11:35:45Z</time></trkpt><trkpt lat="37.3286619410" lon="-3.3961239550"><ele>1514.69</ele><time>2015-01-24T11:35:59Z</time></trkpt><trkpt lat="37.3286602646" lon="-3.3961553872"><ele>1514.69</ele><time>2015-01-24T11:36:13Z</time></trkpt><trkpt lat="37.3285909463" lon="-3.3962327521"><ele>1515.66</ele><time>2015-01-24T11:36:25Z</time></trkpt><trkpt lat="37.3285246454" lon="-3.3962933533"><ele>1516.14</ele><time>2015-01-24T11:36:36Z</time></trkpt><trkpt lat="37.3284940515" lon="-3.3963138890"><ele>1516.62</ele><time>2015-01-24T11:36:48Z</time></trkpt><trkpt lat="37.3284406587" lon="-3.3964151423"><ele>1517.10</ele><time>2015-01-24T11:37:00Z</time></trkpt><trkpt lat="37.3284070473" lon="-3.3965348359"><ele>1518.06</ele><time>2015-01-24T11:37:12Z</time></trkpt><trkpt lat="37.3284005933" lon="-3.3965518512"><ele>1518.06</ele><time>2015-01-24T11:37:13Z</time></trkpt><trkpt lat="37.3283793032" lon="-3.3966550324"><ele>1518.54</ele><time>2015-01-24T11:37:25Z</time></trkpt><trkpt lat="37.3283698317" lon="-3.3967188187"><ele>1519.02</ele><time>2015-01-24T11:37:31Z</time></trkpt><trkpt lat="37.3283640482" lon="-3.3967536036"><ele>1519.02</ele><time>2015-01-24T11:37:34Z</time></trkpt><trkpt lat="37.3283549119" lon="-3.3967853710"><ele>1519.50</ele><time>2015-01-24T11:37:38Z</time></trkpt><trkpt lat="37.3283378966" lon="-3.3968017157"><ele>1519.98</ele><time>2015-01-24T11:37:49Z</time></trkpt><trkpt lat="37.3283220548" lon="-3.3968387637"><ele>1519.98</ele><time>2015-01-24T11:37:53Z</time></trkpt><trkpt lat="37.3282702547" lon="-3.3969170507"><ele>1520.46</ele><time>2015-01-24T11:38:04Z</time></trkpt><trkpt lat="37.3282088153" lon="-3.3970131073"><ele>1520.46</ele><time>2015-01-24T11:38:17Z</time></trkpt><trkpt lat="37.3281447776" lon="-3.3970641531"><ele>1521.42</ele><time>2015-01-24T11:38:27Z</time></trkpt><trkpt lat="37.3281244934" lon="-3.3970481437"><ele>1521.42</ele><time>2015-01-24T11:38:34Z</time></trkpt><trkpt lat="37.3280682508" lon="-3.3971153665"><ele>1521.42</ele><time>2015-01-24T11:38:44Z</time></trkpt><trkpt lat="37.3280367348" lon="-3.3971453737"><ele>1521.90</ele><time>2015-01-24T11:38:53Z</time></trkpt><trkpt lat="37.3279433604" lon="-3.3971975092"><ele>1521.90</ele><time>2015-01-24T11:39:04Z</time></trkpt><trkpt lat="37.3279321287" lon="-3.3972130995"><ele>1521.90</ele><time>2015-01-24T11:39:05Z</time></trkpt><trkpt lat="37.3279217351" lon="-3.3972229064"><ele>1522.39</ele><time>2015-01-24T11:39:06Z</time></trkpt><trkpt lat="37.3278131057" lon="-3.3972548414"><ele>1522.87</ele><time>2015-01-24T11:39:19Z</time></trkpt><trkpt lat="37.3277757224" lon="-3.3972665761"><ele>1523.35</ele><time>2015-01-24T11:39:26Z</time></trkpt><trkpt lat="37.3277100082" lon="-3.3972882852"><ele>1523.35</ele><time>2015-01-24T11:39:34Z</time></trkpt><trkpt lat="37.3276081681" lon="-3.3973286860"><ele>1523.83</ele><time>2015-01-24T11:39:49Z</time></trkpt><trkpt lat="37.3276117723" lon="-3.3973230701"><ele>1524.31</ele><time>2015-01-24T11:40:06Z</time></trkpt><trkpt lat="37.3276072461" lon="-3.3973196335"><ele>1524.31</ele><time>2015-01-24T11:40:16Z</time></trkpt><trkpt lat="37.3275924101" lon="-3.3973383252"><ele>1524.31</ele><time>2015-01-24T11:40:37Z</time></trkpt><trkpt lat="37.3275855370" lon="-3.3973474614"><ele>1524.31</ele><time>2015-01-24T11:40:51Z</time></trkpt><trkpt lat="37.3275627382" lon="-3.3973864373"><ele>1524.31</ele><time>2015-01-24T11:41:01Z</time></trkpt><trkpt lat="37.3275790829" lon="-3.3973355591"><ele>1524.79</ele><time>2015-01-24T11:41:25Z</time></trkpt><trkpt lat="37.3275572900" lon="-3.3973863535"><ele>1524.79</ele><time>2015-01-24T11:41:39Z</time></trkpt><trkpt lat="37.3275736347" lon="-3.3974206354"><ele>1524.79</ele><time>2015-01-24T11:41:55Z</time></trkpt><trkpt lat="37.3276583757" lon="-3.3974683285"><ele>1526.71</ele><time>2015-01-24T11:42:06Z</time></trkpt><trkpt lat="37.3277202342" lon="-3.3974796440"><ele>1527.19</ele><time>2015-01-24T11:42:13Z</time></trkpt><trkpt lat="37.3277452961" lon="-3.3974882774"><ele>1527.67</ele><time>2015-01-24T11:42:15Z</time></trkpt><trkpt lat="37.3277904745" lon="-3.3975066338"><ele>1528.63</ele><time>2015-01-24T11:42:25Z</time></trkpt><trkpt lat="37.3278262652" lon="-3.3975244872"><ele>1528.63</ele><time>2015-01-24T11:42:40Z</time></trkpt><trkpt lat="37.3278293665" lon="-3.3975260798"><ele>1528.63</ele><time>2015-01-24T11:42:42Z</time></trkpt><trkpt lat="37.3278219905" lon="-3.3975226432"><ele>1529.59</ele><time>2015-01-24T11:42:52Z</time></trkpt><trkpt lat="37.3277924862" lon="-3.3975412510"><ele>1529.59</ele><time>2015-01-24T11:42:56Z</time></trkpt><trkpt lat="37.3277666699" lon="-3.3975523151"><ele>1529.59</ele><time>2015-01-24T11:42:59Z</time></trkpt><trkpt lat="37.3277266044" lon="-3.3975746110"><ele>1528.15</ele><time>2015-01-24T11:43:10Z</time></trkpt><trkpt lat="37.3277093377" lon="-3.3975432627"><ele>1527.67</ele><time>2015-01-24T11:43:27Z</time></trkpt><trkpt lat="37.3276872933" lon="-3.3974866010"><ele>1527.67</ele><time>2015-01-24T11:43:37Z</time></trkpt><trkpt lat="37.3276001215" lon="-3.3974621259"><ele>1525.75</ele><time>2015-01-24T11:43:48Z</time></trkpt><trkpt lat="37.3275688570" lon="-3.3974582702"><ele>1525.75</ele><time>2015-01-24T11:44:03Z</time></trkpt><trkpt lat="37.3275568709" lon="-3.3974713460"><ele>1526.23</ele><time>2015-01-24T11:44:17Z</time></trkpt><trkpt lat="37.3275339883" lon="-3.3974780515"><ele>1524.79</ele><time>2015-01-24T11:44:41Z</time></trkpt><trkpt lat="37.3274587188" lon="-3.3975194581"><ele>1524.79</ele><time>2015-01-24T11:44:54Z</time></trkpt><trkpt lat="37.3274158034" lon="-3.3975617867"><ele>1524.79</ele><time>2015-01-24T11:45:06Z</time></trkpt><trkpt lat="37.3274127021" lon="-3.3975902013"><ele>1524.79</ele><time>2015-01-24T11:45:09Z</time></trkpt><trkpt lat="37.3273850419" lon="-3.3976159338"><ele>1524.79</ele><time>2015-01-24T11:45:12Z</time></trkpt><trkpt lat="37.3273400310" lon="-3.3976772055"><ele>1525.75</ele><time>2015-01-24T11:45:19Z</time></trkpt><trkpt lat="37.3272802681" lon="-3.3977603540"><ele>1527.19</ele><time>2015-01-24T11:45:34Z</time></trkpt><trkpt lat="37.3272046633" lon="-3.3978310134"><ele>1527.67</ele><time>2015-01-24T11:45:48Z</time></trkpt><trkpt lat="37.3271367699" lon="-3.3978826459"><ele>1528.63</ele><time>2015-01-24T11:46:00Z</time></trkpt><trkpt lat="37.3271244485" lon="-3.3978875913"><ele>1529.11</ele><time>2015-01-24T11:46:02Z</time></trkpt><trkpt lat="37.3270411324" lon="-3.3979652915"><ele>1529.59</ele><time>2015-01-24T11:46:17Z</time></trkpt><trkpt lat="37.3269832134" lon="-3.3980273176"><ele>1530.08</ele><time>2015-01-24T11:46:29Z</time></trkpt><trkpt lat="37.3268973827" lon="-3.3980965521"><ele>1531.04</ele><time>2015-01-24T11:46:44Z</time></trkpt><trkpt lat="37.3268415593" lon="-3.3981338516"><ele>1532.00</ele><time>2015-01-24T11:46:57Z</time></trkpt><trkpt lat="37.3267801199" lon="-3.3981750906"><ele>1532.00</ele><time>2015-01-24T11:47:05Z</time></trkpt><trkpt lat="37.3266863264" lon="-3.3982037567"><ele>1532.96</ele><time>2015-01-24T11:47:19Z</time></trkpt><trkpt lat="37.3266014177" lon="-3.3982411399"><ele>1534.40</ele><time>2015-01-24T11:47:33Z</time></trkpt><trkpt lat="37.3265754338" lon="-3.3982406370"><ele>1534.40</ele><time>2015-01-24T11:47:47Z</time></trkpt><trkpt lat="37.3265301716" lon="-3.3982729912"><ele>1534.88</ele><time>2015-01-24T11:48:03Z</time></trkpt><trkpt lat="37.3264783714" lon="-3.3983201813"><ele>1535.36</ele><time>2015-01-24T11:48:14Z</time></trkpt><trkpt lat="37.3263994977" lon="-3.3983998094"><ele>1535.84</ele><time>2015-01-24T11:48:28Z</time></trkpt><trkpt lat="37.3263435904" lon="-3.3985273819"><ele>1536.80</ele><time>2015-01-24T11:48:45Z</time></trkpt><trkpt lat="37.3263409920" lon="-3.3986092731"><ele>1537.29</ele><time>2015-01-24T11:48:58Z</time></trkpt><trkpt lat="37.3263431713" lon="-3.3986136317"><ele>1537.77</ele><time>2015-01-24T11:49:18Z</time></trkpt><trkpt lat="37.3263436742" lon="-3.3986108657"><ele>1537.77</ele><time>2015-01-24T11:49:35Z</time></trkpt><trkpt lat="37.3263046984" lon="-3.3986358438"><ele>1537.77</ele><time>2015-01-24T11:49:55Z</time></trkpt><trkpt lat="37.3262946401" lon="-3.3986855485"><ele>1535.84</ele><time>2015-01-24T11:50:08Z</time></trkpt><trkpt lat="37.3263210431" lon="-3.3986297250"><ele>1537.77</ele><time>2015-01-24T11:50:36Z</time></trkpt><trkpt lat="37.3263240606" lon="-3.3986384422"><ele>1537.77</ele><time>2015-01-24T11:51:06Z</time></trkpt><trkpt lat="37.3262901139" lon="-3.3986973669"><ele>1537.77</ele><time>2015-01-24T11:51:25Z</time></trkpt><trkpt lat="37.3262772895" lon="-3.3987322357"><ele>1537.77</ele><time>2015-01-24T11:51:29Z</time></trkpt><trkpt lat="37.3262466956" lon="-3.3988092653"><ele>1537.77</ele><time>2015-01-24T11:51:41Z</time></trkpt><trkpt lat="37.3262602743" lon="-3.3988200780"><ele>1537.77</ele><time>2015-01-24T11:51:55Z</time></trkpt><trkpt lat="37.3262559157" lon="-3.3988208324"><ele>1538.25</ele><time>2015-01-24T11:52:14Z</time></trkpt><trkpt lat="37.3262348771" lon="-3.3987810183"><ele>1538.25</ele><time>2015-01-24T11:52:42Z</time></trkpt><trkpt lat="37.3262458574" lon="-3.3988104388"><ele>1538.25</ele><time>2015-01-24T11:53:00Z</time></trkpt><trkpt lat="37.3262600228" lon="-3.3987914119"><ele>1538.25</ele><time>2015-01-24T11:53:30Z</time></trkpt><trkpt lat="37.3262466118" lon="-3.3988011349"><ele>1538.25</ele><time>2015-01-24T11:53:51Z</time></trkpt><trkpt lat="37.3262127489" lon="-3.3988971077"><ele>1536.80</ele><time>2015-01-24T11:54:01Z</time></trkpt><trkpt lat="37.3261996731" lon="-3.3989054896"><ele>1536.80</ele><time>2015-01-24T11:54:03Z</time></trkpt><trkpt lat="37.3261612840" lon="-3.3989950083"><ele>1536.80</ele><time>2015-01-24T11:54:16Z</time></trkpt><trkpt lat="37.3261393234" lon="-3.3990617283"><ele>1536.80</ele><time>2015-01-24T11:54:31Z</time></trkpt><trkpt lat="37.3261356354" lon="-3.3990720380"><ele>1536.80</ele><time>2015-01-24T11:54:32Z</time></trkpt><trkpt lat="37.3261193745" lon="-3.3991681784"><ele>1536.32</ele><time>2015-01-24T11:54:43Z</time></trkpt><trkpt lat="37.3260933068" lon="-3.3992156200"><ele>1536.32</ele><time>2015-01-24T11:54:57Z</time></trkpt><trkpt lat="37.3260648083" lon="-3.3993371576"><ele>1535.84</ele><time>2015-01-24T11:55:10Z</time></trkpt><trkpt lat="37.3260405008" lon="-3.3994609583"><ele>1535.84</ele><time>2015-01-24T11:55:24Z</time></trkpt><trkpt lat="37.3260110803" lon="-3.3995899558"><ele>1535.84</ele><time>2015-01-24T11:55:38Z</time></trkpt><trkpt lat="37.3259954900" lon="-3.3997150976"><ele>1535.36</ele><time>2015-01-24T11:55:52Z</time></trkpt><trkpt lat="37.3259714339" lon="-3.3997984976"><ele>1535.36</ele><time>2015-01-24T11:56:05Z</time></trkpt><trkpt lat="37.3259637225" lon="-3.3999387268"><ele>1535.84</ele><time>2015-01-24T11:56:20Z</time></trkpt><trkpt lat="37.3259428516" lon="-3.4000818897"><ele>1535.84</ele><time>2015-01-24T11:56:35Z</time></trkpt><trkpt lat="37.3259379901" lon="-3.4001077898"><ele>1535.84</ele><time>2015-01-24T11:56:37Z</time></trkpt><trkpt lat="37.3259230703" lon="-3.4002085403"><ele>1535.84</ele><time>2015-01-24T11:56:52Z</time></trkpt><trkpt lat="37.3259244114" lon="-3.4002207778"><ele>1535.84</ele><time>2015-01-24T11:57:06Z</time></trkpt><trkpt lat="37.3259185441" lon="-3.4002278186"><ele>1535.84</ele><time>2015-01-24T11:57:17Z</time></trkpt><trkpt lat="37.3259169515" lon="-3.4002638608"><ele>1535.84</ele><time>2015-01-24T11:57:29Z</time></trkpt><trkpt lat="37.3259058036" lon="-3.4002778586"><ele>1535.84</ele><time>2015-01-24T11:57:51Z</time></trkpt><trkpt lat="37.3259081505" lon="-3.4002897609"><ele>1535.84</ele><time>2015-01-24T11:58:12Z</time></trkpt><trkpt lat="37.3259163648" lon="-3.4002972208"><ele>1535.84</ele><time>2015-01-24T11:58:38Z</time></trkpt><trkpt lat="37.3259300273" lon="-3.4003198519"><ele>1535.84</ele><time>2015-01-24T11:58:50Z</time></trkpt><trkpt lat="37.3259192146" lon="-3.4002830554"><ele>1535.84</ele><time>2015-01-24T11:59:13Z</time></trkpt><trkpt lat="37.3259418458" lon="-3.4003603365"><ele>1535.84</ele><time>2015-01-24T11:59:26Z</time></trkpt><trkpt lat="37.3259477969" lon="-3.4004541300"><ele>1535.84</ele><time>2015-01-24T11:59:37Z</time></trkpt><trkpt lat="37.3260119185" lon="-3.4005171619"><ele>1535.36</ele><time>2015-01-24T11:59:49Z</time></trkpt><trkpt lat="37.3260425124" lon="-3.4005268849"><ele>1535.36</ele><time>2015-01-24T11:59:56Z</time></trkpt><trkpt lat="37.3261082266" lon="-3.4005964547"><ele>1535.36</ele><time>2015-01-24T12:00:07Z</time></trkpt><trkpt lat="37.3261321988" lon="-3.4006173257"><ele>1535.36</ele><time>2015-01-24T12:00:21Z</time></trkpt><trkpt lat="37.3261642177" lon="-3.4006383643"><ele>1535.36</ele><time>2015-01-24T12:00:32Z</time></trkpt><trkpt lat="37.3261956498" lon="-3.4006586485"><ele>1535.36</ele><time>2015-01-24T12:00:47Z</time></trkpt><trkpt lat="37.3262028582" lon="-3.4006547928"><ele>1535.36</ele><time>2015-01-24T12:00:50Z</time></trkpt><trkpt lat="37.3262062110" lon="-3.4006565530"><ele>1535.36</ele><time>2015-01-24T12:01:02Z</time></trkpt><trkpt lat="37.3262216337" lon="-3.4006704669"><ele>1535.36</ele><time>2015-01-24T12:01:22Z</time></trkpt><trkpt lat="37.3262637109" lon="-3.4007140528"><ele>1535.36</ele><time>2015-01-24T12:01:35Z</time></trkpt><trkpt lat="37.3263435066" lon="-3.4007932618"><ele>1535.36</ele><time>2015-01-24T12:01:50Z</time></trkpt><trkpt lat="37.3263589293" lon="-3.4008117858"><ele>1536.32</ele><time>2015-01-24T12:02:02Z</time></trkpt><trkpt lat="37.3263853323" lon="-3.4008118697"><ele>1536.32</ele><time>2015-01-24T12:02:16Z</time></trkpt><trkpt lat="37.3263871763" lon="-3.4008182399"><ele>1536.32</ele><time>2015-01-24T12:02:17Z</time></trkpt><trkpt lat="37.3263937142" lon="-3.4008453134"><ele>1536.32</ele><time>2015-01-24T12:02:19Z</time></trkpt><trkpt lat="37.3264550697" lon="-3.4009303059"><ele>1536.80</ele><time>2015-01-24T12:02:29Z</time></trkpt><trkpt lat="37.3265246395" lon="-3.4010624886"><ele>1537.77</ele><time>2015-01-24T12:02:43Z</time></trkpt><trkpt lat="37.3265750147" lon="-3.4011720400"><ele>1537.77</ele><time>2015-01-24T12:02:55Z</time></trkpt><trkpt lat="37.3265952989" lon="-3.4012737963"><ele>1537.77</ele><time>2015-01-24T12:03:08Z</time></trkpt><trkpt lat="37.3266167566" lon="-3.4013578668"><ele>1538.25</ele><time>2015-01-24T12:03:19Z</time></trkpt><trkpt lat="37.3266468477" lon="-3.4014701005"><ele>1538.25</ele><time>2015-01-24T12:03:32Z</time></trkpt><trkpt lat="37.3266821355" lon="-3.4016246628"><ele>1538.73</ele><time>2015-01-24T12:03:49Z</time></trkpt><trkpt lat="37.3267128970" lon="-3.4017264191"><ele>1539.21</ele><time>2015-01-24T12:04:03Z</time></trkpt><trkpt lat="37.3267460894" lon="-3.4018430952"><ele>1539.69</ele><time>2015-01-24T12:04:17Z</time></trkpt><trkpt lat="37.3267650325" lon="-3.4019566700"><ele>1540.17</ele><time>2015-01-24T12:04:30Z</time></trkpt><trkpt lat="37.3267963808" lon="-3.4020745195"><ele>1541.13</ele><time>2015-01-24T12:04:45Z</time></trkpt><trkpt lat="37.3268418107" lon="-3.4021960571"><ele>1541.61</ele><time>2015-01-24T12:04:58Z</time></trkpt><trkpt lat="37.3268962093" lon="-3.4023542237"><ele>1541.13</ele><time>2015-01-24T12:05:13Z</time></trkpt><trkpt lat="37.3269192595" lon="-3.4025123902"><ele>1541.61</ele><time>2015-01-24T12:05:28Z</time></trkpt><trkpt lat="37.3269190919" lon="-3.4026405495"><ele>1542.09</ele><time>2015-01-24T12:05:42Z</time></trkpt><trkpt lat="37.3269220255" lon="-3.4026923496"><ele>1542.57</ele><time>2015-01-24T12:05:56Z</time></trkpt><trkpt lat="37.3269714788" lon="-3.4028392006"><ele>1543.05</ele><time>2015-01-24T12:06:12Z</time></trkpt><trkpt lat="37.3270107061" lon="-3.4028980415"><ele>1543.05</ele><time>2015-01-24T12:06:22Z</time></trkpt><trkpt lat="37.3270563874" lon="-3.4028778411"><ele>1543.53</ele><time>2015-01-24T12:06:36Z</time></trkpt><trkpt lat="37.3270606622" lon="-3.4029227681"><ele>1543.53</ele><time>2015-01-24T12:06:55Z</time></trkpt><trkpt lat="37.3270719778" lon="-3.4029396158"><ele>1543.53</ele><time>2015-01-24T12:06:57Z</time></trkpt><trkpt lat="37.3270842992" lon="-3.4029236902"><ele>1543.53</ele><time>2015-01-24T12:07:14Z</time></trkpt><trkpt lat="37.3270789348" lon="-3.4029102791"><ele>1543.53</ele><time>2015-01-24T12:07:43Z</time></trkpt><trkpt lat="37.3270933516" lon="-3.4029286355"><ele>1543.53</ele><time>2015-01-24T12:07:56Z</time></trkpt><trkpt lat="37.3271003086" lon="-3.4029241931"><ele>1543.53</ele><time>2015-01-24T12:07:57Z</time></trkpt><trkpt lat="37.3271258734" lon="-3.4029043280"><ele>1544.01</ele><time>2015-01-24T12:08:07Z</time></trkpt><trkpt lat="37.3271209281" lon="-3.4029016457"><ele>1544.01</ele><time>2015-01-24T12:08:25Z</time></trkpt><trkpt lat="37.3271211796" lon="-3.4028871451"><ele>1544.01</ele><time>2015-01-24T12:08:51Z</time></trkpt><trkpt lat="37.3271879833" lon="-3.4028756618"><ele>1544.01</ele><time>2015-01-24T12:09:02Z</time></trkpt><trkpt lat="37.3272064235" lon="-3.4028702974"><ele>1543.53</ele><time>2015-01-24T12:09:09Z</time></trkpt><trkpt lat="37.3272425495" lon="-3.4028205089"><ele>1544.01</ele><time>2015-01-24T12:09:22Z</time></trkpt><trkpt lat="37.3272451479" lon="-3.4028322436"><ele>1543.53</ele><time>2015-01-24T12:09:31Z</time></trkpt><trkpt lat="37.3271917552" lon="-3.4028630890"><ele>1543.53</ele><time>2015-01-24T12:09:44Z</time></trkpt><trkpt lat="37.3272122908" lon="-3.4028343391"><ele>1544.01</ele><time>2015-01-24T12:10:09Z</time></trkpt><trkpt lat="37.3272384424" lon="-3.4027869813"><ele>1544.01</ele><time>2015-01-24T12:10:19Z</time></trkpt><trkpt lat="37.3272826988" lon="-3.4027355164"><ele>1542.57</ele><time>2015-01-24T12:10:33Z</time></trkpt><trkpt lat="37.3272801004" lon="-3.4027288109"><ele>1542.57</ele><time>2015-01-24T12:10:36Z</time></trkpt><trkpt lat="37.3272742331" lon="-3.4026753344"><ele>1542.09</ele><time>2015-01-24T12:10:46Z</time></trkpt><trkpt lat="37.3272786755" lon="-3.4026915953"><ele>1542.09</ele><time>2015-01-24T12:10:52Z</time></trkpt><trkpt lat="37.3272856325" lon="-3.4027261287"><ele>1541.61</ele><time>2015-01-24T12:11:03Z</time></trkpt><trkpt lat="37.3272635881" lon="-3.4026896674"><ele>1541.61</ele><time>2015-01-24T12:11:15Z</time></trkpt><trkpt lat="37.3272900749" lon="-3.4026925173"><ele>1541.61</ele><time>2015-01-24T12:11:31Z</time></trkpt><trkpt lat="37.3272956908" lon="-3.4026915114"><ele>1541.61</ele><time>2015-01-24T12:11:45Z</time></trkpt><trkpt lat="37.3273234349" lon="-3.4026770946"><ele>1541.61</ele><time>2015-01-24T12:11:57Z</time></trkpt><trkpt lat="37.3273492511" lon="-3.4026512783"><ele>1541.61</ele><time>2015-01-24T12:12:01Z</time></trkpt><trkpt lat="37.3273901548" lon="-3.4025746677"><ele>1541.13</ele><time>2015-01-24T12:12:13Z</time></trkpt><trkpt lat="37.3274300527" lon="-3.4025321715"><ele>1541.13</ele><time>2015-01-24T12:12:20Z</time></trkpt><trkpt lat="37.3275535181" lon="-3.4024941176"><ele>1539.21</ele><time>2015-01-24T12:12:34Z</time></trkpt><trkpt lat="37.3276027199" lon="-3.4024771862"><ele>1538.73</ele><time>2015-01-24T12:12:40Z</time></trkpt><trkpt lat="37.3276908975" lon="-3.4024904296"><ele>1538.25</ele><time>2015-01-24T12:12:49Z</time></trkpt><trkpt lat="37.3277873732" lon="-3.4025250468"><ele>1537.29</ele><time>2015-01-24T12:12:59Z</time></trkpt><trkpt lat="37.3278384190" lon="-3.4025390446"><ele>1537.29</ele><time>2015-01-24T12:13:11Z</time></trkpt><trkpt lat="37.3278756347" lon="-3.4025423974"><ele>1536.80</ele><time>2015-01-24T12:13:16Z</time></trkpt><trkpt lat="37.3279144429" lon="-3.4025545511"><ele>1536.80</ele><time>2015-01-24T12:13:20Z</time></trkpt><trkpt lat="37.3279671650" lon="-3.4025465045"><ele>1536.32</ele><time>2015-01-24T12:13:27Z</time></trkpt><trkpt lat="37.3280031234" lon="-3.4025247954"><ele>1536.32</ele><time>2015-01-24T12:13:39Z</time></trkpt><trkpt lat="37.3280060571" lon="-3.4025745839"><ele>1534.40</ele><time>2015-01-24T12:13:55Z</time></trkpt><trkpt lat="37.3280384950" lon="-3.4026028309"><ele>1532.48</ele><time>2015-01-24T12:14:04Z</time></trkpt><trkpt lat="37.3280665744" lon="-3.4026251268"><ele>1531.04</ele><time>2015-01-24T12:14:21Z</time></trkpt><trkpt lat="37.3280761298" lon="-3.4026368614"><ele>1530.56</ele><time>2015-01-24T12:14:29Z</time></trkpt><trkpt lat="37.3280963302" lon="-3.4026576485"><ele>1530.56</ele><time>2015-01-24T12:14:31Z</time></trkpt><trkpt lat="37.3281487171" lon="-3.4027276374"><ele>1526.71</ele><time>2015-01-24T12:14:41Z</time></trkpt><trkpt lat="37.3281405866" lon="-3.4027448203"><ele>1526.23</ele><time>2015-01-24T12:14:50Z</time></trkpt><trkpt lat="37.3281170335" lon="-3.4027552977"><ele>1525.75</ele><time>2015-01-24T12:15:09Z</time></trkpt><trkpt lat="37.3280590307" lon="-3.4027838800"><ele>1525.75</ele><time>2015-01-24T12:15:23Z</time></trkpt><trkpt lat="37.3280271795" lon="-3.4028333332"><ele>1525.75</ele><time>2015-01-24T12:15:35Z</time></trkpt><trkpt lat="37.3279841803" lon="-3.4028920904"><ele>1525.75</ele><time>2015-01-24T12:15:46Z</time></trkpt><trkpt lat="37.3279680032" lon="-3.4029085189"><ele>1525.75</ele><time>2015-01-24T12:15:48Z</time></trkpt><trkpt lat="37.3279120121" lon="-3.4029425494"><ele>1525.75</ele><time>2015-01-24T12:15:59Z</time></trkpt><trkpt lat="37.3279217351" lon="-3.4029873088"><ele>1525.75</ele><time>2015-01-24T12:16:11Z</time></trkpt><trkpt lat="37.3278720304" lon="-3.4030313138"><ele>1525.75</ele><time>2015-01-24T12:16:24Z</time></trkpt><trkpt lat="37.3278239183" lon="-3.4030945972"><ele>1525.75</ele><time>2015-01-24T12:16:38Z</time></trkpt><trkpt lat="37.3278112616" lon="-3.4031137079"><ele>1525.75</ele><time>2015-01-24T12:16:51Z</time></trkpt><trkpt lat="37.3277611379" lon="-3.4032040648"><ele>1525.75</ele><time>2015-01-24T12:17:05Z</time></trkpt><trkpt lat="37.3277254310" lon="-3.4032670967"><ele>1525.75</ele><time>2015-01-24T12:17:13Z</time></trkpt><trkpt lat="37.3277134448" lon="-3.4032995347"><ele>1525.75</ele><time>2015-01-24T12:17:17Z</time></trkpt><trkpt lat="37.3276701104" lon="-3.4033701103"><ele>1527.19</ele><time>2015-01-24T12:17:33Z</time></trkpt><trkpt lat="37.3276697751" lon="-3.4033702780"><ele>1527.19</ele><time>2015-01-24T12:17:34Z</time></trkpt><trkpt lat="37.3276468087" lon="-3.4033968486"><ele>1527.19</ele><time>2015-01-24T12:17:57Z</time></trkpt><trkpt lat="37.3276142031" lon="-3.4034323879"><ele>1527.67</ele><time>2015-01-24T12:18:11Z</time></trkpt><trkpt lat="37.3275971878" lon="-3.4034728725"><ele>1527.67</ele><time>2015-01-24T12:18:24Z</time></trkpt><trkpt lat="37.3275555298" lon="-3.4035610501"><ele>1527.67</ele><time>2015-01-24T12:18:41Z</time></trkpt><trkpt lat="37.3274832778" lon="-3.4036682546"><ele>1528.63</ele><time>2015-01-24T12:18:56Z</time></trkpt><trkpt lat="37.3274431285" lon="-3.4037317056"><ele>1529.11</ele><time>2015-01-24T12:19:06Z</time></trkpt><trkpt lat="37.3273759056" lon="-3.4038073942"><ele>1529.11</ele><time>2015-01-24T12:19:27Z</time></trkpt><trkpt lat="37.3273345828" lon="-3.4038773831"><ele>1529.59</ele><time>2015-01-24T12:19:46Z</time></trkpt><trkpt lat="37.3272884823" lon="-3.4039161075"><ele>1529.59</ele><time>2015-01-24T12:20:08Z</time></trkpt><trkpt lat="37.3272092734" lon="-3.4039726015"><ele>1530.08</ele><time>2015-01-24T12:20:23Z</time></trkpt><trkpt lat="37.3271617480" lon="-3.4040571749"><ele>1530.08</ele><time>2015-01-24T12:20:37Z</time></trkpt><trkpt lat="37.3271045834" lon="-3.4041517228"><ele>1530.56</ele><time>2015-01-24T12:20:53Z</time></trkpt><trkpt lat="37.3270450719" lon="-3.4042528924"><ele>1531.52</ele><time>2015-01-24T12:21:09Z</time></trkpt><trkpt lat="37.3270076048" lon="-3.4043375496"><ele>1532.00</ele><time>2015-01-24T12:21:20Z</time></trkpt><trkpt lat="37.3269970436" lon="-3.4044198599"><ele>1532.00</ele><time>2015-01-24T12:21:36Z</time></trkpt><trkpt lat="37.3269752506" lon="-3.4045391344"><ele>1532.00</ele><time>2015-01-24T12:21:50Z</time></trkpt><trkpt lat="37.3269805312" lon="-3.4046195168"><ele>1532.96</ele><time>2015-01-24T12:22:06Z</time></trkpt><trkpt lat="37.3269879911" lon="-3.4046651982"><ele>1533.44</ele><time>2015-01-24T12:22:19Z</time></trkpt><trkpt lat="37.3269954510" lon="-3.4047387913"><ele>1533.92</ele><time>2015-01-24T12:22:31Z</time></trkpt><trkpt lat="37.3269579839" lon="-3.4048430622"><ele>1534.40</ele><time>2015-01-24T12:22:48Z</time></trkpt><trkpt lat="37.3269305751" lon="-3.4049169905"><ele>1534.40</ele><time>2015-01-24T12:23:03Z</time></trkpt><trkpt lat="37.3269221094" lon="-3.4049645998"><ele>1534.40</ele><time>2015-01-24T12:23:16Z</time></trkpt><trkpt lat="37.3268941976" lon="-3.4050392825"><ele>1534.40</ele><time>2015-01-24T12:23:27Z</time></trkpt><trkpt lat="37.3268857319" lon="-3.4050831199"><ele>1534.40</ele><time>2015-01-24T12:23:38Z</time></trkpt><trkpt lat="37.3268799484" lon="-3.4051015601"><ele>1534.40</ele><time>2015-01-24T12:24:02Z</time></trkpt><trkpt lat="37.3268739972" lon="-3.4051980358"><ele>1535.36</ele><time>2015-01-24T12:24:15Z</time></trkpt><trkpt lat="37.3268978857" lon="-3.4053055756"><ele>1535.84</ele><time>2015-01-24T12:24:28Z</time></trkpt><trkpt lat="37.3269206006" lon="-3.4053978603"><ele>1536.32</ele><time>2015-01-24T12:24:40Z</time></trkpt><trkpt lat="37.3269374482" lon="-3.4054791648"><ele>1536.80</ele><time>2015-01-24T12:24:51Z</time></trkpt><trkpt lat="37.3269478418" lon="-3.4055437054"><ele>1537.29</ele><time>2015-01-24T12:25:06Z</time></trkpt><trkpt lat="37.3269632645" lon="-3.4056308772"><ele>1537.29</ele><time>2015-01-24T12:25:21Z</time></trkpt><trkpt lat="37.3269534577" lon="-3.4057036322"><ele>1537.29</ele><time>2015-01-24T12:25:30Z</time></trkpt><trkpt lat="37.3269523680" lon="-3.4058389161"><ele>1537.77</ele><time>2015-01-24T12:25:43Z</time></trkpt><trkpt lat="37.3269542959" lon="-3.4059462044"><ele>1538.25</ele><time>2015-01-24T12:25:54Z</time></trkpt><trkpt lat="37.3269500211" lon="-3.4060033690"><ele>1538.25</ele><time>2015-01-24T12:26:05Z</time></trkpt><trkpt lat="37.3269511107" lon="-3.4059991781"><ele>1538.73</ele><time>2015-01-24T12:26:20Z</time></trkpt><trkpt lat="37.3269718140" lon="-3.4060215577"><ele>1538.73</ele><time>2015-01-24T12:26:46Z</time></trkpt><trkpt lat="37.3269772623" lon="-3.4060442727"><ele>1538.73</ele><time>2015-01-24T12:27:00Z</time></trkpt><trkpt lat="37.3269677907" lon="-3.4060803149"><ele>1538.73</ele><time>2015-01-24T12:27:09Z</time></trkpt><trkpt lat="37.3269925173" lon="-3.4061189555"><ele>1538.73</ele><time>2015-01-24T12:27:21Z</time></trkpt><trkpt lat="37.3269887455" lon="-3.4061279241"><ele>1538.73</ele><time>2015-01-24T12:27:22Z</time></trkpt><trkpt lat="37.3269869853" lon="-3.4062658902"><ele>1539.21</ele><time>2015-01-24T12:27:34Z</time></trkpt><trkpt lat="37.3269827943" lon="-3.4062969871"><ele>1539.21</ele><time>2015-01-24T12:27:37Z</time></trkpt><trkpt lat="37.3269629292" lon="-3.4064227995"><ele>1539.69</ele><time>2015-01-24T12:27:49Z</time></trkpt><trkpt lat="37.3269677907" lon="-3.4064730071"><ele>1540.17</ele><time>2015-01-24T12:27:55Z</time></trkpt><trkpt lat="37.3269764241" lon="-3.4065760206"><ele>1540.65</ele><time>2015-01-24T12:28:06Z</time></trkpt><trkpt lat="37.3269959539" lon="-3.4066380467"><ele>1540.65</ele><time>2015-01-24T12:28:17Z</time></trkpt><trkpt lat="37.3270059284" lon="-3.4066951275"><ele>1541.13</ele><time>2015-01-24T12:28:33Z</time></trkpt><trkpt lat="37.3270150647" lon="-3.4067700617"><ele>1541.13</ele><time>2015-01-24T12:28:47Z</time></trkpt><trkpt lat="37.3270254582" lon="-3.4068884980"><ele>1541.61</ele><time>2015-01-24T12:29:01Z</time></trkpt><trkpt lat="37.3270435631" lon="-3.4069900867"><ele>1542.09</ele><time>2015-01-24T12:29:14Z</time></trkpt><trkpt lat="37.3270464968" lon="-3.4070792701"><ele>1542.09</ele><time>2015-01-24T12:29:27Z</time></trkpt><trkpt lat="37.3270521127" lon="-3.4071715549"><ele>1542.57</ele><time>2015-01-24T12:29:40Z</time></trkpt><trkpt lat="37.3270537052" lon="-3.4072628338"><ele>1543.05</ele><time>2015-01-24T12:29:51Z</time></trkpt><trkpt lat="37.3270397075" lon="-3.4073562082"><ele>1543.53</ele><time>2015-01-24T12:30:03Z</time></trkpt><trkpt lat="37.3270465806" lon="-3.4074625745"><ele>1543.53</ele><time>2015-01-24T12:30:16Z</time></trkpt><trkpt lat="37.3270487599" lon="-3.4074702859"><ele>1543.53</ele><time>2015-01-24T12:30:17Z</time></trkpt><trkpt lat="37.3270093650" lon="-3.4076190647"><ele>1543.53</ele><time>2015-01-24T12:30:33Z</time></trkpt><trkpt lat="37.3270010669" lon="-3.4077122714"><ele>1543.53</ele><time>2015-01-24T12:30:45Z</time></trkpt><trkpt lat="37.3269591574" lon="-3.4078239184"><ele>1543.53</ele><time>2015-01-24T12:30:58Z</time></trkpt><trkpt lat="37.3269288149" lon="-3.4079302009"><ele>1543.05</ele><time>2015-01-24T12:31:13Z</time></trkpt><trkpt lat="37.3269032501" lon="-3.4080172051"><ele>1543.05</ele><time>2015-01-24T12:31:25Z</time></trkpt><trkpt lat="37.3268893361" lon="-3.4080962464"><ele>1543.05</ele><time>2015-01-24T12:31:36Z</time></trkpt><trkpt lat="37.3268673755" lon="-3.4082014393"><ele>1543.05</ele><time>2015-01-24T12:31:51Z</time></trkpt><trkpt lat="37.3268403858" lon="-3.4082957357"><ele>1543.05</ele><time>2015-01-24T12:32:03Z</time></trkpt><trkpt lat="37.3268326744" lon="-3.4083507210"><ele>1543.05</ele><time>2015-01-24T12:32:09Z</time></trkpt><trkpt lat="37.3268248793" lon="-3.4084582608"><ele>1543.05</ele><time>2015-01-24T12:32:22Z</time></trkpt><trkpt lat="37.3267945368" lon="-3.4085994121"><ele>1543.05</ele><time>2015-01-24T12:32:38Z</time></trkpt><trkpt lat="37.3267668765" lon="-3.4086511284"><ele>1543.53</ele><time>2015-01-24T12:32:49Z</time></trkpt><trkpt lat="37.3267418984" lon="-3.4087690618"><ele>1543.53</ele><time>2015-01-24T12:33:07Z</time></trkpt><trkpt lat="37.3267361987" lon="-3.4088885039"><ele>1544.01</ele><time>2015-01-24T12:33:21Z</time></trkpt><trkpt lat="37.3267195188" lon="-3.4089799505"><ele>1544.01</ele><time>2015-01-24T12:33:34Z</time></trkpt><trkpt lat="37.3266957980" lon="-3.4091032483"><ele>1544.01</ele><time>2015-01-24T12:33:50Z</time></trkpt><trkpt lat="37.3266568221" lon="-3.4092217684"><ele>1544.50</ele><time>2015-01-24T12:34:06Z</time></trkpt><trkpt lat="37.3266627733" lon="-3.4093192499"><ele>1544.50</ele><time>2015-01-24T12:34:18Z</time></trkpt><trkpt lat="37.3266538046" lon="-3.4094210900"><ele>1544.98</ele><time>2015-01-24T12:34:30Z</time></trkpt><trkpt lat="37.3266470153" lon="-3.4095180687"><ele>1544.98</ele><time>2015-01-24T12:34:43Z</time></trkpt><trkpt lat="37.3266690597" lon="-3.4095980320"><ele>1544.98</ele><time>2015-01-24T12:34:56Z</time></trkpt><trkpt lat="37.3266997375" lon="-3.4097491577"><ele>1545.46</ele><time>2015-01-24T12:35:11Z</time></trkpt><trkpt lat="37.3267139029" lon="-3.4098696057"><ele>1545.46</ele><time>2015-01-24T12:35:26Z</time></trkpt><trkpt lat="37.3267183453" lon="-3.4099430311"><ele>1545.94</ele><time>2015-01-24T12:35:43Z</time></trkpt><trkpt lat="37.3267198540" lon="-3.4099767264"><ele>1545.94</ele><time>2015-01-24T12:35:47Z</time></trkpt><trkpt lat="37.3267222010" lon="-3.4100811649"><ele>1545.94</ele><time>2015-01-24T12:36:00Z</time></trkpt><trkpt lat="37.3267193511" lon="-3.4101649839"><ele>1545.94</ele><time>2015-01-24T12:36:11Z</time></trkpt><trkpt lat="37.3267204408" lon="-3.4102765471"><ele>1545.94</ele><time>2015-01-24T12:36:23Z</time></trkpt><trkpt lat="37.3267293256" lon="-3.4103732742"><ele>1546.42</ele><time>2015-01-24T12:36:36Z</time></trkpt><trkpt lat="37.3267281521" lon="-3.4104498848"><ele>1546.42</ele><time>2015-01-24T12:36:45Z</time></trkpt><trkpt lat="37.3267261405" lon="-3.4104756173"><ele>1546.42</ele><time>2015-01-24T12:36:48Z</time></trkpt><trkpt lat="37.3267126456" lon="-3.4105493780"><ele>1546.42</ele><time>2015-01-24T12:36:59Z</time></trkpt><trkpt lat="37.3267322592" lon="-3.4105593525"><ele>1546.90</ele><time>2015-01-24T12:37:17Z</time></trkpt><trkpt lat="37.3267297447" lon="-3.4106077161"><ele>1546.42</ele><time>2015-01-24T12:37:31Z</time></trkpt><trkpt lat="37.3267304990" lon="-3.4106919542"><ele>1546.42</ele><time>2015-01-24T12:37:44Z</time></trkpt><trkpt lat="37.3267460056" lon="-3.4107968118"><ele>1546.90</ele><time>2015-01-24T12:37:56Z</time></trkpt><trkpt lat="37.3267590813" lon="-3.4108811338"><ele>1546.90</ele><time>2015-01-24T12:38:07Z</time></trkpt><trkpt lat="37.3267895076" lon="-3.4109906852"><ele>1547.38</ele><time>2015-01-24T12:38:21Z</time></trkpt><trkpt lat="37.3267836403" lon="-3.4110763483"><ele>1547.38</ele><time>2015-01-24T12:38:31Z</time></trkpt><trkpt lat="37.3267931119" lon="-3.4110939503"><ele>1547.38</ele><time>2015-01-24T12:38:33Z</time></trkpt><trkpt lat="37.3268320039" lon="-3.4112003166"><ele>1547.38</ele><time>2015-01-24T12:38:47Z</time></trkpt><trkpt lat="37.3268905934" lon="-3.4112696350"><ele>1547.38</ele><time>2015-01-24T12:38:59Z</time></trkpt><trkpt lat="37.3269563075" lon="-3.4113264643"><ele>1547.38</ele><time>2015-01-24T12:39:13Z</time></trkpt><trkpt lat="37.3270363547" lon="-3.4113805275"><ele>1547.38</ele><time>2015-01-24T12:39:26Z</time></trkpt><trkpt lat="37.3271013144" lon="-3.4114309028"><ele>1547.38</ele><time>2015-01-24T12:39:38Z</time></trkpt><trkpt lat="37.3271462414" lon="-3.4114692081"><ele>1547.38</ele><time>2015-01-24T12:39:53Z</time></trkpt><trkpt lat="37.3272146378" lon="-3.4115298092"><ele>1547.38</ele><time>2015-01-24T12:40:07Z</time></trkpt><trkpt lat="37.3272912484" lon="-3.4115969483"><ele>1547.38</ele><time>2015-01-24T12:40:20Z</time></trkpt><trkpt lat="37.3273711279" lon="-3.4116507601"><ele>1547.38</ele><time>2015-01-24T12:40:33Z</time></trkpt><trkpt lat="37.3274379317" lon="-3.4117246885"><ele>1547.38</ele><time>2015-01-24T12:40:46Z</time></trkpt><trkpt lat="37.3274686933" lon="-3.4117533546"><ele>1547.38</ele><time>2015-01-24T12:40:51Z</time></trkpt><trkpt lat="37.3275129497" lon="-3.4117739741"><ele>1547.38</ele><time>2015-01-24T12:41:00Z</time></trkpt><trkpt lat="37.3275424540" lon="-3.4117958508"><ele>1547.38</ele><time>2015-01-24T12:41:21Z</time></trkpt><trkpt lat="37.3275981937" lon="-3.4118339047"><ele>1547.38</ele><time>2015-01-24T12:41:33Z</time></trkpt><trkpt lat="37.3276900593" lon="-3.4119103476"><ele>1547.38</ele><time>2015-01-24T12:41:47Z</time></trkpt><trkpt lat="37.3277759738" lon="-3.4119722899"><ele>1547.38</ele><time>2015-01-24T12:42:02Z</time></trkpt><trkpt lat="37.3278602958" lon="-3.4120592102"><ele>1547.38</ele><time>2015-01-24T12:42:15Z</time></trkpt><trkpt lat="37.3278866988" lon="-3.4121084120"><ele>1547.38</ele><time>2015-01-24T12:42:27Z</time></trkpt><trkpt lat="37.3279311229" lon="-3.4121692646"><ele>1547.38</ele><time>2015-01-24T12:42:38Z</time></trkpt><trkpt lat="37.3279781453" lon="-3.4122151975"><ele>1547.38</ele><time>2015-01-24T12:42:51Z</time></trkpt><trkpt lat="37.3280356452" lon="-3.4122783970"><ele>1547.38</ele><time>2015-01-24T12:43:03Z</time></trkpt><trkpt lat="37.3280591145" lon="-3.4123393334"><ele>1547.38</ele><time>2015-01-24T12:43:14Z</time></trkpt><trkpt lat="37.3280730285" lon="-3.4123738669"><ele>1546.90</ele><time>2015-01-24T12:43:30Z</time></trkpt><trkpt lat="37.3280806560" lon="-3.4124339651"><ele>1546.90</ele><time>2015-01-24T12:43:41Z</time></trkpt><trkpt lat="37.3280809075" lon="-3.4124964941"><ele>1546.90</ele><time>2015-01-24T12:43:50Z</time></trkpt><trkpt lat="37.3280792311" lon="-3.4125243220"><ele>1547.38</ele><time>2015-01-24T12:43:53Z</time></trkpt><trkpt lat="37.3280773871" lon="-3.4126290958"><ele>1547.86</ele><time>2015-01-24T12:44:05Z</time></trkpt><trkpt lat="37.3280742019" lon="-3.4127111547"><ele>1548.34</ele><time>2015-01-24T12:44:16Z</time></trkpt><trkpt lat="37.3280789796" lon="-3.4127782937"><ele>1548.82</ele><time>2015-01-24T12:44:26Z</time></trkpt><trkpt lat="37.3280787282" lon="-3.4128368832"><ele>1549.30</ele><time>2015-01-24T12:44:37Z</time></trkpt><trkpt lat="37.3280877806" lon="-3.4128947183"><ele>1549.30</ele><time>2015-01-24T12:44:51Z</time></trkpt><trkpt lat="37.3280816618" lon="-3.4129502904"><ele>1550.26</ele><time>2015-01-24T12:45:05Z</time></trkpt><trkpt lat="37.3280648142" lon="-3.4129981510"><ele>1550.26</ele><time>2015-01-24T12:45:16Z</time></trkpt><trkpt lat="37.3280558456" lon="-3.4129906073"><ele>1550.26</ele><time>2015-01-24T12:45:26Z</time></trkpt><trkpt lat="37.3280585278" lon="-3.4130144957"><ele>1550.26</ele><time>2015-01-24T12:45:46Z</time></trkpt><trkpt lat="37.3280521575" lon="-3.4130404796"><ele>1550.26</ele><time>2015-01-24T12:45:58Z</time></trkpt><trkpt lat="37.3280357290" lon="-3.4130631108"><ele>1550.26</ele><time>2015-01-24T12:46:10Z</time></trkpt><trkpt lat="37.3280306160" lon="-3.4130889270"><ele>1550.74</ele><time>2015-01-24T12:46:24Z</time></trkpt><trkpt lat="37.3280388303" lon="-3.4130838979"><ele>1550.74</ele><time>2015-01-24T12:46:41Z</time></trkpt><trkpt lat="37.3280446976" lon="-3.4130727500"><ele>1550.74</ele><time>2015-01-24T12:46:54Z</time></trkpt><trkpt lat="37.3280437756" lon="-3.4130756836"><ele>1550.74</ele><time>2015-01-24T12:47:12Z</time></trkpt><trkpt lat="37.3280454520" lon="-3.4130762704"><ele>1550.74</ele><time>2015-01-24T12:47:33Z</time></trkpt><trkpt lat="37.3280422669" lon="-3.4130785335"><ele>1550.26</ele><time>2015-01-24T12:47:51Z</time></trkpt><trkpt lat="37.3280430213" lon="-3.4130766895"><ele>1550.26</ele><time>2015-01-24T12:48:07Z</time></trkpt><trkpt lat="37.3280435242" lon="-3.4130744264"><ele>1550.74</ele><time>2015-01-24T12:48:36Z</time></trkpt><trkpt lat="37.3280330468" lon="-3.4130864963"><ele>1550.74</ele><time>2015-01-24T12:49:04Z</time></trkpt><trkpt lat="37.3280041292" lon="-3.4131056909"><ele>1550.74</ele><time>2015-01-24T12:49:13Z</time></trkpt><trkpt lat="37.3279390018" lon="-3.4131710697"><ele>1550.74</ele><time>2015-01-24T12:49:27Z</time></trkpt><trkpt lat="37.3278556857" lon="-3.4132384602"><ele>1551.22</ele><time>2015-01-24T12:49:44Z</time></trkpt><trkpt lat="37.3277836852" lon="-3.4132996481"><ele>1552.19</ele><time>2015-01-24T12:49:59Z</time></trkpt><trkpt lat="37.3277181387" lon="-3.4133542143"><ele>1552.19</ele><time>2015-01-24T12:50:13Z</time></trkpt><trkpt lat="37.3276369181" lon="-3.4134062659"><ele>1552.67</ele><time>2015-01-24T12:50:29Z</time></trkpt><trkpt lat="37.3275579605" lon="-3.4134404641"><ele>1553.15</ele><time>2015-01-24T12:50:43Z</time></trkpt><trkpt lat="37.3275023885" lon="-3.4134689625"><ele>1553.63</ele><time>2015-01-24T12:50:59Z</time></trkpt><trkpt lat="37.3274497502" lon="-3.4135065973"><ele>1554.11</ele><time>2015-01-24T12:51:08Z</time></trkpt><trkpt lat="37.3273580521" lon="-3.4135506861"><ele>1554.59</ele><time>2015-01-24T12:51:22Z</time></trkpt><trkpt lat="37.3273038212" lon="-3.4135630075"><ele>1555.07</ele><time>2015-01-24T12:51:36Z</time></trkpt><trkpt lat="37.3272440583" lon="-3.4135825373"><ele>1555.55</ele><time>2015-01-24T12:51:48Z</time></trkpt><trkpt lat="37.3272068426" lon="-3.4136075154"><ele>1555.55</ele><time>2015-01-24T12:51:57Z</time></trkpt><trkpt lat="37.3271436431" lon="-3.4136278834"><ele>1555.07</ele><time>2015-01-24T12:52:08Z</time></trkpt><trkpt lat="37.3271169886" lon="-3.4136644285"><ele>1556.03</ele><time>2015-01-24T12:52:25Z</time></trkpt><trkpt lat="37.3270575609" lon="-3.4137054998"><ele>1556.03</ele><time>2015-01-24T12:52:33Z</time></trkpt><trkpt lat="37.3270204291" lon="-3.4137822781"><ele>1556.51</ele><time>2015-01-24T12:52:42Z</time></trkpt><trkpt lat="37.3269863147" lon="-3.4138486627"><ele>1556.51</ele><time>2015-01-24T12:52:53Z</time></trkpt><trkpt lat="37.3269718140" lon="-3.4139259439"><ele>1556.99</ele><time>2015-01-24T12:53:05Z</time></trkpt><trkpt lat="37.3269739095" lon="-3.4139412828"><ele>1556.99</ele><time>2015-01-24T12:53:08Z</time></trkpt><trkpt lat="37.3269888293" lon="-3.4139723796"><ele>1556.99</ele><time>2015-01-24T12:53:11Z</time></trkpt><trkpt lat="37.3269929364" lon="-3.4140640777"><ele>1557.47</ele><time>2015-01-24T12:53:22Z</time></trkpt><trkpt lat="37.3270142265" lon="-3.4141710307"><ele>1557.95</ele><time>2015-01-24T12:53:34Z</time></trkpt><trkpt lat="37.3270594887" lon="-3.4142173827"><ele>1557.95</ele><time>2015-01-24T12:53:45Z</time></trkpt><trkpt lat="37.3270865623" lon="-3.4142321348"><ele>1557.95</ele><time>2015-01-24T12:53:55Z</time></trkpt><trkpt lat="37.3271184135" lon="-3.4142526705"><ele>1557.95</ele><time>2015-01-24T12:54:08Z</time></trkpt><trkpt lat="37.3270936031" lon="-3.4142569453"><ele>1558.43</ele><time>2015-01-24T12:54:16Z</time></trkpt><trkpt lat="37.3271060921" lon="-3.4142574482"><ele>1558.43</ele><time>2015-01-24T12:54:29Z</time></trkpt><trkpt lat="37.3271695431" lon="-3.4143140260"><ele>1558.43</ele><time>2015-01-24T12:54:43Z</time></trkpt><trkpt lat="37.3272017296" lon="-3.4143626411"><ele>1558.43</ele><time>2015-01-24T12:54:58Z</time></trkpt><trkpt lat="37.3272352573" lon="-3.4144136030"><ele>1558.92</ele><time>2015-01-24T12:55:08Z</time></trkpt><trkpt lat="37.3272988759" lon="-3.4144991823"><ele>1558.92</ele><time>2015-01-24T12:55:20Z</time></trkpt><trkpt lat="37.3273409531" lon="-3.4145648126"><ele>1558.92</ele><time>2015-01-24T12:55:32Z</time></trkpt><trkpt lat="37.3273673560" lon="-3.4146130085"><ele>1558.92</ele><time>2015-01-24T12:55:44Z</time></trkpt><trkpt lat="37.3273931723" lon="-3.4147296846"><ele>1558.92</ele><time>2015-01-24T12:55:57Z</time></trkpt><trkpt lat="37.3274044879" lon="-3.4148316924"><ele>1558.92</ele><time>2015-01-24T12:56:10Z</time></trkpt><trkpt lat="37.3273992911" lon="-3.4149482846"><ele>1559.40</ele><time>2015-01-24T12:56:24Z</time></trkpt><trkpt lat="37.3273819406" lon="-3.4150393121"><ele>1559.40</ele><time>2015-01-24T12:56:36Z</time></trkpt><trkpt lat="37.3273546994" lon="-3.4151383024"><ele>1559.88</ele><time>2015-01-24T12:56:51Z</time></trkpt><trkpt lat="37.3273562919" lon="-3.4151541442"><ele>1559.88</ele><time>2015-01-24T12:57:08Z</time></trkpt><trkpt lat="37.3273268715" lon="-3.4152400587"><ele>1560.36</ele><time>2015-01-24T12:57:22Z</time></trkpt><trkpt lat="37.3273229320" lon="-3.4153405577"><ele>1560.84</ele><time>2015-01-24T12:57:36Z</time></trkpt><trkpt lat="37.3273277935" lon="-3.4154146537"><ele>1560.84</ele><time>2015-01-24T12:57:50Z</time></trkpt><trkpt lat="37.3273426294" lon="-3.4155504405"><ele>1560.84</ele><time>2015-01-24T12:58:05Z</time></trkpt><trkpt lat="37.3273525201" lon="-3.4156482574"><ele>1560.84</ele><time>2015-01-24T12:58:18Z</time></trkpt><trkpt lat="37.3273501731" lon="-3.4157563001"><ele>1561.32</ele><time>2015-01-24T12:58:32Z</time></trkpt><trkpt lat="37.3273622431" lon="-3.4158002213"><ele>1561.80</ele><time>2015-01-24T12:58:46Z</time></trkpt><trkpt lat="37.3273535259" lon="-3.4158625826"><ele>1561.80</ele><time>2015-01-24T12:58:56Z</time></trkpt><trkpt lat="37.3273204174" lon="-3.4159484133"><ele>1561.80</ele><time>2015-01-24T12:59:05Z</time></trkpt><trkpt lat="37.3273244407" lon="-3.4160174802"><ele>1561.80</ele><time>2015-01-24T12:59:15Z</time></trkpt><trkpt lat="37.3273329064" lon="-3.4161623195"><ele>1562.28</ele><time>2015-01-24T12:59:30Z</time></trkpt><trkpt lat="37.3274327349" lon="-3.4162446298"><ele>1562.76</ele><time>2015-01-24T12:59:48Z</time></trkpt><trkpt lat="37.3275138717" lon="-3.4163540136"><ele>1562.76</ele><time>2015-01-24T13:00:11Z</time></trkpt><trkpt lat="37.3275082558" lon="-3.4163533431"><ele>1563.24</ele><time>2015-01-24T13:00:35Z</time></trkpt><trkpt lat="37.3275536019" lon="-3.4163561929"><ele>1562.76</ele><time>2015-01-24T13:00:52Z</time></trkpt><trkpt lat="37.3275391851" lon="-3.4163582884"><ele>1562.76</ele><time>2015-01-24T13:01:13Z</time></trkpt><trkpt lat="37.3275463097" lon="-3.4163194802"><ele>1562.76</ele><time>2015-01-24T13:01:34Z</time></trkpt><trkpt lat="37.3275277857" lon="-3.4163379204"><ele>1562.28</ele><time>2015-01-24T13:01:47Z</time></trkpt><trkpt lat="37.3275378440" lon="-3.4163371660"><ele>1563.24</ele><time>2015-01-24T13:02:04Z</time></trkpt><trkpt lat="37.3275429569" lon="-3.4163246769"><ele>1562.76</ele><time>2015-01-24T13:02:15Z</time></trkpt><trkpt lat="37.3275614809" lon="-3.4163566120"><ele>1561.80</ele><time>2015-01-24T13:02:33Z</time></trkpt><trkpt lat="37.3275641631" lon="-3.4164286125"><ele>1561.80</ele><time>2015-01-24T13:02:45Z</time></trkpt><trkpt lat="37.3275765684" lon="-3.4165087435"><ele>1561.80</ele><time>2015-01-24T13:03:01Z</time></trkpt><trkpt lat="37.3275836930" lon="-3.4165466297"><ele>1561.80</ele><time>2015-01-24T13:03:08Z</time></trkpt><trkpt lat="37.3275878839" lon="-3.4166208934"><ele>1562.76</ele><time>2015-01-24T13:03:19Z</time></trkpt><trkpt lat="37.3276067432" lon="-3.4167286009"><ele>1563.24</ele><time>2015-01-24T13:03:34Z</time></trkpt><trkpt lat="37.3275855370" lon="-3.4168270882"><ele>1563.72</ele><time>2015-01-24T13:03:48Z</time></trkpt><trkpt lat="37.3275451362" lon="-3.4169244021"><ele>1563.72</ele><time>2015-01-24T13:03:58Z</time></trkpt><trkpt lat="37.3275383469" lon="-3.4170097299"><ele>1564.20</ele><time>2015-01-24T13:04:09Z</time></trkpt><trkpt lat="37.3275288753" lon="-3.4170661401"><ele>1564.20</ele><time>2015-01-24T13:04:20Z</time></trkpt><trkpt lat="37.3275246844" lon="-3.4171605203"><ele>1564.20</ele><time>2015-01-24T13:04:34Z</time></trkpt><trkpt lat="37.3275271151" lon="-3.4172648750"><ele>1564.68</ele><time>2015-01-24T13:04:46Z</time></trkpt><trkpt lat="37.3275299650" lon="-3.4173170105"><ele>1564.68</ele><time>2015-01-24T13:04:56Z</time></trkpt><trkpt lat="37.3275301326" lon="-3.4173457604"><ele>1565.16</ele><time>2015-01-24T13:05:00Z</time></trkpt><trkpt lat="37.3275320604" lon="-3.4173878375"><ele>1565.64</ele><time>2015-01-24T13:05:15Z</time></trkpt><trkpt lat="37.3275674321" lon="-3.4174325969"><ele>1565.64</ele><time>2015-01-24T13:05:26Z</time></trkpt><trkpt lat="37.3276167177" lon="-3.4175159968"><ele>1566.12</ele><time>2015-01-24T13:05:38Z</time></trkpt><trkpt lat="37.3276620638" lon="-3.4176051803"><ele>1566.61</ele><time>2015-01-24T13:05:51Z</time></trkpt><trkpt lat="37.3276891373" lon="-3.4176927712"><ele>1567.09</ele><time>2015-01-24T13:06:03Z</time></trkpt><trkpt lat="37.3277305439" lon="-3.4177500196"><ele>1567.09</ele><time>2015-01-24T13:06:21Z</time></trkpt><trkpt lat="37.3277573660" lon="-3.4178043343"><ele>1567.09</ele><time>2015-01-24T13:06:33Z</time></trkpt><trkpt lat="37.3277758062" lon="-3.4178229421"><ele>1567.57</ele><time>2015-01-24T13:06:51Z</time></trkpt><trkpt lat="37.3277861997" lon="-3.4178296477"><ele>1567.57</ele><time>2015-01-24T13:07:07Z</time></trkpt><trkpt lat="37.3278291151" lon="-3.4178690426"><ele>1566.12</ele><time>2015-01-24T13:07:15Z</time></trkpt><trkpt lat="37.3278866988" lon="-3.4178771731"><ele>1567.57</ele><time>2015-01-24T13:07:30Z</time></trkpt><trkpt lat="37.3279040493" lon="-3.4178583138"><ele>1567.57</ele><time>2015-01-24T13:07:42Z</time></trkpt><trkpt lat="37.3279250879" lon="-3.4178513568"><ele>1567.57</ele><time>2015-01-24T13:07:51Z</time></trkpt><trkpt lat="37.3280005250" lon="-3.4178054240"><ele>1567.57</ele><time>2015-01-24T13:08:03Z</time></trkpt><trkpt lat="37.3280075658" lon="-3.4178040829"><ele>1567.57</ele><time>2015-01-24T13:08:05Z</time></trkpt><trkpt lat="37.3280197196" lon="-3.4178051725"><ele>1567.57</ele><time>2015-01-24T13:08:07Z</time></trkpt><trkpt lat="37.3280933127" lon="-3.4177331720"><ele>1568.53</ele><time>2015-01-24T13:08:19Z</time></trkpt><trkpt lat="37.3281125911" lon="-3.4177147318"><ele>1568.53</ele><time>2015-01-24T13:08:22Z</time></trkpt><trkpt lat="37.3281392455" lon="-3.4176746663"><ele>1568.53</ele><time>2015-01-24T13:08:27Z</time></trkpt><trkpt lat="37.3281651456" lon="-3.4176534601"><ele>1568.53</ele><time>2015-01-24T13:08:31Z</time></trkpt><trkpt lat="37.3281765450" lon="-3.4176351875"><ele>1568.53</ele><time>2015-01-24T13:08:39Z</time></trkpt><trkpt lat="37.3281648103" lon="-3.4176444076"><ele>1568.53</ele><time>2015-01-24T13:09:04Z</time></trkpt><trkpt lat="37.3281960748" lon="-3.4176108800"><ele>1567.57</ele><time>2015-01-24T13:09:19Z</time></trkpt><trkpt lat="37.3281932250" lon="-3.4176108800"><ele>1567.57</ele><time>2015-01-24T13:09:20Z</time></trkpt><trkpt lat="37.3281915486" lon="-3.4176033363"><ele>1567.57</ele><time>2015-01-24T13:09:34Z</time></trkpt><trkpt lat="37.3281562608" lon="-3.4176149033"><ele>1568.53</ele><time>2015-01-24T13:09:59Z</time></trkpt><trkpt lat="37.3282133415" lon="-3.4176346846"><ele>1567.57</ele><time>2015-01-24T13:10:14Z</time></trkpt><trkpt lat="37.3282270040" lon="-3.4175986424"><ele>1567.09</ele><time>2015-01-24T13:10:27Z</time></trkpt><trkpt lat="37.3282508925" lon="-3.4175476804"><ele>1567.09</ele><time>2015-01-24T13:10:43Z</time></trkpt><trkpt lat="37.3283225577" lon="-3.4174570721"><ele>1568.53</ele><time>2015-01-24T13:10:59Z</time></trkpt><trkpt lat="37.3283883557" lon="-3.4173686430"><ele>1568.53</ele><time>2015-01-24T13:11:13Z</time></trkpt><trkpt lat="37.3284306843" lon="-3.4173487779"><ele>1569.49</ele><time>2015-01-24T13:11:24Z</time></trkpt><trkpt lat="37.3284913693" lon="-3.4172637016"><ele>1569.49</ele><time>2015-01-24T13:11:39Z</time></trkpt><trkpt lat="37.3285360448" lon="-3.4171283338"><ele>1570.45</ele><time>2015-01-24T13:11:56Z</time></trkpt><trkpt lat="37.3285920359" lon="-3.4170077182"><ele>1570.93</ele><time>2015-01-24T13:12:13Z</time></trkpt><trkpt lat="37.3286670540" lon="-3.4168444388"><ele>1571.89</ele><time>2015-01-24T13:12:29Z</time></trkpt><trkpt lat="37.3286758550" lon="-3.4168140963"><ele>1572.37</ele><time>2015-01-24T13:12:31Z</time></trkpt><trkpt lat="37.3287367914" lon="-3.4166796505"><ele>1572.85</ele><time>2015-01-24T13:12:44Z</time></trkpt><trkpt lat="37.3287776113" lon="-3.4165977594"><ele>1572.85</ele><time>2015-01-24T13:12:56Z</time></trkpt><trkpt lat="37.3288079537" lon="-3.4165654890"><ele>1572.85</ele><time>2015-01-24T13:13:09Z</time></trkpt><trkpt lat="37.3288161680" lon="-3.4165648185"><ele>1572.85</ele><time>2015-01-24T13:13:27Z</time></trkpt><trkpt lat="37.3288191855" lon="-3.4165314585"><ele>1572.85</ele><time>2015-01-24T13:13:39Z</time></trkpt><trkpt lat="37.3288652021" lon="-3.4165049717"><ele>1572.85</ele><time>2015-01-24T13:13:53Z</time></trkpt><trkpt lat="37.3289119732" lon="-3.4164719470"><ele>1572.85</ele><time>2015-01-24T13:14:03Z</time></trkpt><trkpt lat="37.3289284855" lon="-3.4164488129"><ele>1572.85</ele><time>2015-01-24T13:14:12Z</time></trkpt><trkpt lat="37.3289649468" lon="-3.4164189734"><ele>1573.33</ele><time>2015-01-24T13:14:30Z</time></trkpt><trkpt lat="37.3289786931" lon="-3.4164079931"><ele>1571.89</ele><time>2015-01-24T13:14:32Z</time></trkpt><trkpt lat="37.3290814552" lon="-3.4163302928"><ele>1572.85</ele><time>2015-01-24T13:14:45Z</time></trkpt><trkpt lat="37.3291674536" lon="-3.4162659198"><ele>1573.82</ele><time>2015-01-24T13:14:58Z</time></trkpt><trkpt lat="37.3292570561" lon="-3.4161907341"><ele>1575.26</ele><time>2015-01-24T13:15:11Z</time></trkpt><trkpt lat="37.3293143883" lon="-3.4161540214"><ele>1575.74</ele><time>2015-01-24T13:15:23Z</time></trkpt><trkpt lat="37.3293236922" lon="-3.4161445498"><ele>1575.74</ele><time>2015-01-24T13:15:25Z</time></trkpt><trkpt lat="37.3293772526" lon="-3.4160763212"><ele>1576.22</ele><time>2015-01-24T13:15:36Z</time></trkpt><trkpt lat="37.3294267897" lon="-3.4160057455"><ele>1576.22</ele><time>2015-01-24T13:15:48Z</time></trkpt><trkpt lat="37.3294311482" lon="-3.4160168935"><ele>1576.70</ele><time>2015-01-24T13:16:00Z</time></trkpt><trkpt lat="37.3294439726" lon="-3.4160026442"><ele>1576.70</ele><time>2015-01-24T13:16:15Z</time></trkpt><trkpt lat="37.3294205870" lon="-3.4160017222"><ele>1576.70</ele><time>2015-01-24T13:16:34Z</time></trkpt><trkpt lat="37.3294784222" lon="-3.4159370139"><ele>1577.18</ele><time>2015-01-24T13:16:51Z</time></trkpt><trkpt lat="37.3295486625" lon="-3.4158437233"><ele>1577.66</ele><time>2015-01-24T13:17:06Z</time></trkpt><trkpt lat="37.3296017200" lon="-3.4157664422"><ele>1578.14</ele><time>2015-01-24T13:17:18Z</time></trkpt><trkpt lat="37.3296366725" lon="-3.4157031588"><ele>1578.14</ele><time>2015-01-24T13:17:32Z</time></trkpt><trkpt lat="37.3296779953" lon="-3.4156292304"><ele>1578.62</ele><time>2015-01-24T13:17:45Z</time></trkpt><trkpt lat="37.3297334835" lon="-3.4155545477"><ele>1579.10</ele><time>2015-01-24T13:17:56Z</time></trkpt><trkpt lat="37.3297582939" lon="-3.4154911805"><ele>1580.06</ele><time>2015-01-24T13:18:06Z</time></trkpt><trkpt lat="37.3297660891" lon="-3.4154328424"><ele>1580.06</ele><time>2015-01-24T13:18:12Z</time></trkpt><trkpt lat="37.3298462201" lon="-3.4153268952"><ele>1580.54</ele><time>2015-01-24T13:18:26Z</time></trkpt><trkpt lat="37.3298603017" lon="-3.4153161664"><ele>1581.03</ele><time>2015-01-24T13:18:28Z</time></trkpt><trkpt lat="37.3299537599" lon="-3.4152999893"><ele>1581.51</ele><time>2015-01-24T13:18:41Z</time></trkpt><trkpt lat="37.3300017044" lon="-3.4153439943"><ele>1582.47</ele><time>2015-01-24T13:18:58Z</time></trkpt><trkpt lat="37.3300393391" lon="-3.4154105466"><ele>1582.95</ele><time>2015-01-24T13:19:09Z</time></trkpt><trkpt lat="37.3300498165" lon="-3.4154907614"><ele>1583.43</ele><time>2015-01-24T13:19:19Z</time></trkpt><trkpt lat="37.3300332204" lon="-3.4156239498"><ele>1583.91</ele><time>2015-01-24T13:19:31Z</time></trkpt><trkpt lat="37.3299921490" lon="-3.4157132171"><ele>1583.91</ele><time>2015-01-24T13:19:42Z</time></trkpt><trkpt lat="37.3299675062" lon="-3.4158024844"><ele>1584.39</ele><time>2015-01-24T13:19:55Z</time></trkpt><trkpt lat="37.3299277760" lon="-3.4158555418"><ele>1584.87</ele><time>2015-01-24T13:20:07Z</time></trkpt><trkpt lat="37.3299309611" lon="-3.4158851299"><ele>1584.87</ele><time>2015-01-24T13:20:20Z</time></trkpt><trkpt lat="37.3299305420" lon="-3.4158631694"><ele>1584.87</ele><time>2015-01-24T13:20:29Z</time></trkpt><trkpt lat="37.3299189750" lon="-3.4158749040"><ele>1584.87</ele><time>2015-01-24T13:20:31Z</time></trkpt><trkpt lat="37.3299120180" lon="-3.4159873053"><ele>1584.87</ele><time>2015-01-24T13:20:41Z</time></trkpt><trkpt lat="37.3298749700" lon="-3.4160911571"><ele>1585.35</ele><time>2015-01-24T13:20:53Z</time></trkpt><trkpt lat="37.3298705276" lon="-3.4161234275"><ele>1585.35</ele><time>2015-01-24T13:20:57Z</time></trkpt><trkpt lat="37.3298148718" lon="-3.4161978588"><ele>1585.83</ele><time>2015-01-24T13:21:09Z</time></trkpt><trkpt lat="37.3298038077" lon="-3.4162671771"><ele>1585.83</ele><time>2015-01-24T13:21:25Z</time></trkpt><trkpt lat="37.3297691904" lon="-3.4163200669"><ele>1585.83</ele><time>2015-01-24T13:21:37Z</time></trkpt><trkpt lat="37.3297810089" lon="-3.4163313825"><ele>1585.83</ele><time>2015-01-24T13:21:53Z</time></trkpt><trkpt lat="37.3297563661" lon="-3.4163602162"><ele>1585.83</ele><time>2015-01-24T13:22:01Z</time></trkpt><trkpt lat="37.3297383450" lon="-3.4164271038"><ele>1585.83</ele><time>2015-01-24T13:22:10Z</time></trkpt><trkpt lat="37.3297066614" lon="-3.4164972603"><ele>1585.83</ele><time>2015-01-24T13:22:21Z</time></trkpt><trkpt lat="37.3296736367" lon="-3.4166287724"><ele>1586.79</ele><time>2015-01-24T13:22:35Z</time></trkpt><trkpt lat="37.3296576273" lon="-3.4166990127"><ele>1587.27</ele><time>2015-01-24T13:22:49Z</time></trkpt><trkpt lat="37.3296531849" lon="-3.4167732764"><ele>1587.27</ele><time>2015-01-24T13:23:01Z</time></trkpt><trkpt lat="37.3296132870" lon="-3.4169205464"><ele>1587.75</ele><time>2015-01-24T13:23:14Z</time></trkpt><trkpt lat="37.3296038993" lon="-3.4169454407"><ele>1587.75</ele><time>2015-01-24T13:23:16Z</time></trkpt><trkpt lat="37.3295830283" lon="-3.4169855900"><ele>1588.24</ele><time>2015-01-24T13:23:20Z</time></trkpt><trkpt lat="37.3295605648" lon="-3.4170502983"><ele>1588.24</ele><time>2015-01-24T13:23:26Z</time></trkpt><trkpt lat="37.3295423761" lon="-3.4170848317"><ele>1588.24</ele><time>2015-01-24T13:23:29Z</time></trkpt><trkpt lat="37.3295039870" lon="-3.4172130749"><ele>1588.72</ele><time>2015-01-24T13:23:41Z</time></trkpt><trkpt lat="37.3294515163" lon="-3.4173094667"><ele>1588.72</ele><time>2015-01-24T13:23:53Z</time></trkpt><trkpt lat="37.3294235207" lon="-3.4173682239"><ele>1589.20</ele><time>2015-01-24T13:24:00Z</time></trkpt><trkpt lat="37.3294089362" lon="-3.4174330160"><ele>1589.20</ele><time>2015-01-24T13:24:11Z</time></trkpt><trkpt lat="37.3293999676" lon="-3.4174574912"><ele>1589.20</ele><time>2015-01-24T13:24:14Z</time></trkpt><trkpt lat="37.3293872271" lon="-3.4175434057"><ele>1590.16</ele><time>2015-01-24T13:24:25Z</time></trkpt><trkpt lat="37.3293912504" lon="-3.4175766818"><ele>1590.16</ele><time>2015-01-24T13:24:39Z</time></trkpt><trkpt lat="37.3293925077" lon="-3.4175916854"><ele>1590.16</ele><time>2015-01-24T13:24:51Z</time></trkpt><trkpt lat="37.3293790128" lon="-3.4175953735"><ele>1590.16</ele><time>2015-01-24T13:25:22Z</time></trkpt><trkpt lat="37.3293866403" lon="-3.4176009055"><ele>1590.64</ele><time>2015-01-24T13:25:48Z</time></trkpt><trkpt lat="37.3293812759" lon="-3.4175921883"><ele>1590.64</ele><time>2015-01-24T13:26:13Z</time></trkpt><trkpt lat="37.3293656018" lon="-3.4175905958"><ele>1590.64</ele><time>2015-01-24T13:26:40Z</time></trkpt><trkpt lat="37.3293775041" lon="-3.4175966308"><ele>1590.64</ele><time>2015-01-24T13:27:08Z</time></trkpt><trkpt lat="37.3293838743" lon="-3.4176034201"><ele>1590.64</ele><time>2015-01-24T13:27:27Z</time></trkpt><trkpt lat="37.3293831199" lon="-3.4176167473"><ele>1591.12</ele><time>2015-01-24T13:28:03Z</time></trkpt><trkpt lat="37.3293822818" lon="-3.4176124725"><ele>1591.12</ele><time>2015-01-24T13:28:29Z</time></trkpt><trkpt lat="37.3293813597" lon="-3.4176287334"><ele>1591.12</ele><time>2015-01-24T13:28:49Z</time></trkpt><trkpt lat="37.3293881491" lon="-3.4176732413"><ele>1591.12</ele><time>2015-01-24T13:29:04Z</time></trkpt><trkpt lat="37.3294030689" lon="-3.4177599102"><ele>1591.12</ele><time>2015-01-24T13:29:15Z</time></trkpt><trkpt lat="37.3294201680" lon="-3.4178537037"><ele>1591.60</ele><time>2015-01-24T13:29:26Z</time></trkpt><trkpt lat="37.3294173181" lon="-3.4179752413"><ele>1591.60</ele><time>2015-01-24T13:29:39Z</time></trkpt><trkpt lat="37.3294230178" lon="-3.4180747345"><ele>1592.08</ele><time>2015-01-24T13:29:51Z</time></trkpt><trkpt lat="37.3294402007" lon="-3.4182064980"><ele>1592.08</ele><time>2015-01-24T13:30:05Z</time></trkpt><trkpt lat="37.3294878099" lon="-3.4182833601"><ele>1592.56</ele><time>2015-01-24T13:30:18Z</time></trkpt><trkpt lat="37.3295496684" lon="-3.4182869643"><ele>1592.56</ele><time>2015-01-24T13:30:31Z</time></trkpt><trkpt lat="37.3296189867" lon="-3.4182907362"><ele>1593.04</ele><time>2015-01-24T13:30:43Z</time></trkpt><trkpt lat="37.3296075035" lon="-3.4182938375"><ele>1593.04</ele><time>2015-01-24T13:31:06Z</time></trkpt><trkpt lat="37.3295609839" lon="-3.4183078352"><ele>1593.04</ele><time>2015-01-24T13:31:21Z</time></trkpt><trkpt lat="37.3295319825" lon="-3.4182924964"><ele>1592.56</ele><time>2015-01-24T13:31:33Z</time></trkpt><trkpt lat="37.3294479121" lon="-3.4182538558"><ele>1592.56</ele><time>2015-01-24T13:31:48Z</time></trkpt><trkpt lat="37.3293909151" lon="-3.4182557836"><ele>1592.56</ele><time>2015-01-24T13:32:03Z</time></trkpt><trkpt lat="37.3293532804" lon="-3.4183058236"><ele>1593.52</ele><time>2015-01-24T13:32:19Z</time></trkpt><trkpt lat="37.3292749934" lon="-3.4183042310"><ele>1594.96</ele><time>2015-01-24T13:32:36Z</time></trkpt><trkpt lat="37.3292350117" lon="-3.4182977770"><ele>1595.93</ele><time>2015-01-24T13:32:54Z</time></trkpt><trkpt lat="37.3291972093" lon="-3.4182993695"><ele>1596.41</ele><time>2015-01-24T13:33:10Z</time></trkpt><trkpt lat="37.3291871510" lon="-3.4182900656"><ele>1596.89</ele><time>2015-01-24T13:33:30Z</time></trkpt><trkpt lat="37.3291910067" lon="-3.4182995372"><ele>1596.89</ele><time>2015-01-24T13:33:47Z</time></trkpt><trkpt lat="37.3291832116" lon="-3.4183433745"><ele>1597.37</ele><time>2015-01-24T13:34:06Z</time></trkpt><trkpt lat="37.3291651905" lon="-3.4184338991"><ele>1597.37</ele><time>2015-01-24T13:34:21Z</time></trkpt><trkpt lat="37.3291160725" lon="-3.4184433706"><ele>1597.85</ele><time>2015-01-24T13:34:41Z</time></trkpt><trkpt lat="37.3290879093" lon="-3.4184499923"><ele>1598.33</ele><time>2015-01-24T13:34:59Z</time></trkpt><trkpt lat="37.3291313276" lon="-3.4184638225"><ele>1598.33</ele><time>2015-01-24T13:35:19Z</time></trkpt><trkpt lat="37.3291304894" lon="-3.4184654150"><ele>1598.81</ele><time>2015-01-24T13:35:54Z</time></trkpt><trkpt lat="37.3290889151" lon="-3.4184475616"><ele>1598.81</ele><time>2015-01-24T13:36:23Z</time></trkpt><trkpt lat="37.3290858138" lon="-3.4184518363"><ele>1597.37</ele><time>2015-01-24T13:36:31Z</time></trkpt><trkpt lat="37.3290729895" lon="-3.4184567817"><ele>1597.37</ele><time>2015-01-24T13:37:15Z</time></trkpt><trkpt lat="37.3291283101" lon="-3.4184198175"><ele>1597.37</ele><time>2015-01-24T13:37:47Z</time></trkpt><trkpt lat="37.3291784339" lon="-3.4183342382"><ele>1595.93</ele><time>2015-01-24T13:37:59Z</time></trkpt><trkpt lat="37.3291870672" lon="-3.4183121938"><ele>1595.45</ele><time>2015-01-24T13:38:15Z</time></trkpt><trkpt lat="37.3291977961" lon="-3.4183141217"><ele>1595.45</ele><time>2015-01-24T13:38:43Z</time></trkpt><trkpt lat="37.3291771766" lon="-3.4183047339"><ele>1594.96</ele><time>2015-01-24T13:39:13Z</time></trkpt><trkpt lat="37.3291926831" lon="-3.4183176421"><ele>1594.96</ele><time>2015-01-24T13:39:36Z</time></trkpt><trkpt lat="37.3291907553" lon="-3.4183103498"><ele>1594.96</ele><time>2015-01-24T13:39:59Z</time></trkpt><trkpt lat="37.3291972931" lon="-3.4183029737"><ele>1594.96</ele><time>2015-01-24T13:40:15Z</time></trkpt><trkpt lat="37.3292000592" lon="-3.4182707034"><ele>1594.96</ele><time>2015-01-24T13:40:29Z</time></trkpt><trkpt lat="37.3292169906" lon="-3.4182363376"><ele>1594.96</ele><time>2015-01-24T13:40:34Z</time></trkpt><trkpt lat="37.3292408790" lon="-3.4181768261"><ele>1594.48</ele><time>2015-01-24T13:40:44Z</time></trkpt><trkpt lat="37.3292776756" lon="-3.4180794284"><ele>1593.52</ele><time>2015-01-24T13:40:58Z</time></trkpt><trkpt lat="37.3292550445" lon="-3.4180144686"><ele>1593.04</ele><time>2015-01-24T13:41:07Z</time></trkpt><trkpt lat="37.3292518593" lon="-3.4179588966"><ele>1592.56</ele><time>2015-01-24T13:41:14Z</time></trkpt><trkpt lat="37.3292242829" lon="-3.4179008100"><ele>1591.60</ele><time>2015-01-24T13:41:27Z</time></trkpt><trkpt lat="37.3292262107" lon="-3.4178848844"><ele>1591.12</ele><time>2015-01-24T13:41:44Z</time></trkpt><trkpt lat="37.3292211816" lon="-3.4178754129"><ele>1590.16</ele><time>2015-01-24T13:42:02Z</time></trkpt><trkpt lat="37.3292178288" lon="-3.4178732336"><ele>1590.16</ele><time>2015-01-24T13:42:26Z</time></trkpt><trkpt lat="37.3292296473" lon="-3.4178805258"><ele>1590.16</ele><time>2015-01-24T13:42:46Z</time></trkpt><trkpt lat="37.3292213492" lon="-3.4178642649"><ele>1590.16</ele><time>2015-01-24T13:43:07Z</time></trkpt><trkpt lat="37.3292393703" lon="-3.4178829566"><ele>1590.16</ele><time>2015-01-24T13:43:27Z</time></trkpt><trkpt lat="37.3292129673" lon="-3.4178835433"><ele>1590.16</ele><time>2015-01-24T13:43:40Z</time></trkpt><trkpt lat="37.3292177450" lon="-3.4178769216"><ele>1590.16</ele><time>2015-01-24T13:43:56Z</time></trkpt><trkpt lat="37.3292195890" lon="-3.4178785980"><ele>1590.16</ele><time>2015-01-24T13:44:26Z</time></trkpt><trkpt lat="37.3292164039" lon="-3.4178853873"><ele>1590.16</ele><time>2015-01-24T13:44:39Z</time></trkpt><trkpt lat="37.3292350117" lon="-3.4178750776"><ele>1590.16</ele><time>2015-01-24T13:45:02Z</time></trkpt><trkpt lat="37.3292314075" lon="-3.4178873990"><ele>1591.12</ele><time>2015-01-24T13:45:19Z</time></trkpt><trkpt lat="37.3292064294" lon="-3.4179091919"><ele>1591.60</ele><time>2015-01-24T13:45:44Z</time></trkpt><trkpt lat="37.3292177450" lon="-3.4178843815"><ele>1591.60</ele><time>2015-01-24T13:46:08Z</time></trkpt><trkpt lat="37.3292345088" lon="-3.4178705513"><ele>1591.60</ele><time>2015-01-24T13:46:26Z</time></trkpt><trkpt lat="37.3292273842" lon="-3.4178910032"><ele>1590.16</ele><time>2015-01-24T13:46:48Z</time></trkpt><trkpt lat="37.3292029928" lon="-3.4178775921"><ele>1590.16</ele><time>2015-01-24T13:47:22Z</time></trkpt><trkpt lat="37.3292446509" lon="-3.4178731497"><ele>1590.64</ele><time>2015-01-24T13:47:46Z</time></trkpt><trkpt lat="37.3292395379" lon="-3.4178719763"><ele>1590.64</ele><time>2015-01-24T13:47:58Z</time></trkpt><trkpt lat="37.3292217683" lon="-3.4178542066"><ele>1590.64</ele><time>2015-01-24T13:48:21Z</time></trkpt><trkpt lat="37.3292253725" lon="-3.4178722277"><ele>1590.64</ele><time>2015-01-24T13:48:49Z</time></trkpt><trkpt lat="37.3292283900" lon="-3.4178699646"><ele>1590.64</ele><time>2015-01-24T13:49:08Z</time></trkpt><trkpt lat="37.3292292282" lon="-3.4178889077"><ele>1590.64</ele><time>2015-01-24T13:49:26Z</time></trkpt><trkpt lat="37.3292133864" lon="-3.4178733174"><ele>1590.64</ele><time>2015-01-24T13:49:42Z</time></trkpt><trkpt lat="37.3292133864" lon="-3.4178674500"><ele>1590.64</ele><time>2015-01-24T13:50:00Z</time></trkpt><trkpt lat="37.3292138893" lon="-3.4178900812"><ele>1590.64</ele><time>2015-01-24T13:50:10Z</time></trkpt><trkpt lat="37.3292114586" lon="-3.4179008938"><ele>1590.64</ele><time>2015-01-24T13:50:28Z</time></trkpt><trkpt lat="37.3292169906" lon="-3.4179414622"><ele>1591.60</ele><time>2015-01-24T13:50:46Z</time></trkpt><trkpt lat="37.3292221874" lon="-3.4179533646"><ele>1591.60</ele><time>2015-01-24T13:50:47Z</time></trkpt><trkpt lat="37.3292217683" lon="-3.4179959446"><ele>1592.56</ele><time>2015-01-24T13:50:56Z</time></trkpt><trkpt lat="37.3292240314" lon="-3.4180277120"><ele>1593.04</ele><time>2015-01-24T13:51:00Z</time></trkpt><trkpt lat="37.3291784339" lon="-3.4181197453"><ele>1593.52</ele><time>2015-01-24T13:51:10Z</time></trkpt><trkpt lat="37.3291790206" lon="-3.4181379341"><ele>1594.00</ele><time>2015-01-24T13:51:12Z</time></trkpt><trkpt lat="37.3291625921" lon="-3.4182574600"><ele>1594.96</ele><time>2015-01-24T13:51:23Z</time></trkpt><trkpt lat="37.3291625082" lon="-3.4182685241"><ele>1595.45</ele><time>2015-01-24T13:51:24Z</time></trkpt><trkpt lat="37.3291677050" lon="-3.4183495771"><ele>1596.41</ele><time>2015-01-24T13:51:33Z</time></trkpt><trkpt lat="37.3291361891" lon="-3.4184473939"><ele>1596.89</ele><time>2015-01-24T13:51:44Z</time></trkpt><trkpt lat="37.3291148152" lon="-3.4184688516"><ele>1597.37</ele><time>2015-01-24T13:51:49Z</time></trkpt><trkpt lat="37.3291071877" lon="-3.4185436182"><ele>1598.33</ele><time>2015-01-24T13:51:58Z</time></trkpt><trkpt lat="37.3290884122" lon="-3.4186515771"><ele>1598.81</ele><time>2015-01-24T13:52:10Z</time></trkpt><trkpt lat="37.3290582374" lon="-3.4187750425"><ele>1600.25</ele><time>2015-01-24T13:52:24Z</time></trkpt><trkpt lat="37.3290255480" lon="-3.4189083148"><ele>1601.21</ele><time>2015-01-24T13:52:37Z</time></trkpt><trkpt lat="37.3289984744" lon="-3.4189854283"><ele>1601.69</ele><time>2015-01-24T13:52:46Z</time></trkpt><trkpt lat="37.3289950378" lon="-3.4189934749"><ele>1601.69</ele><time>2015-01-24T13:52:47Z</time></trkpt><trkpt lat="37.3289639410" lon="-3.4190880228"><ele>1602.17</ele><time>2015-01-24T13:52:56Z</time></trkpt><trkpt lat="37.3289160803" lon="-3.4191972390"><ele>1602.66</ele><time>2015-01-24T13:53:06Z</time></trkpt><trkpt lat="37.3289028369" lon="-3.4192125779"><ele>1602.66</ele><time>2015-01-24T13:53:08Z</time></trkpt><trkpt lat="37.3288427386" lon="-3.4193361271"><ele>1603.62</ele><time>2015-01-24T13:53:22Z</time></trkpt><trkpt lat="37.3287813831" lon="-3.4194897674"><ele>1604.58</ele><time>2015-01-24T13:53:34Z</time></trkpt><trkpt lat="37.3287275713" lon="-3.4195971396"><ele>1605.06</ele><time>2015-01-24T13:53:45Z</time></trkpt><trkpt lat="37.3287005816" lon="-3.4196411446"><ele>1605.54</ele><time>2015-01-24T13:53:55Z</time></trkpt><trkpt lat="37.3286548164" lon="-3.4197742492"><ele>1605.54</ele><time>2015-01-24T13:54:07Z</time></trkpt><trkpt lat="37.3285988253" lon="-3.4198513627"><ele>1606.50</ele><time>2015-01-24T13:54:21Z</time></trkpt><trkpt lat="37.3285117373" lon="-3.4199481737"><ele>1607.46</ele><time>2015-01-24T13:54:38Z</time></trkpt><trkpt lat="37.3284290917" lon="-3.4200237785"><ele>1607.94</ele><time>2015-01-24T13:54:53Z</time></trkpt><trkpt lat="37.3283652216" lon="-3.4201070108"><ele>1608.90</ele><time>2015-01-24T13:55:08Z</time></trkpt><trkpt lat="37.3282916285" lon="-3.4201606549"><ele>1609.86</ele><time>2015-01-24T13:55:22Z</time></trkpt><trkpt lat="37.3282188736" lon="-3.4202198312"><ele>1610.35</ele><time>2015-01-24T13:55:36Z</time></trkpt><trkpt lat="37.3281270918" lon="-3.4203288797"><ele>1610.83</ele><time>2015-01-24T13:55:52Z</time></trkpt><trkpt lat="37.3280575220" lon="-3.4204229247"><ele>1611.31</ele><time>2015-01-24T13:56:08Z</time></trkpt><trkpt lat="37.3279915564" lon="-3.4205504972"><ele>1611.79</ele><time>2015-01-24T13:56:24Z</time></trkpt><trkpt lat="37.3279545922" lon="-3.4205977712"><ele>1612.27</ele><time>2015-01-24T13:56:38Z</time></trkpt><trkpt lat="37.3279295303" lon="-3.4206403513"><ele>1612.75</ele><time>2015-01-24T13:56:53Z</time></trkpt><trkpt lat="37.3278593738" lon="-3.4207393415"><ele>1613.23</ele><time>2015-01-24T13:57:05Z</time></trkpt><trkpt lat="37.3278136086" lon="-3.4207962546"><ele>1613.71</ele><time>2015-01-24T13:57:13Z</time></trkpt><trkpt lat="37.3277446255" lon="-3.4208983462"><ele>1614.19</ele><time>2015-01-24T13:57:26Z</time></trkpt><trkpt lat="37.3276666738" lon="-3.4209927265"><ele>1615.15</ele><time>2015-01-24T13:57:40Z</time></trkpt><trkpt lat="37.3276558612" lon="-3.4210028686"><ele>1615.15</ele><time>2015-01-24T13:57:42Z</time></trkpt><trkpt lat="37.3276187293" lon="-3.4210274275"><ele>1615.15</ele><time>2015-01-24T13:57:46Z</time></trkpt><trkpt lat="37.3275989480" lon="-3.4210401680"><ele>1615.63</ele><time>2015-01-24T13:57:49Z</time></trkpt><trkpt lat="37.3275692761" lon="-3.4210682474"><ele>1615.63</ele><time>2015-01-24T13:57:54Z</time></trkpt><trkpt lat="37.3275189009" lon="-3.4211107437"><ele>1616.11</ele><time>2015-01-24T13:58:05Z</time></trkpt><trkpt lat="37.3274597246" lon="-3.4211265016"><ele>1616.59</ele><time>2015-01-24T13:58:18Z</time></trkpt><trkpt lat="37.3273884784" lon="-3.4211456962"><ele>1616.59</ele><time>2015-01-24T13:58:31Z</time></trkpt><trkpt lat="37.3273384385" lon="-3.4211718477"><ele>1617.56</ele><time>2015-01-24T13:58:42Z</time></trkpt><trkpt lat="37.3273237702" lon="-3.4211787209"><ele>1617.56</ele><time>2015-01-24T13:58:44Z</time></trkpt><trkpt lat="37.3272366822" lon="-3.4212159365"><ele>1618.04</ele><time>2015-01-24T13:58:56Z</time></trkpt><trkpt lat="37.3271402903" lon="-3.4212647192"><ele>1618.52</ele><time>2015-01-24T13:59:08Z</time></trkpt><trkpt lat="37.3271106184" lon="-3.4212831594"><ele>1619.00</ele><time>2015-01-24T13:59:13Z</time></trkpt><trkpt lat="37.3270698823" lon="-3.4213125799"><ele>1619.00</ele><time>2015-01-24T13:59:24Z</time></trkpt><trkpt lat="37.3270270508" lon="-3.4213425033"><ele>1619.00</ele><time>2015-01-24T13:59:39Z</time></trkpt><trkpt lat="37.3269907571" lon="-3.4213615302"><ele>1619.48</ele><time>2015-01-24T13:59:55Z</time></trkpt><trkpt lat="37.3269345984" lon="-3.4214342851"><ele>1619.48</ele><time>2015-01-24T14:00:06Z</time></trkpt><trkpt lat="37.3269154876" lon="-3.4214646276"><ele>1619.48</ele><time>2015-01-24T14:00:11Z</time></trkpt><trkpt lat="37.3269070219" lon="-3.4214927070"><ele>1619.48</ele><time>2015-01-24T14:00:14Z</time></trkpt><trkpt lat="37.3268491868" lon="-3.4215882607"><ele>1619.96</ele><time>2015-01-24T14:00:29Z</time></trkpt><trkpt lat="37.3268527072" lon="-3.4215716645"><ele>1619.96</ele><time>2015-01-24T14:00:52Z</time></trkpt><trkpt lat="37.3268464208" lon="-3.4215849079"><ele>1619.00</ele><time>2015-01-24T14:01:12Z</time></trkpt><trkpt lat="37.3268416431" lon="-3.4216092993"><ele>1619.00</ele><time>2015-01-24T14:01:14Z</time></trkpt><trkpt lat="37.3268220294" lon="-3.4216384683"><ele>1618.52</ele><time>2015-01-24T14:01:17Z</time></trkpt><trkpt lat="37.3267757613" lon="-3.4217707347"><ele>1617.56</ele><time>2015-01-24T14:01:29Z</time></trkpt><trkpt lat="37.3267463408" lon="-3.4218505304"><ele>1617.07</ele><time>2015-01-24T14:01:40Z</time></trkpt><trkpt lat="37.3267055210" lon="-3.4219360258"><ele>1616.59</ele><time>2015-01-24T14:01:49Z</time></trkpt><trkpt lat="37.3266806267" lon="-3.4219853114"><ele>1616.11</ele><time>2015-01-24T14:01:56Z</time></trkpt><trkpt lat="37.3266613483" lon="-3.4220246226"><ele>1615.63</ele><time>2015-01-24T14:02:02Z</time></trkpt><trkpt lat="37.3266459256" lon="-3.4220727347"><ele>1615.63</ele><time>2015-01-24T14:02:07Z</time></trkpt><trkpt lat="37.3266302515" lon="-3.4220930189"><ele>1615.63</ele><time>2015-01-24T14:02:10Z</time></trkpt><trkpt lat="37.3265999090" lon="-3.4221715573"><ele>1615.63</ele><time>2015-01-24T14:02:17Z</time></trkpt><trkpt lat="37.3265445046" lon="-3.4222743195"><ele>1614.19</ele><time>2015-01-24T14:02:28Z</time></trkpt><trkpt lat="37.3265081272" lon="-3.4224005509"><ele>1613.71</ele><time>2015-01-24T14:02:42Z</time></trkpt><trkpt lat="37.3264005873" lon="-3.4226012975"><ele>1613.23</ele><time>2015-01-24T14:03:00Z</time></trkpt><trkpt lat="37.3263004236" lon="-3.4226597194"><ele>1612.27</ele><time>2015-01-24T14:03:13Z</time></trkpt><trkpt lat="37.3261796404" lon="-3.4226432070"><ele>1611.31</ele><time>2015-01-24T14:03:29Z</time></trkpt><trkpt lat="37.3260560911" lon="-3.4226455539"><ele>1611.31</ele><time>2015-01-24T14:03:42Z</time></trkpt><trkpt lat="37.3259565141" lon="-3.4226702806"><ele>1610.35</ele><time>2015-01-24T14:03:56Z</time></trkpt><trkpt lat="37.3259394150" lon="-3.4226780757"><ele>1610.35</ele><time>2015-01-24T14:03:59Z</time></trkpt><trkpt lat="37.3258153629" lon="-3.4227792453"><ele>1609.38</ele><time>2015-01-24T14:04:15Z</time></trkpt><trkpt lat="37.3257833440" lon="-3.4228130244"><ele>1609.38</ele><time>2015-01-24T14:04:21Z</time></trkpt><trkpt lat="37.3257502355" lon="-3.4228354041"><ele>1609.38</ele><time>2015-01-24T14:04:25Z</time></trkpt><trkpt lat="37.3257117625" lon="-3.4228806663"><ele>1609.38</ele><time>2015-01-24T14:04:31Z</time></trkpt><trkpt lat="37.3256297037" lon="-3.4229731187"><ele>1608.42</ele><time>2015-01-24T14:04:45Z</time></trkpt><trkpt lat="37.3255540151" lon="-3.4230828378"><ele>1607.94</ele><time>2015-01-24T14:04:58Z</time></trkpt><trkpt lat="37.3254844453" lon="-3.4231861867"><ele>1607.46</ele><time>2015-01-24T14:05:11Z</time></trkpt><trkpt lat="37.3254543543" lon="-3.4232293535"><ele>1607.46</ele><time>2015-01-24T14:05:17Z</time></trkpt><trkpt lat="37.3253527656" lon="-3.4233650565"><ele>1606.50</ele><time>2015-01-24T14:05:34Z</time></trkpt><trkpt lat="37.3252544459" lon="-3.4234881029"><ele>1606.02</ele><time>2015-01-24T14:05:49Z</time></trkpt><trkpt lat="37.3251419608" lon="-3.4236052819"><ele>1605.06</ele><time>2015-01-24T14:06:04Z</time></trkpt><trkpt lat="37.3250398692" lon="-3.4237157553"><ele>1605.06</ele><time>2015-01-24T14:06:19Z</time></trkpt><trkpt lat="37.3249412980" lon="-3.4238040168"><ele>1604.10</ele><time>2015-01-24T14:06:33Z</time></trkpt><trkpt lat="37.3249125481" lon="-3.4238685574"><ele>1603.62</ele><time>2015-01-24T14:06:45Z</time></trkpt><trkpt lat="37.3249162361" lon="-3.4238681383"><ele>1603.62</ele><time>2015-01-24T14:06:46Z</time></trkpt><trkpt lat="37.3249106202" lon="-3.4238896798"><ele>1603.62</ele><time>2015-01-24T14:06:48Z</time></trkpt><trkpt lat="37.3248811997" lon="-3.4239567351"><ele>1603.14</ele><time>2015-01-24T14:06:54Z</time></trkpt><trkpt lat="37.3248446546" lon="-3.4240843914"><ele>1602.66</ele><time>2015-01-24T14:07:06Z</time></trkpt><trkpt lat="37.3248436488" lon="-3.4241339285"><ele>1601.69</ele><time>2015-01-24T14:07:10Z</time></trkpt><trkpt lat="37.3248335905" lon="-3.4241851419"><ele>1601.69</ele><time>2015-01-24T14:07:15Z</time></trkpt><trkpt lat="37.3248582333" lon="-3.4242572263"><ele>1601.21</ele><time>2015-01-24T14:07:22Z</time></trkpt><trkpt lat="37.3248849716" lon="-3.4243526962"><ele>1600.73</ele><time>2015-01-24T14:07:33Z</time></trkpt><trkpt lat="37.3248989694" lon="-3.4244874772"><ele>1600.25</ele><time>2015-01-24T14:07:47Z</time></trkpt><trkpt lat="37.3249360174" lon="-3.4246237669"><ele>1599.29</ele><time>2015-01-24T14:08:00Z</time></trkpt><trkpt lat="37.3249352630" lon="-3.4246313944"><ele>1599.29</ele><time>2015-01-24T14:08:01Z</time></trkpt><trkpt lat="37.3249476682" lon="-3.4246602282"><ele>1598.81</ele><time>2015-01-24T14:08:04Z</time></trkpt><trkpt lat="37.3249443993" lon="-3.4247238468"><ele>1598.81</ele><time>2015-01-24T14:08:11Z</time></trkpt><trkpt lat="37.3249620013" lon="-3.4247859567"><ele>1598.33</ele><time>2015-01-24T14:08:19Z</time></trkpt><trkpt lat="37.3249683715" lon="-3.4248078335"><ele>1598.33</ele><time>2015-01-24T14:08:21Z</time></trkpt><trkpt lat="37.3249682877" lon="-3.4248293750"><ele>1598.33</ele><time>2015-01-24T14:08:23Z</time></trkpt><trkpt lat="37.3249931820" lon="-3.4248899762"><ele>1597.85</ele><time>2015-01-24T14:08:29Z</time></trkpt><trkpt lat="37.3250143882" lon="-3.4249422792"><ele>1597.37</ele><time>2015-01-24T14:08:34Z</time></trkpt><trkpt lat="37.3250446469" lon="-3.4249952529"><ele>1596.89</ele><time>2015-01-24T14:08:39Z</time></trkpt><trkpt lat="37.3250670265" lon="-3.4250379167"><ele>1596.41</ele><time>2015-01-24T14:08:44Z</time></trkpt><trkpt lat="37.3251276277" lon="-3.4251301177"><ele>1595.45</ele><time>2015-01-24T14:08:56Z</time></trkpt><trkpt lat="37.3251295555" lon="-3.4251353983"><ele>1595.45</ele><time>2015-01-24T14:08:58Z</time></trkpt><trkpt lat="37.3251921684" lon="-3.4252611268"><ele>1594.48</ele><time>2015-01-24T14:09:11Z</time></trkpt><trkpt lat="37.3252526019" lon="-3.4253464546"><ele>1594.00</ele><time>2015-01-24T14:09:22Z</time></trkpt><trkpt lat="37.3253018036" lon="-3.4254306089"><ele>1593.04</ele><time>2015-01-24T14:09:30Z</time></trkpt><trkpt lat="37.3253961001" lon="-3.4255503863"><ele>1592.08</ele><time>2015-01-24T14:09:44Z</time></trkpt><trkpt lat="37.3254310526" lon="-3.4256958123"><ele>1591.12</ele><time>2015-01-24T14:09:56Z</time></trkpt><trkpt lat="37.3254383449" lon="-3.4257991612"><ele>1590.64</ele><time>2015-01-24T14:10:04Z</time></trkpt><trkpt lat="37.3254352435" lon="-3.4259168431"><ele>1590.16</ele><time>2015-01-24T14:10:12Z</time></trkpt><trkpt lat="37.3254366685" lon="-3.4259774443"><ele>1589.68</ele><time>2015-01-24T14:10:16Z</time></trkpt><trkpt lat="37.3254389316" lon="-3.4260866605"><ele>1589.20</ele><time>2015-01-24T14:10:24Z</time></trkpt><trkpt lat="37.3254303820" lon="-3.4261987265"><ele>1588.72</ele><time>2015-01-24T14:10:35Z</time></trkpt><trkpt lat="37.3254273646" lon="-3.4262783546"><ele>1588.24</ele><time>2015-01-24T14:10:42Z</time></trkpt><trkpt lat="37.3254309688" lon="-3.4263732377"><ele>1587.27</ele><time>2015-01-24T14:10:49Z</time></trkpt><trkpt lat="37.3254367523" lon="-3.4264677856"><ele>1587.27</ele><time>2015-01-24T14:10:58Z</time></trkpt><trkpt lat="37.3254255205" lon="-3.4265533648"><ele>1586.31</ele><time>2015-01-24T14:11:04Z</time></trkpt><trkpt lat="37.3254258558" lon="-3.4265851323"><ele>1586.31</ele><time>2015-01-24T14:11:06Z</time></trkpt><trkpt lat="37.3254255205" lon="-3.4266422968"><ele>1586.31</ele><time>2015-01-24T14:11:10Z</time></trkpt><trkpt lat="37.3254066613" lon="-3.4268437140"><ele>1584.87</ele><time>2015-01-24T14:11:25Z</time></trkpt><trkpt lat="37.3254027218" lon="-3.4269965161"><ele>1583.91</ele><time>2015-01-24T14:11:37Z</time></trkpt><trkpt lat="37.3254094273" lon="-3.4270213265"><ele>1583.91</ele><time>2015-01-24T14:11:39Z</time></trkpt><trkpt lat="37.3254031409" lon="-3.4271083307"><ele>1583.43</ele><time>2015-01-24T14:11:46Z</time></trkpt><trkpt lat="37.3253937531" lon="-3.4271685127"><ele>1582.95</ele><time>2015-01-24T14:11:50Z</time></trkpt><trkpt lat="37.3253906518" lon="-3.4273624700"><ele>1581.51</ele><time>2015-01-24T14:12:04Z</time></trkpt><trkpt lat="37.3253709543" lon="-3.4274997655"><ele>1581.03</ele><time>2015-01-24T14:12:13Z</time></trkpt><trkpt lat="37.3253564537" lon="-3.4275355563"><ele>1580.54</ele><time>2015-01-24T14:12:16Z</time></trkpt><trkpt lat="37.3252922483" lon="-3.4277227242"><ele>1579.10</ele><time>2015-01-24T14:12:31Z</time></trkpt><trkpt lat="37.3252690304" lon="-3.4277696628"><ele>1578.62</ele><time>2015-01-24T14:12:35Z</time></trkpt><trkpt lat="37.3251755722" lon="-3.4279466886"><ele>1577.18</ele><time>2015-01-24T14:12:50Z</time></trkpt><trkpt lat="37.3250980396" lon="-3.4280863311"><ele>1576.22</ele><time>2015-01-24T14:13:03Z</time></trkpt><trkpt lat="37.3249960318" lon="-3.4282305837"><ele>1575.26</ele><time>2015-01-24T14:13:16Z</time></trkpt><trkpt lat="37.3249379452" lon="-3.4284384549"><ele>1574.30</ele><time>2015-01-24T14:13:31Z</time></trkpt><trkpt lat="37.3249259591" lon="-3.4285936039"><ele>1573.33</ele><time>2015-01-24T14:13:43Z</time></trkpt><trkpt lat="37.3249189183" lon="-3.4286237787"><ele>1573.33</ele><time>2015-01-24T14:13:46Z</time></trkpt><trkpt lat="37.3249012325" lon="-3.4288008045"><ele>1572.37</ele><time>2015-01-24T14:13:59Z</time></trkpt><trkpt lat="37.3249050044" lon="-3.4288383555"><ele>1571.89</ele><time>2015-01-24T14:14:02Z</time></trkpt><trkpt lat="37.3248922639" lon="-3.4289335739"><ele>1571.89</ele><time>2015-01-24T14:14:09Z</time></trkpt><trkpt lat="37.3248860613" lon="-3.4290242661"><ele>1571.41</ele><time>2015-01-24T14:14:15Z</time></trkpt><trkpt lat="37.3248783499" lon="-3.4291858692"><ele>1569.97</ele><time>2015-01-24T14:14:28Z</time></trkpt><trkpt lat="37.3248836305" lon="-3.4292361606"><ele>1569.49</ele><time>2015-01-24T14:14:33Z</time></trkpt><trkpt lat="37.3248674534" lon="-3.4293348156"><ele>1569.01</ele><time>2015-01-24T14:14:41Z</time></trkpt><trkpt lat="37.3248709738" lon="-3.4294053074"><ele>1568.53</ele><time>2015-01-24T14:14:47Z</time></trkpt><trkpt lat="37.3248676211" lon="-3.4294305369"><ele>1568.53</ele><time>2015-01-24T14:14:49Z</time></trkpt><trkpt lat="37.3248735722" lon="-3.4295541700"><ele>1567.57</ele><time>2015-01-24T14:15:02Z</time></trkpt><trkpt lat="37.3248771764" lon="-3.4295709338"><ele>1567.09</ele><time>2015-01-24T14:15:04Z</time></trkpt><trkpt lat="37.3248796072" lon="-3.4296322893"><ele>1567.09</ele><time>2015-01-24T14:15:10Z</time></trkpt><trkpt lat="37.3249074351" lon="-3.4297028650"><ele>1566.61</ele><time>2015-01-24T14:15:16Z</time></trkpt><trkpt lat="37.3249375261" lon="-3.4297940601"><ele>1566.12</ele><time>2015-01-24T14:15:24Z</time></trkpt><trkpt lat="37.3249983788" lon="-3.4299531486"><ele>1565.16</ele><time>2015-01-24T14:15:39Z</time></trkpt><trkpt lat="37.3250220157" lon="-3.4300204553"><ele>1564.68</ele><time>2015-01-24T14:15:48Z</time></trkpt><trkpt lat="37.3250237759" lon="-3.4300186113"><ele>1564.68</ele><time>2015-01-24T14:15:49Z</time></trkpt><trkpt lat="37.3250345048" lon="-3.4300273284"><ele>1564.68</ele><time>2015-01-24T14:15:51Z</time></trkpt><trkpt lat="37.3250847962" lon="-3.4301487822"><ele>1563.72</ele><time>2015-01-24T14:16:01Z</time></trkpt><trkpt lat="37.3251037393" lon="-3.4302191064"><ele>1563.24</ele><time>2015-01-24T14:16:07Z</time></trkpt><trkpt lat="37.3251638375" lon="-3.4303553961"><ele>1562.28</ele><time>2015-01-24T14:16:21Z</time></trkpt><trkpt lat="37.3251686152" lon="-3.4303806257"><ele>1561.80</ele><time>2015-01-24T14:16:34Z</time></trkpt><trkpt lat="37.3251799308" lon="-3.4303880855"><ele>1561.80</ele><time>2015-01-24T14:16:57Z</time></trkpt><trkpt lat="37.3251854628" lon="-3.4304028377"><ele>1561.80</ele><time>2015-01-24T14:17:00Z</time></trkpt><trkpt lat="37.3252091836" lon="-3.4305293206"><ele>1560.84</ele><time>2015-01-24T14:17:13Z</time></trkpt><trkpt lat="37.3251956888" lon="-3.4305645246"><ele>1560.84</ele><time>2015-01-24T14:17:24Z</time></trkpt><trkpt lat="37.3251870554" lon="-3.4305932745"><ele>1560.84</ele><time>2015-01-24T14:17:49Z</time></trkpt><trkpt lat="37.3251938447" lon="-3.4306242876"><ele>1560.84</ele><time>2015-01-24T14:17:51Z</time></trkpt><trkpt lat="37.3252072558" lon="-3.4307139739"><ele>1560.36</ele><time>2015-01-24T14:17:56Z</time></trkpt><trkpt lat="37.3252107762" lon="-3.4308656026"><ele>1559.88</ele><time>2015-01-24T14:18:10Z</time></trkpt><trkpt lat="37.3251987901" lon="-3.4309232701"><ele>1559.40</ele><time>2015-01-24T14:18:15Z</time></trkpt><trkpt lat="37.3251946829" lon="-3.4309904929"><ele>1559.40</ele><time>2015-01-24T14:18:21Z</time></trkpt><trkpt lat="37.3251885641" lon="-3.4310717136"><ele>1558.43</ele><time>2015-01-24T14:18:27Z</time></trkpt><trkpt lat="37.3252007179" lon="-3.4312103502"><ele>1559.40</ele><time>2015-01-24T14:18:38Z</time></trkpt><trkpt lat="37.3252059985" lon="-3.4312410280"><ele>1557.47</ele><time>2015-01-24T14:18:53Z</time></trkpt><trkpt lat="37.3251978680" lon="-3.4312251024"><ele>1557.47</ele><time>2015-01-24T14:19:18Z</time></trkpt><trkpt lat="37.3252070881" lon="-3.4312249348"><ele>1557.47</ele><time>2015-01-24T14:19:44Z</time></trkpt><trkpt lat="37.3252044059" lon="-3.4312357474"><ele>1557.47</ele><time>2015-01-24T14:20:09Z</time></trkpt><trkpt lat="37.3251998797" lon="-3.4312376752"><ele>1557.47</ele><time>2015-01-24T14:20:29Z</time></trkpt><trkpt lat="37.3252001312" lon="-3.4312520083"><ele>1557.47</ele><time>2015-01-24T14:20:44Z</time></trkpt><trkpt lat="37.3251954373" lon="-3.4312546905"><ele>1557.47</ele><time>2015-01-24T14:21:14Z</time></trkpt><trkpt lat="37.3251886480" lon="-3.4313226677"><ele>1557.47</ele><time>2015-01-24T14:21:29Z</time></trkpt><trkpt lat="37.3251841217" lon="-3.4313671757"><ele>1557.47</ele><time>2015-01-24T14:21:33Z</time></trkpt><trkpt lat="37.3251733091" lon="-3.4314225800"><ele>1557.47</ele><time>2015-01-24T14:21:37Z</time></trkpt><trkpt lat="37.3251449782" lon="-3.4315841831"><ele>1556.51</ele><time>2015-01-24T14:21:52Z</time></trkpt><trkpt lat="37.3251345847" lon="-3.4316045512"><ele>1556.03</ele><time>2015-01-24T14:21:54Z</time></trkpt><trkpt lat="37.3250939324" lon="-3.4316491429"><ele>1555.55</ele><time>2015-01-24T14:21:58Z</time></trkpt><trkpt lat="37.3250852991" lon="-3.4316798206"><ele>1555.55</ele><time>2015-01-24T14:22:00Z</time></trkpt><trkpt lat="37.3250821978" lon="-3.4317247476"><ele>1555.07</ele><time>2015-01-24T14:22:03Z</time></trkpt><trkpt lat="37.3250368517" lon="-3.4318705928"><ele>1554.59</ele><time>2015-01-24T14:22:15Z</time></trkpt><trkpt lat="37.3250178248" lon="-3.4319360554"><ele>1554.11</ele><time>2015-01-24T14:22:21Z</time></trkpt><trkpt lat="37.3250024021" lon="-3.4320627060"><ele>1553.15</ele><time>2015-01-24T14:22:31Z</time></trkpt><trkpt lat="37.3249514401" lon="-3.4322209563"><ele>1552.67</ele><time>2015-01-24T14:22:44Z</time></trkpt><trkpt lat="37.3249381967" lon="-3.4323107265"><ele>1551.71</ele><time>2015-01-24T14:22:51Z</time></trkpt><trkpt lat="37.3249291442" lon="-3.4325598367"><ele>1550.74</ele><time>2015-01-24T14:23:09Z</time></trkpt><trkpt lat="37.3249395378" lon="-3.4328003973"><ele>1549.30</ele><time>2015-01-24T14:23:27Z</time></trkpt><trkpt lat="37.3249555472" lon="-3.4330213442"><ele>1547.38</ele><time>2015-01-24T14:23:44Z</time></trkpt><trkpt lat="37.3249599896" lon="-3.4332757350"><ele>1545.94</ele><time>2015-01-24T14:24:03Z</time></trkpt><trkpt lat="37.3250061739" lon="-3.4334800858"><ele>1544.50</ele><time>2015-01-24T14:24:22Z</time></trkpt><trkpt lat="37.3250658531" lon="-3.4336419404"><ele>1543.05</ele><time>2015-01-24T14:24:37Z</time></trkpt><trkpt lat="37.3251385242" lon="-3.4338047169"><ele>1541.61</ele><time>2015-01-24T14:24:53Z</time></trkpt><trkpt lat="37.3252036516" lon="-3.4339914657"><ele>1539.69</ele><time>2015-01-24T14:25:09Z</time></trkpt><trkpt lat="37.3252598941" lon="-3.4341904521"><ele>1538.25</ele><time>2015-01-24T14:25:26Z</time></trkpt><trkpt lat="37.3252966907" lon="-3.4343497921"><ele>1536.80</ele><time>2015-01-24T14:25:40Z</time></trkpt><trkpt lat="37.3253995366" lon="-3.4345783666"><ele>1535.36</ele><time>2015-01-24T14:25:59Z</time></trkpt><trkpt lat="37.3255477287" lon="-3.4347149078"><ele>1533.44</ele><time>2015-01-24T14:26:17Z</time></trkpt><trkpt lat="37.3256352358" lon="-3.4348567296"><ele>1532.96</ele><time>2015-01-24T14:26:32Z</time></trkpt><trkpt lat="37.3256499041" lon="-3.4348848928"><ele>1532.48</ele><time>2015-01-24T14:26:41Z</time></trkpt><trkpt lat="37.3257207312" lon="-3.4350645170"><ele>1531.04</ele><time>2015-01-24T14:26:57Z</time></trkpt><trkpt lat="37.3257527500" lon="-3.4351376072"><ele>1530.56</ele><time>2015-01-24T14:27:04Z</time></trkpt><trkpt lat="37.3258588649" lon="-3.4352459013"><ele>1529.59</ele><time>2015-01-24T14:27:20Z</time></trkpt><trkpt lat="37.3259718530" lon="-3.4352809377"><ele>1528.63</ele><time>2015-01-24T14:27:35Z</time></trkpt><trkpt lat="37.3260999285" lon="-3.4352890681"><ele>1527.19</ele><time>2015-01-24T14:27:52Z</time></trkpt><trkpt lat="37.3261663131" lon="-3.4353287145"><ele>1526.23</ele><time>2015-01-24T14:28:06Z</time></trkpt><trkpt lat="37.3262370564" lon="-3.4354086779"><ele>1525.27</ele><time>2015-01-24T14:28:17Z</time></trkpt><trkpt lat="37.3262378108" lon="-3.4354473185"><ele>1525.27</ele><time>2015-01-24T14:28:32Z</time></trkpt><trkpt lat="37.3262911197" lon="-3.4355357476"><ele>1524.79</ele><time>2015-01-24T14:28:49Z</time></trkpt><trkpt lat="37.3263349570" lon="-3.4356628172"><ele>1523.83</ele><time>2015-01-24T14:29:02Z</time></trkpt><trkpt lat="37.3263949715" lon="-3.4357618913"><ele>1523.35</ele><time>2015-01-24T14:29:15Z</time></trkpt><trkpt lat="37.3264039401" lon="-3.4357757214"><ele>1523.35</ele><time>2015-01-24T14:29:17Z</time></trkpt><trkpt lat="37.3264669720" lon="-3.4358998574"><ele>1522.39</ele><time>2015-01-24T14:29:30Z</time></trkpt><trkpt lat="37.3265129048" lon="-3.4359551780"><ele>1521.90</ele><time>2015-01-24T14:29:36Z</time></trkpt><trkpt lat="37.3265740927" lon="-3.4360055532"><ele>1521.42</ele><time>2015-01-24T14:29:52Z</time></trkpt><trkpt lat="37.3265877552" lon="-3.4360255022"><ele>1521.42</ele><time>2015-01-24T14:30:05Z</time></trkpt><trkpt lat="37.3266473506" lon="-3.4360952396"><ele>1520.94</ele><time>2015-01-24T14:30:16Z</time></trkpt><trkpt lat="37.3267485201" lon="-3.4361690003"><ele>1520.94</ele><time>2015-01-24T14:30:31Z</time></trkpt><trkpt lat="37.3267826345" lon="-3.4362289310"><ele>1520.94</ele><time>2015-01-24T14:30:44Z</time></trkpt><trkpt lat="37.3267867416" lon="-3.4362933040"><ele>1520.46</ele><time>2015-01-24T14:30:57Z</time></trkpt><trkpt lat="37.3267802037" lon="-3.4363576770"><ele>1520.46</ele><time>2015-01-24T14:31:10Z</time></trkpt><trkpt lat="37.3267805390" lon="-3.4364054538"><ele>1520.46</ele><time>2015-01-24T14:31:28Z</time></trkpt><trkpt lat="37.3267598357" lon="-3.4365468565"><ele>1520.46</ele><time>2015-01-24T14:31:42Z</time></trkpt><trkpt lat="37.3267217819" lon="-3.4367152490"><ele>1520.46</ele><time>2015-01-24T14:31:59Z</time></trkpt><trkpt lat="37.3267139029" lon="-3.4367326833"><ele>1520.46</ele><time>2015-01-24T14:32:17Z</time></trkpt><trkpt lat="37.3267054372" lon="-3.4367895126"><ele>1519.98</ele><time>2015-01-24T14:32:23Z</time></trkpt><trkpt lat="37.3266637791" lon="-3.4370034188"><ele>1519.98</ele><time>2015-01-24T14:32:40Z</time></trkpt><trkpt lat="37.3266273178" lon="-3.4371976275"><ele>1519.98</ele><time>2015-01-24T14:32:56Z</time></trkpt><trkpt lat="37.3265773617" lon="-3.4374309797"><ele>1519.50</ele><time>2015-01-24T14:33:14Z</time></trkpt><trkpt lat="37.3265226278" lon="-3.4376386832"><ele>1519.02</ele><time>2015-01-24T14:33:30Z</time></trkpt><trkpt lat="37.3264082149" lon="-3.4377872944"><ele>1518.54</ele><time>2015-01-24T14:33:46Z</time></trkpt><trkpt lat="37.3262582626" lon="-3.4378851950"><ele>1518.06</ele><time>2015-01-24T14:34:02Z</time></trkpt><trkpt lat="37.3260829132" lon="-3.4379965067"><ele>1518.06</ele><time>2015-01-24T14:34:20Z</time></trkpt><trkpt lat="37.3259715177" lon="-3.4381642286"><ele>1518.06</ele><time>2015-01-24T14:34:37Z</time></trkpt><trkpt lat="37.3259388283" lon="-3.4383316990"><ele>1517.58</ele><time>2015-01-24T14:34:51Z</time></trkpt><trkpt lat="37.3259115033" lon="-3.4385444317"><ele>1517.10</ele><time>2015-01-24T14:35:07Z</time></trkpt><trkpt lat="37.3259047978" lon="-3.4386178572"><ele>1517.10</ele><time>2015-01-24T14:35:22Z</time></trkpt><trkpt lat="37.3258889560" lon="-3.4388450067"><ele>1515.66</ele><time>2015-01-24T14:35:39Z</time></trkpt><trkpt lat="37.3258488066" lon="-3.4391408879"><ele>1513.73</ele><time>2015-01-24T14:35:58Z</time></trkpt><trkpt lat="37.3257859424" lon="-3.4393826220"><ele>1511.81</ele><time>2015-01-24T14:36:15Z</time></trkpt><trkpt lat="37.3256680928" lon="-3.4395179059"><ele>1510.85</ele><time>2015-01-24T14:36:33Z</time></trkpt><trkpt lat="37.3255123571" lon="-3.4396331571"><ele>1509.41</ele><time>2015-01-24T14:36:51Z</time></trkpt><trkpt lat="37.3253862932" lon="-3.4397355840"><ele>1507.97</ele><time>2015-01-24T14:37:08Z</time></trkpt><trkpt lat="37.3252581339" lon="-3.4398577921"><ele>1507.00</ele><time>2015-01-24T14:37:24Z</time></trkpt><trkpt lat="37.3252402805" lon="-3.4398894757"><ele>1507.00</ele><time>2015-01-24T14:37:27Z</time></trkpt><trkpt lat="37.3251962755" lon="-3.4399664216"><ele>1506.52</ele><time>2015-01-24T14:37:35Z</time></trkpt><trkpt lat="37.3251389433" lon="-3.4401102550"><ele>1505.08</ele><time>2015-01-24T14:37:49Z</time></trkpt><trkpt lat="37.3251047451" lon="-3.4402693436"><ele>1503.64</ele><time>2015-01-24T14:38:03Z</time></trkpt><trkpt lat="37.3250961117" lon="-3.4404601157"><ele>1502.68</ele><time>2015-01-24T14:38:18Z</time></trkpt><trkpt lat="37.3250984587" lon="-3.4406168573"><ele>1501.24</ele><time>2015-01-24T14:38:32Z</time></trkpt><trkpt lat="37.3251023982" lon="-3.4408205375"><ele>1500.27</ele><time>2015-01-24T14:38:49Z</time></trkpt><trkpt lat="37.3251051642" lon="-3.4410206135"><ele>1498.83</ele><time>2015-01-24T14:39:04Z</time></trkpt><trkpt lat="37.3251013085" lon="-3.4412463382"><ele>1497.87</ele><time>2015-01-24T14:39:20Z</time></trkpt><trkpt lat="37.3250321578" lon="-3.4414884076"><ele>1495.95</ele><time>2015-01-24T14:39:39Z</time></trkpt><trkpt lat="37.3248786014" lon="-3.4417188261"><ele>1494.03</ele><time>2015-01-24T14:39:59Z</time></trkpt><trkpt lat="37.3246982228" lon="-3.4417727217"><ele>1492.10</ele><time>2015-01-24T14:40:16Z</time></trkpt><trkpt lat="37.3246796988" lon="-3.4417661838"><ele>1492.10</ele><time>2015-01-24T14:40:18Z</time></trkpt><trkpt lat="37.3246149067" lon="-3.4417567961"><ele>1491.14</ele><time>2015-01-24T14:40:25Z</time></trkpt><trkpt lat="37.3244703189" lon="-3.4417832829"><ele>1490.18</ele><time>2015-01-24T14:40:41Z</time></trkpt><trkpt lat="37.3244434129" lon="-3.4417888150"><ele>1489.70</ele><time>2015-01-24T14:40:57Z</time></trkpt><trkpt lat="37.3243750166" lon="-3.4418463148"><ele>1488.74</ele><time>2015-01-24T14:41:16Z</time></trkpt><trkpt lat="37.3243416566" lon="-3.4418924991"><ele>1488.26</ele><time>2015-01-24T14:41:31Z</time></trkpt><trkpt lat="37.3242128268" lon="-3.4419916570"><ele>1487.78</ele><time>2015-01-24T14:41:45Z</time></trkpt><trkpt lat="37.3239751160" lon="-3.4421037231"><ele>1485.85</ele><time>2015-01-24T14:42:03Z</time></trkpt><trkpt lat="37.3238539137" lon="-3.4423008654"><ele>1483.93</ele><time>2015-01-24T14:42:17Z</time></trkpt><trkpt lat="37.3237721063" lon="-3.4422713611"><ele>1482.49</ele><time>2015-01-24T14:42:24Z</time></trkpt><trkpt lat="37.3237845115" lon="-3.4420146234"><ele>1480.09</ele><time>2015-01-24T14:42:38Z</time></trkpt><trkpt lat="37.3238998465" lon="-3.4418241866"><ele>1479.61</ele><time>2015-01-24T14:42:54Z</time></trkpt><trkpt lat="37.3240047041" lon="-3.4418421239"><ele>1478.16</ele><time>2015-01-24T14:43:01Z</time></trkpt><trkpt lat="37.3240664788" lon="-3.4417951014"><ele>1477.20</ele><time>2015-01-24T14:43:07Z</time></trkpt><trkpt lat="37.3241545726" lon="-3.4415972885"><ele>1476.24</ele><time>2015-01-24T14:43:19Z</time></trkpt><trkpt lat="37.3241620325" lon="-3.4415839612"><ele>1475.76</ele><time>2015-01-24T14:43:20Z</time></trkpt><trkpt lat="37.3241901118" lon="-3.4414641839"><ele>1475.28</ele><time>2015-01-24T14:43:26Z</time></trkpt><trkpt lat="37.3243024293" lon="-3.4412891697"><ele>1473.36</ele><time>2015-01-24T14:43:39Z</time></trkpt><trkpt lat="37.3243238870" lon="-3.4412648622"><ele>1473.36</ele><time>2015-01-24T14:43:42Z</time></trkpt><trkpt lat="37.3243238032" lon="-3.4411822166"><ele>1473.36</ele><time>2015-01-24T14:43:46Z</time></trkpt><trkpt lat="37.3242523894" lon="-3.4409975633"><ele>1471.92</ele><time>2015-01-24T14:43:57Z</time></trkpt><trkpt lat="37.3242467735" lon="-3.4409819730"><ele>1471.92</ele><time>2015-01-24T14:43:58Z</time></trkpt><trkpt lat="37.3241075501" lon="-3.4408538975"><ele>1469.99</ele><time>2015-01-24T14:44:10Z</time></trkpt><trkpt lat="37.3240415007" lon="-3.4408223815"><ele>1469.51</ele><time>2015-01-24T14:44:15Z</time></trkpt><trkpt lat="37.3239869345" lon="-3.4405812342"><ele>1467.59</ele><time>2015-01-24T14:44:30Z</time></trkpt><trkpt lat="37.3239862639" lon="-3.4403612930"><ele>1466.63</ele><time>2015-01-24T14:44:43Z</time></trkpt><trkpt lat="37.3239800613" lon="-3.4402690083"><ele>1465.67</ele><time>2015-01-24T14:44:48Z</time></trkpt><trkpt lat="37.3240290117" lon="-3.4400766436"><ele>1464.23</ele><time>2015-01-24T14:45:06Z</time></trkpt><trkpt lat="37.3240073025" lon="-3.4399857838"><ele>1461.34</ele><time>2015-01-24T14:45:19Z</time></trkpt><trkpt lat="37.3239544965" lon="-3.4399037249"><ele>1458.46</ele><time>2015-01-24T14:45:30Z</time></trkpt><trkpt lat="37.3238804005" lon="-3.4398363344"><ele>1455.57</ele><time>2015-01-24T14:45:44Z</time></trkpt><trkpt lat="37.3237897083" lon="-3.4397474024"><ele>1452.69</ele><time>2015-01-24T14:45:58Z</time></trkpt><trkpt lat="37.3237480503" lon="-3.4397258610"><ele>1451.73</ele><time>2015-01-24T14:46:04Z</time></trkpt><trkpt lat="37.3236504011" lon="-3.4396792576"><ele>1449.32</ele><time>2015-01-24T14:46:18Z</time></trkpt><trkpt lat="37.3236556817" lon="-3.4396018088"><ele>1448.84</ele><time>2015-01-24T14:46:30Z</time></trkpt><trkpt lat="37.3236567713" lon="-3.4396000486"><ele>1448.84</ele><time>2015-01-24T14:46:31Z</time></trkpt><trkpt lat="37.3236188851" lon="-3.4396282956"><ele>1448.36</ele><time>2015-01-24T14:46:40Z</time></trkpt><trkpt lat="37.3235715274" lon="-3.4396793414"><ele>1447.88</ele><time>2015-01-24T14:46:46Z</time></trkpt><trkpt lat="37.3235448729" lon="-3.4397069179"><ele>1447.88</ele><time>2015-01-24T14:46:49Z</time></trkpt><trkpt lat="37.3233683500" lon="-3.4398851171"><ele>1445.96</ele><time>2015-01-24T14:47:08Z</time></trkpt><trkpt lat="37.3233333975" lon="-3.4399424493"><ele>1445.48</ele><time>2015-01-24T14:47:13Z</time></trkpt><trkpt lat="37.3231831938" lon="-3.4401229955"><ele>1443.56</ele><time>2015-01-24T14:47:29Z</time></trkpt><trkpt lat="37.3231598083" lon="-3.4401747957"><ele>1443.56</ele><time>2015-01-24T14:47:32Z</time></trkpt><trkpt lat="37.3230805993" lon="-3.4404353891"><ele>1441.15</ele><time>2015-01-24T14:47:50Z</time></trkpt><trkpt lat="37.3230626620" lon="-3.4404911287"><ele>1441.15</ele><time>2015-01-24T14:47:54Z</time></trkpt><trkpt lat="37.3230474908" lon="-3.4405707568"><ele>1440.19</ele><time>2015-01-24T14:47:59Z</time></trkpt><trkpt lat="37.3229467403" lon="-3.4407844115"><ele>1439.23</ele><time>2015-01-24T14:48:16Z</time></trkpt><trkpt lat="37.3229301441" lon="-3.4407811426"><ele>1439.23</ele><time>2015-01-24T14:48:18Z</time></trkpt><trkpt lat="37.3227321636" lon="-3.4407276660"><ele>1437.79</ele><time>2015-01-24T14:48:34Z</time></trkpt><trkpt lat="37.3225493543" lon="-3.4407243133"><ele>1436.35</ele><time>2015-01-24T14:48:48Z</time></trkpt><trkpt lat="37.3223660421" lon="-3.4408195317"><ele>1433.46</ele><time>2015-01-24T14:49:03Z</time></trkpt><trkpt lat="37.3223056085" lon="-3.4409662988"><ele>1432.98</ele><time>2015-01-24T14:49:15Z</time></trkpt><trkpt lat="37.3223011661" lon="-3.4410025924"><ele>1432.98</ele><time>2015-01-24T14:49:17Z</time></trkpt><trkpt lat="37.3222735897" lon="-3.4410763532"><ele>1432.02</ele><time>2015-01-24T14:49:23Z</time></trkpt><trkpt lat="37.3222064506" lon="-3.4412707295"><ele>1430.58</ele><time>2015-01-24T14:49:36Z</time></trkpt><trkpt lat="37.3221959732" lon="-3.4414800256"><ele>1429.62</ele><time>2015-01-24T14:49:49Z</time></trkpt><trkpt lat="37.3222155869" lon="-3.4415904991"><ele>1428.18</ele><time>2015-01-24T14:49:58Z</time></trkpt><trkpt lat="37.3222160898" lon="-3.4417108633"><ele>1427.70</ele><time>2015-01-24T14:50:05Z</time></trkpt><trkpt lat="37.3221253138" lon="-3.4419068322"><ele>1425.29</ele><time>2015-01-24T14:50:19Z</time></trkpt><trkpt lat="37.3221077118" lon="-3.4419430420"><ele>1425.29</ele><time>2015-01-24T14:50:22Z</time></trkpt><trkpt lat="37.3220301792" lon="-3.4420537669"><ele>1424.81</ele><time>2015-01-24T14:50:35Z</time></trkpt><trkpt lat="37.3219227232" lon="-3.4421748854"><ele>1423.85</ele><time>2015-01-24T14:50:50Z</time></trkpt><trkpt lat="37.3218622897" lon="-3.4422485624"><ele>1422.89</ele><time>2015-01-24T14:51:01Z</time></trkpt><trkpt lat="37.3217813205" lon="-3.4423452057"><ele>1421.93</ele><time>2015-01-24T14:51:10Z</time></trkpt><trkpt lat="37.3216999322" lon="-3.4424432740"><ele>1420.97</ele><time>2015-01-24T14:51:17Z</time></trkpt><trkpt lat="37.3216808215" lon="-3.4424498118"><ele>1420.97</ele><time>2015-01-24T14:51:18Z</time></trkpt><trkpt lat="37.3216649797" lon="-3.4424560145"><ele>1420.97</ele><time>2015-01-24T14:51:19Z</time></trkpt><trkpt lat="37.3215637263" lon="-3.4425016120"><ele>1419.52</ele><time>2015-01-24T14:51:26Z</time></trkpt><trkpt lat="37.3215519078" lon="-3.4425149392"><ele>1419.52</ele><time>2015-01-24T14:51:27Z</time></trkpt><trkpt lat="37.3215402570" lon="-3.4425280988"><ele>1419.52</ele><time>2015-01-24T14:51:28Z</time></trkpt><trkpt lat="37.3215279356" lon="-3.4425391629"><ele>1419.04</ele><time>2015-01-24T14:51:29Z</time></trkpt><trkpt lat="37.3215137701" lon="-3.4425505623"><ele>1419.04</ele><time>2015-01-24T14:51:30Z</time></trkpt><trkpt lat="37.3214986827" lon="-3.4425581899"><ele>1419.04</ele><time>2015-01-24T14:51:31Z</time></trkpt><trkpt lat="37.3214813322" lon="-3.4425595310"><ele>1418.56</ele><time>2015-01-24T14:51:32Z</time></trkpt><trkpt lat="37.3214644007" lon="-3.4425584413"><ele>1418.56</ele><time>2015-01-24T14:51:33Z</time></trkpt><trkpt lat="37.3213820904" lon="-3.4425553400"><ele>1417.60</ele><time>2015-01-24T14:51:38Z</time></trkpt><trkpt lat="37.3213706072" lon="-3.4425659850"><ele>1417.12</ele><time>2015-01-24T14:51:39Z</time></trkpt><trkpt lat="37.3212042265" lon="-3.4425934777"><ele>1415.68</ele><time>2015-01-24T14:51:51Z</time></trkpt><trkpt lat="37.3211877141" lon="-3.4425863530"><ele>1414.72</ele><time>2015-01-24T14:51:52Z</time></trkpt><trkpt lat="37.3211769015" lon="-3.4425755404"><ele>1414.72</ele><time>2015-01-24T14:51:53Z</time></trkpt><trkpt lat="37.3211696930" lon="-3.4425607882"><ele>1414.72</ele><time>2015-01-24T14:51:54Z</time></trkpt><trkpt lat="37.3211696092" lon="-3.4425421804"><ele>1414.72</ele><time>2015-01-24T14:51:55Z</time></trkpt><trkpt lat="37.3211769015" lon="-3.4425214771"><ele>1414.24</ele><time>2015-01-24T14:51:56Z</time></trkpt><trkpt lat="37.3211844452" lon="-3.4425047971"><ele>1413.76</ele><time>2015-01-24T14:51:57Z</time></trkpt><trkpt lat="37.3211924918" lon="-3.4424948227"><ele>1414.24</ele><time>2015-01-24T14:51:58Z</time></trkpt><trkpt lat="37.3212046456" lon="-3.4424850158"><ele>1414.24</ele><time>2015-01-24T14:51:59Z</time></trkpt><trkpt lat="37.3212162964" lon="-3.4424802382"><ele>1414.24</ele><time>2015-01-24T14:52:00Z</time></trkpt><trkpt lat="37.3212271929" lon="-3.4424787294"><ele>1414.24</ele><time>2015-01-24T14:52:01Z</time></trkpt><trkpt lat="37.3212381732" lon="-3.4424795676"><ele>1414.24</ele><time>2015-01-24T14:52:02Z</time></trkpt><trkpt lat="37.3212863691" lon="-3.4424617141"><ele>1413.28</ele><time>2015-01-24T14:52:06Z</time></trkpt><trkpt lat="37.3212991934" lon="-3.4424517397"><ele>1413.28</ele><time>2015-01-24T14:52:07Z</time></trkpt><trkpt lat="37.3213121854" lon="-3.4424457047"><ele>1413.28</ele><time>2015-01-24T14:52:08Z</time></trkpt><trkpt lat="37.3213540111" lon="-3.4424023703"><ele>1412.79</ele><time>2015-01-24T14:52:13Z</time></trkpt><trkpt lat="37.3213748820" lon="-3.4423773922"><ele>1412.79</ele><time>2015-01-24T14:52:15Z</time></trkpt><trkpt lat="37.3213852756" lon="-3.4423654899"><ele>1412.79</ele><time>2015-01-24T14:52:16Z</time></trkpt><trkpt lat="37.3214624729" lon="-3.4422094189"><ele>1410.87</ele><time>2015-01-24T14:52:28Z</time></trkpt><trkpt lat="37.3214840144" lon="-3.4421818424"><ele>1410.87</ele><time>2015-01-24T14:52:31Z</time></trkpt><trkpt lat="37.3215384129" lon="-3.4419307206"><ele>1409.91</ele><time>2015-01-24T14:52:45Z</time></trkpt><trkpt lat="37.3215427715" lon="-3.4419152141"><ele>1409.91</ele><time>2015-01-24T14:52:46Z</time></trkpt><trkpt lat="37.3215526622" lon="-3.4418987855"><ele>1409.91</ele><time>2015-01-24T14:52:47Z</time></trkpt><trkpt lat="37.3215643968" lon="-3.4418854583"><ele>1409.43</ele><time>2015-01-24T14:52:48Z</time></trkpt><trkpt lat="37.3215731978" lon="-3.4418744780"><ele>1409.43</ele><time>2015-01-24T14:52:49Z</time></trkpt><trkpt lat="37.3215893749" lon="-3.4418322332"><ele>1409.43</ele><time>2015-01-24T14:52:52Z</time></trkpt><trkpt lat="37.3215907160" lon="-3.4418137930"><ele>1409.43</ele><time>2015-01-24T14:52:53Z</time></trkpt><trkpt lat="37.3215902969" lon="-3.4417959396"><ele>1408.95</ele><time>2015-01-24T14:52:54Z</time></trkpt><trkpt lat="37.3215892911" lon="-3.4417751525"><ele>1408.95</ele><time>2015-01-24T14:52:55Z</time></trkpt><trkpt lat="37.3215899616" lon="-3.4417566285"><ele>1408.95</ele><time>2015-01-24T14:52:56Z</time></trkpt><trkpt lat="37.3215912189" lon="-3.4417378530"><ele>1408.95</ele><time>2015-01-24T14:52:57Z</time></trkpt><trkpt lat="37.3215905484" lon="-3.4416767489"><ele>1408.47</ele><time>2015-01-24T14:53:01Z</time></trkpt><trkpt lat="37.3215913028" lon="-3.4416603204"><ele>1407.99</ele><time>2015-01-24T14:53:02Z</time></trkpt><trkpt lat="37.3215878662" lon="-3.4416438919"><ele>1407.99</ele><time>2015-01-24T14:53:03Z</time></trkpt><trkpt lat="37.3215813283" lon="-3.4416292235"><ele>1407.51</ele><time>2015-01-24T14:53:04Z</time></trkpt><trkpt lat="37.3215723597" lon="-3.4416121244"><ele>1407.51</ele><time>2015-01-24T14:53:05Z</time></trkpt><trkpt lat="37.3215601221" lon="-3.4415976238"><ele>1407.51</ele><time>2015-01-24T14:53:06Z</time></trkpt><trkpt lat="37.3215146083" lon="-3.4415745735"><ele>1407.03</ele><time>2015-01-24T14:53:09Z</time></trkpt><trkpt lat="37.3215037119" lon="-3.4415784292"><ele>1406.55</ele><time>2015-01-24T14:53:10Z</time></trkpt><trkpt lat="37.3214900494" lon="-3.4415855538"><ele>1406.55</ele><time>2015-01-24T14:53:11Z</time></trkpt><trkpt lat="37.3214721959" lon="-3.4416092746"><ele>1406.07</ele><time>2015-01-24T14:53:15Z</time></trkpt><trkpt lat="37.3214623053" lon="-3.4416211769"><ele>1406.07</ele><time>2015-01-24T14:53:16Z</time></trkpt><trkpt lat="37.3214343935" lon="-3.4416532796"><ele>1405.10</ele><time>2015-01-24T14:53:19Z</time></trkpt><trkpt lat="37.3214193899" lon="-3.4416609909"><ele>1405.10</ele><time>2015-01-24T14:53:20Z</time></trkpt><trkpt lat="37.3214078229" lon="-3.4416700434"><ele>1405.10</ele><time>2015-01-24T14:53:21Z</time></trkpt><trkpt lat="37.3213256802" lon="-3.4418049082"><ele>1404.14</ele><time>2015-01-24T14:53:33Z</time></trkpt><trkpt lat="37.3211529292" lon="-3.4420455527"><ele>1402.70</ele><time>2015-01-24T14:53:52Z</time></trkpt><trkpt lat="37.3209831119" lon="-3.4421716165"><ele>1400.30</ele><time>2015-01-24T14:54:09Z</time></trkpt><trkpt lat="37.3207997158" lon="-3.4423385840"><ele>1397.89</ele><time>2015-01-24T14:54:22Z</time></trkpt><trkpt lat="37.3206055909" lon="-3.4425318707"><ele>1396.45</ele><time>2015-01-24T14:54:39Z</time></trkpt><trkpt lat="37.3205156531" lon="-3.4427121654"><ele>1394.53</ele><time>2015-01-24T14:54:51Z</time></trkpt><trkpt lat="37.3205133900" lon="-3.4427345451"><ele>1394.53</ele><time>2015-01-24T14:54:52Z</time></trkpt><trkpt lat="37.3205103725" lon="-3.4427527338"><ele>1394.53</ele><time>2015-01-24T14:54:53Z</time></trkpt><trkpt lat="37.3205029126" lon="-3.4427678213"><ele>1394.53</ele><time>2015-01-24T14:54:54Z</time></trkpt><trkpt lat="37.3204942793" lon="-3.4427815676"><ele>1394.05</ele><time>2015-01-24T14:54:55Z</time></trkpt><trkpt lat="37.3204853106" lon="-3.4427946433"><ele>1394.05</ele><time>2015-01-24T14:54:56Z</time></trkpt><trkpt lat="37.3204774316" lon="-3.4428070486"><ele>1394.05</ele><time>2015-01-24T14:54:57Z</time></trkpt><trkpt lat="37.3204576503" lon="-3.4428953100"><ele>1393.57</ele><time>2015-01-24T14:55:03Z</time></trkpt><trkpt lat="37.3203988932" lon="-3.4431313444"><ele>1391.65</ele><time>2015-01-24T14:55:16Z</time></trkpt><trkpt lat="37.3202740867" lon="-3.4432606772"><ele>1390.68</ele><time>2015-01-24T14:55:28Z</time></trkpt><trkpt lat="37.3202624358" lon="-3.4432677180"><ele>1390.68</ele><time>2015-01-24T14:55:29Z</time></trkpt><trkpt lat="37.3202508688" lon="-3.4432761837"><ele>1390.68</ele><time>2015-01-24T14:55:30Z</time></trkpt><trkpt lat="37.3202403914" lon="-3.4432844818"><ele>1390.68</ele><time>2015-01-24T14:55:31Z</time></trkpt><trkpt lat="37.3202243820" lon="-3.4432968032"><ele>1390.20</ele><time>2015-01-24T14:55:32Z</time></trkpt><trkpt lat="37.3202182632" lon="-3.4433121420"><ele>1390.20</ele><time>2015-01-24T14:55:33Z</time></trkpt><trkpt lat="37.3202001583" lon="-3.4433222841"><ele>1390.20</ele><time>2015-01-24T14:55:34Z</time></trkpt><trkpt lat="37.3201848194" lon="-3.4433314204"><ele>1389.72</ele><time>2015-01-24T14:55:35Z</time></trkpt><trkpt lat="37.3201713245" lon="-3.4433418978"><ele>1389.72</ele><time>2015-01-24T14:55:36Z</time></trkpt><trkpt lat="37.3199979868" lon="-3.4435398784"><ele>1388.76</ele><time>2015-01-24T14:55:54Z</time></trkpt><trkpt lat="37.3198565003" lon="-3.4437168203"><ele>1387.32</ele><time>2015-01-24T14:56:12Z</time></trkpt><trkpt lat="37.3197254911" lon="-3.4438755736"><ele>1386.84</ele><time>2015-01-24T14:56:28Z</time></trkpt><trkpt lat="37.3196450248" lon="-3.4439784195"><ele>1386.36</ele><time>2015-01-24T14:56:37Z</time></trkpt><trkpt lat="37.3196373135" lon="-3.4439893160"><ele>1385.88</ele><time>2015-01-24T14:56:38Z</time></trkpt><trkpt lat="37.3195786402" lon="-3.4440204967"><ele>1385.88</ele><time>2015-01-24T14:56:55Z</time></trkpt><trkpt lat="37.3194504809" lon="-3.4441611450"><ele>1384.92</ele><time>2015-01-24T14:57:09Z</time></trkpt><trkpt lat="37.3193074856" lon="-3.4442737140"><ele>1384.92</ele><time>2015-01-24T14:57:22Z</time></trkpt><trkpt lat="37.3192975111" lon="-3.4442867059"><ele>1384.44</ele><time>2015-01-24T14:57:23Z</time></trkpt><trkpt lat="37.3192882910" lon="-3.4442973509"><ele>1384.44</ele><time>2015-01-24T14:57:24Z</time></trkpt><trkpt lat="37.3191727046" lon="-3.4444526676"><ele>1383.96</ele><time>2015-01-24T14:57:37Z</time></trkpt><trkpt lat="37.3191364110" lon="-3.4445128497"><ele>1383.96</ele><time>2015-01-24T14:57:41Z</time></trkpt><trkpt lat="37.3191257659" lon="-3.4445224889"><ele>1383.96</ele><time>2015-01-24T14:57:42Z</time></trkpt><trkpt lat="37.3191145342" lon="-3.4445330501"><ele>1383.96</ele><time>2015-01-24T14:57:43Z</time></trkpt><trkpt lat="37.3189675994" lon="-3.4447687492"><ele>1382.03</ele><time>2015-01-24T14:58:01Z</time></trkpt><trkpt lat="37.3188306391" lon="-3.4448461141"><ele>1380.59</ele><time>2015-01-24T14:58:13Z</time></trkpt><trkpt lat="37.3187839519" lon="-3.4447712637"><ele>1380.59</ele><time>2015-01-24T14:58:19Z</time></trkpt><trkpt lat="37.3187826946" lon="-3.4447572660"><ele>1380.59</ele><time>2015-01-24T14:58:20Z</time></trkpt><trkpt lat="37.3187814374" lon="-3.4447419271"><ele>1380.11</ele><time>2015-01-24T14:58:21Z</time></trkpt><trkpt lat="37.3187805992" lon="-3.4447260853"><ele>1380.11</ele><time>2015-01-24T14:58:22Z</time></trkpt><trkpt lat="37.3187804315" lon="-3.4447099920"><ele>1380.11</ele><time>2015-01-24T14:58:23Z</time></trkpt><trkpt lat="37.3189078365" lon="-3.4444671683"><ele>1377.23</ele><time>2015-01-24T14:58:42Z</time></trkpt><trkpt lat="37.3190282006" lon="-3.4443422779"><ele>1377.23</ele><time>2015-01-24T14:58:53Z</time></trkpt><trkpt lat="37.3190394323" lon="-3.4443354886"><ele>1377.23</ele><time>2015-01-24T14:58:54Z</time></trkpt><trkpt lat="37.3190515023" lon="-3.4443267714"><ele>1377.23</ele><time>2015-01-24T14:58:55Z</time></trkpt><trkpt lat="37.3190637399" lon="-3.4443163779"><ele>1376.75</ele><time>2015-01-24T14:58:56Z</time></trkpt><trkpt lat="37.3190756422" lon="-3.4443057328"><ele>1376.75</ele><time>2015-01-24T14:58:57Z</time></trkpt><trkpt lat="37.3192191403" lon="-3.4441277850"><ele>1375.78</ele><time>2015-01-24T14:59:12Z</time></trkpt><trkpt lat="37.3193725292" lon="-3.4438771661"><ele>1374.34</ele><time>2015-01-24T14:59:30Z</time></trkpt><trkpt lat="37.3194381595" lon="-3.4436225239"><ele>1372.90</ele><time>2015-01-24T14:59:46Z</time></trkpt><trkpt lat="37.3194792308" lon="-3.4434194304"><ele>1370.98</ele><time>2015-01-24T15:00:01Z</time></trkpt><trkpt lat="37.3195623793" lon="-3.4432052728"><ele>1370.02</ele><time>2015-01-24T15:00:15Z</time></trkpt><trkpt lat="37.3197351303" lon="-3.4429282509"><ele>1368.57</ele><time>2015-01-24T15:00:36Z</time></trkpt><trkpt lat="37.3197985813" lon="-3.4428115748"><ele>1367.61</ele><time>2015-01-24T15:00:45Z</time></trkpt><trkpt lat="37.3198053706" lon="-3.4427927155"><ele>1367.61</ele><time>2015-01-24T15:00:46Z</time></trkpt><trkpt lat="37.3199087195" lon="-3.4425237402"><ele>1367.13</ele><time>2015-01-24T15:01:05Z</time></trkpt><trkpt lat="37.3199957237" lon="-3.4422856104"><ele>1366.17</ele><time>2015-01-24T15:01:24Z</time></trkpt><trkpt lat="37.3200017586" lon="-3.4422729537"><ele>1366.17</ele><time>2015-01-24T15:01:25Z</time></trkpt><trkpt lat="37.3200074583" lon="-3.4422582854"><ele>1366.17</ele><time>2015-01-24T15:01:26Z</time></trkpt><trkpt lat="37.3201265652" lon="-3.4420927428"><ele>1365.69</ele><time>2015-01-24T15:01:40Z</time></trkpt><trkpt lat="37.3202336859" lon="-3.4419707023"><ele>1365.21</ele><time>2015-01-24T15:01:48Z</time></trkpt><trkpt lat="37.3202439118" lon="-3.4419547766"><ele>1365.21</ele><time>2015-01-24T15:01:49Z</time></trkpt><trkpt lat="37.3203561455" lon="-3.4417656809"><ele>1364.25</ele><time>2015-01-24T15:02:06Z</time></trkpt><trkpt lat="37.3203739990" lon="-3.4417038225"><ele>1363.77</ele><time>2015-01-24T15:02:11Z</time></trkpt><trkpt lat="37.3203757592" lon="-3.4416888189"><ele>1363.77</ele><time>2015-01-24T15:02:12Z</time></trkpt><trkpt lat="37.3203813750" lon="-3.4416736476"><ele>1363.77</ele><time>2015-01-24T15:02:13Z</time></trkpt><trkpt lat="37.3204755038" lon="-3.4414563887"><ele>1363.77</ele><time>2015-01-24T15:02:28Z</time></trkpt><trkpt lat="37.3204845563" lon="-3.4414270520"><ele>1363.77</ele><time>2015-01-24T15:02:30Z</time></trkpt><trkpt lat="37.3204914294" lon="-3.4414024092"><ele>1363.77</ele><time>2015-01-24T15:02:32Z</time></trkpt><trkpt lat="37.3204974644" lon="-3.4413904231"><ele>1363.77</ele><time>2015-01-24T15:02:33Z</time></trkpt><trkpt lat="37.3205009010" lon="-3.4413756710"><ele>1363.77</ele><time>2015-01-24T15:02:34Z</time></trkpt><trkpt lat="37.3205322493" lon="-3.4413183387"><ele>1363.29</ele><time>2015-01-24T15:02:45Z</time></trkpt><trkpt lat="37.3205516953" lon="-3.4412648622"><ele>1364.25</ele><time>2015-01-24T15:03:10Z</time></trkpt><trkpt lat="37.3205534555" lon="-3.4412543848"><ele>1362.81</ele><time>2015-01-24T15:03:29Z</time></trkpt><trkpt lat="37.3205320816" lon="-3.4412309993"><ele>1362.81</ele><time>2015-01-24T15:04:10Z</time></trkpt><trkpt lat="37.3205482587" lon="-3.4412284009"><ele>1362.81</ele><time>2015-01-24T15:04:39Z</time></trkpt><trkpt lat="37.3205577303" lon="-3.4412455838"><ele>1363.29</ele><time>2015-01-24T15:05:21Z</time></trkpt><trkpt lat="37.3205640167" lon="-3.4411716554"><ele>1363.29</ele><time>2015-01-24T15:05:41Z</time></trkpt><trkpt lat="37.3206070159" lon="-3.4409870021"><ele>1362.33</ele><time>2015-01-24T15:05:56Z</time></trkpt><trkpt lat="37.3206108715" lon="-3.4409157559"><ele>1361.84</ele><time>2015-01-24T15:06:00Z</time></trkpt><trkpt lat="37.3206117097" lon="-3.4408992436"><ele>1361.84</ele><time>2015-01-24T15:06:01Z</time></trkpt><trkpt lat="37.3206451535" lon="-3.4407195356"><ele>1361.36</ele><time>2015-01-24T15:06:14Z</time></trkpt><trkpt lat="37.3206428066" lon="-3.4405156039"><ele>1361.36</ele><time>2015-01-24T15:06:28Z</time></trkpt><trkpt lat="37.3206309881" lon="-3.4403634723"><ele>1360.88</ele><time>2015-01-24T15:06:39Z</time></trkpt><trkpt lat="37.3206263781" lon="-3.4403484687"><ele>1360.88</ele><time>2015-01-24T15:06:40Z</time></trkpt><trkpt lat="37.3206194211" lon="-3.4403357282"><ele>1360.88</ele><time>2015-01-24T15:06:41Z</time></trkpt><trkpt lat="37.3206173256" lon="-3.4403229877"><ele>1360.88</ele><time>2015-01-24T15:06:42Z</time></trkpt><trkpt lat="37.3205862287" lon="-3.4402560163"><ele>1360.88</ele><time>2015-01-24T15:06:54Z</time></trkpt><trkpt lat="37.3204848077" lon="-3.4401752148"><ele>1360.40</ele><time>2015-01-24T15:07:06Z</time></trkpt><trkpt lat="37.3204294033" lon="-3.4401599597"><ele>1360.40</ele><time>2015-01-24T15:07:12Z</time></trkpt><trkpt lat="37.3203144874" lon="-3.4401970915"><ele>1360.40</ele><time>2015-01-24T15:07:25Z</time></trkpt><trkpt lat="37.3202944547" lon="-3.4402124304"><ele>1360.40</ele><time>2015-01-24T15:07:28Z</time></trkpt><trkpt lat="37.3202083725" lon="-3.4403172042"><ele>1360.40</ele><time>2015-01-24T15:07:39Z</time></trkpt><trkpt lat="37.3201889265" lon="-3.4403273463"><ele>1360.40</ele><time>2015-01-24T15:07:41Z</time></trkpt><trkpt lat="37.3201149143" lon="-3.4404001851"><ele>1360.40</ele><time>2015-01-24T15:07:50Z</time></trkpt><trkpt lat="37.3201082088" lon="-3.4404143505"><ele>1360.40</ele><time>2015-01-24T15:07:51Z</time></trkpt><trkpt lat="37.3201020900" lon="-3.4404266719"><ele>1360.40</ele><time>2015-01-24T15:07:52Z</time></trkpt><trkpt lat="37.3200134933" lon="-3.4405464493"><ele>1360.40</ele><time>2015-01-24T15:08:05Z</time></trkpt><trkpt lat="37.3199698236" lon="-3.4405855928"><ele>1360.40</ele><time>2015-01-24T15:08:09Z</time></trkpt><trkpt lat="37.3199644592" lon="-3.4405977465"><ele>1360.40</ele><time>2015-01-24T15:08:10Z</time></trkpt><trkpt lat="37.3198852502" lon="-3.4407134168"><ele>1359.92</ele><time>2015-01-24T15:08:23Z</time></trkpt><trkpt lat="37.3198728450" lon="-3.4407172725"><ele>1359.92</ele><time>2015-01-24T15:08:24Z</time></trkpt><trkpt lat="37.3198589310" lon="-3.4407210443"><ele>1359.92</ele><time>2015-01-24T15:08:25Z</time></trkpt><trkpt lat="37.3197617847" lon="-3.4407870937"><ele>1359.44</ele><time>2015-01-24T15:08:34Z</time></trkpt><trkpt lat="37.3197506368" lon="-3.4407915361"><ele>1359.44</ele><time>2015-01-24T15:08:35Z</time></trkpt><trkpt lat="37.3197364714" lon="-3.4407938831"><ele>1359.44</ele><time>2015-01-24T15:08:36Z</time></trkpt><trkpt lat="37.3195651453" lon="-3.4408295061"><ele>1358.48</ele><time>2015-01-24T15:08:52Z</time></trkpt><trkpt lat="37.3195508961" lon="-3.4408377204"><ele>1358.48</ele><time>2015-01-24T15:08:53Z</time></trkpt><trkpt lat="37.3195385747" lon="-3.4408404026"><ele>1358.48</ele><time>2015-01-24T15:08:54Z</time></trkpt><trkpt lat="37.3195277620" lon="-3.4408420790"><ele>1358.48</ele><time>2015-01-24T15:08:55Z</time></trkpt><trkpt lat="37.3194995150" lon="-3.4408546519"><ele>1358.48</ele><time>2015-01-24T15:08:58Z</time></trkpt><trkpt lat="37.3194573540" lon="-3.4408805519"><ele>1358.00</ele><time>2015-01-24T15:09:02Z</time></trkpt><trkpt lat="37.3192152847" lon="-3.4409231320"><ele>1358.00</ele><time>2015-01-24T15:09:24Z</time></trkpt><trkpt lat="37.3191820923" lon="-3.4409206174"><ele>1358.00</ele><time>2015-01-24T15:09:27Z</time></trkpt><trkpt lat="37.3190033063" lon="-3.4408992436"><ele>1357.52</ele><time>2015-01-24T15:09:43Z</time></trkpt><trkpt lat="37.3188628256" lon="-3.4408936277"><ele>1356.56</ele><time>2015-01-24T15:09:56Z</time></trkpt><trkpt lat="37.3188508395" lon="-3.4408914484"><ele>1356.56</ele><time>2015-01-24T15:09:57Z</time></trkpt><trkpt lat="37.3188392725" lon="-3.4408906102"><ele>1356.56</ele><time>2015-01-24T15:09:58Z</time></trkpt><trkpt lat="37.3188272864" lon="-3.4408948850"><ele>1356.56</ele><time>2015-01-24T15:09:59Z</time></trkpt><trkpt lat="37.3188168928" lon="-3.4409010876"><ele>1356.56</ele><time>2015-01-24T15:10:00Z</time></trkpt><trkpt lat="37.3186634202" lon="-3.4410008322"><ele>1356.08</ele><time>2015-01-24T15:10:15Z</time></trkpt><trkpt lat="37.3186037410" lon="-3.4410346951"><ele>1355.60</ele><time>2015-01-24T15:10:22Z</time></trkpt><trkpt lat="37.3185588140" lon="-3.4410606790"><ele>1355.60</ele><time>2015-01-24T15:10:26Z</time></trkpt><trkpt lat="37.3185499292" lon="-3.4410681389"><ele>1355.60</ele><time>2015-01-24T15:10:27Z</time></trkpt><trkpt lat="37.3183777649" lon="-3.4411988966"><ele>1354.63</ele><time>2015-01-24T15:10:44Z</time></trkpt><trkpt lat="37.3181804549" lon="-3.4413683787"><ele>1353.67</ele><time>2015-01-24T15:11:06Z</time></trkpt><trkpt lat="37.3180166725" lon="-3.4415192530"><ele>1353.67</ele><time>2015-01-24T15:11:21Z</time></trkpt><trkpt lat="37.3179513775" lon="-3.4415395372"><ele>1353.67</ele><time>2015-01-24T15:11:26Z</time></trkpt><trkpt lat="37.3179379664" lon="-3.4415362682"><ele>1353.67</ele><time>2015-01-24T15:11:27Z</time></trkpt><trkpt lat="37.3179263994" lon="-3.4415307362"><ele>1353.19</ele><time>2015-01-24T15:11:28Z</time></trkpt><trkpt lat="37.3179173470" lon="-3.4415240306"><ele>1353.19</ele><time>2015-01-24T15:11:29Z</time></trkpt><trkpt lat="37.3177357111" lon="-3.4413985536"><ele>1351.75</ele><time>2015-01-24T15:11:45Z</time></trkpt><trkpt lat="37.3175244872" lon="-3.4412448294"><ele>1350.79</ele><time>2015-01-24T15:12:04Z</time></trkpt><trkpt lat="37.3173889518" lon="-3.4410700668"><ele>1349.35</ele><time>2015-01-24T15:12:19Z</time></trkpt><trkpt lat="37.3173499759" lon="-3.4409928694"><ele>1348.39</ele><time>2015-01-24T15:12:24Z</time></trkpt><trkpt lat="37.3172348924" lon="-3.4408580884"><ele>1347.91</ele><time>2015-01-24T15:12:36Z</time></trkpt><trkpt lat="37.3170716129" lon="-3.4407388978"><ele>1346.94</ele><time>2015-01-24T15:12:52Z</time></trkpt><trkpt lat="37.3169164639" lon="-3.4406207129"><ele>1345.02</ele><time>2015-01-24T15:13:05Z</time></trkpt><trkpt lat="37.3167724628" lon="-3.4405135922"><ele>1344.54</ele><time>2015-01-24T15:13:17Z</time></trkpt><trkpt lat="37.3166315630" lon="-3.4403678309"><ele>1343.10</ele><time>2015-01-24T15:13:30Z</time></trkpt><trkpt lat="37.3164668586" lon="-3.4401977621"><ele>1341.66</ele><time>2015-01-24T15:13:45Z</time></trkpt><trkpt lat="37.3162988853" lon="-3.4400396794"><ele>1340.70</ele><time>2015-01-24T15:14:01Z</time></trkpt><trkpt lat="37.3162029963" lon="-3.4399597999"><ele>1339.25</ele><time>2015-01-24T15:14:09Z</time></trkpt><trkpt lat="37.3160698917" lon="-3.4397076722"><ele>1338.29</ele><time>2015-01-24T15:14:26Z</time></trkpt><trkpt lat="37.3160304129" lon="-3.4392997250"><ele>1335.89</ele><time>2015-01-24T15:14:49Z</time></trkpt><trkpt lat="37.3159874137" lon="-3.4389757644"><ele>1334.93</ele><time>2015-01-24T15:15:08Z</time></trkpt><trkpt lat="37.3159474321" lon="-3.4387098905"><ele>1333.49</ele><time>2015-01-24T15:15:24Z</time></trkpt><trkpt lat="37.3159210291" lon="-3.4386389796"><ele>1333.49</ele><time>2015-01-24T15:15:29Z</time></trkpt><trkpt lat="37.3159136530" lon="-3.4386149235"><ele>1333.49</ele><time>2015-01-24T15:15:30Z</time></trkpt><trkpt lat="37.3158825561" lon="-3.4385584295"><ele>1333.01</ele><time>2015-01-24T15:15:44Z</time></trkpt><trkpt lat="37.3158838972" lon="-3.4385381453"><ele>1333.01</ele><time>2015-01-24T15:15:46Z</time></trkpt><trkpt lat="37.3158875015" lon="-3.4385253210"><ele>1333.01</ele><time>2015-01-24T15:15:47Z</time></trkpt><trkpt lat="37.3158827238" lon="-3.4382757917"><ele>1332.52</ele><time>2015-01-24T15:16:04Z</time></trkpt><trkpt lat="37.3159765173" lon="-3.4380441159"><ele>1331.56</ele><time>2015-01-24T15:16:22Z</time></trkpt><trkpt lat="37.3160631023" lon="-3.4378623962"><ele>1330.60</ele><time>2015-01-24T15:16:36Z</time></trkpt><trkpt lat="37.3160817940" lon="-3.4375924151"><ele>1330.12</ele><time>2015-01-24T15:16:51Z</time></trkpt><trkpt lat="37.3160693049" lon="-3.4373485018"><ele>1329.64</ele><time>2015-01-24T15:17:05Z</time></trkpt><trkpt lat="37.3160285689" lon="-3.4372540377"><ele>1329.16</ele><time>2015-01-24T15:17:11Z</time></trkpt><trkpt lat="37.3160169180" lon="-3.4372369386"><ele>1329.16</ele><time>2015-01-24T15:17:12Z</time></trkpt><trkpt lat="37.3160098772" lon="-3.4372188337"><ele>1329.16</ele><time>2015-01-24T15:17:13Z</time></trkpt><trkpt lat="37.3159886710" lon="-3.4370024968"><ele>1328.20</ele><time>2015-01-24T15:17:28Z</time></trkpt><trkpt lat="37.3159777746" lon="-3.4366376325"><ele>1327.24</ele><time>2015-01-24T15:17:47Z</time></trkpt><trkpt lat="37.3159610946" lon="-3.4365929570"><ele>1327.24</ele><time>2015-01-24T15:17:50Z</time></trkpt><trkpt lat="37.3159562331" lon="-3.4365756065"><ele>1327.24</ele><time>2015-01-24T15:17:51Z</time></trkpt><trkpt lat="37.3159496114" lon="-3.4365619440"><ele>1327.24</ele><time>2015-01-24T15:17:52Z</time></trkpt><trkpt lat="37.3158278223" lon="-3.4363927972"><ele>1327.24</ele><time>2015-01-24T15:18:07Z</time></trkpt><trkpt lat="37.3157175165" lon="-3.4362055454"><ele>1327.24</ele><time>2015-01-24T15:18:24Z</time></trkpt><trkpt lat="37.3156907782" lon="-3.4361187927"><ele>1326.76</ele><time>2015-01-24T15:18:30Z</time></trkpt><trkpt lat="37.3156880960" lon="-3.4361021966"><ele>1326.76</ele><time>2015-01-24T15:18:31Z</time></trkpt><trkpt lat="37.3157204501" lon="-3.4358966723"><ele>1326.28</ele><time>2015-01-24T15:18:44Z</time></trkpt><trkpt lat="37.3157259822" lon="-3.4358770587"><ele>1326.28</ele><time>2015-01-24T15:18:45Z</time></trkpt><trkpt lat="37.3158205301" lon="-3.4355843626"><ele>1325.80</ele><time>2015-01-24T15:19:06Z</time></trkpt><trkpt lat="37.3158410657" lon="-3.4352766629"><ele>1324.83</ele><time>2015-01-24T15:19:26Z</time></trkpt><trkpt lat="37.3158626072" lon="-3.4349826258"><ele>1324.83</ele><time>2015-01-24T15:19:46Z</time></trkpt><trkpt lat="37.3158621881" lon="-3.4349490982"><ele>1324.83</ele><time>2015-01-24T15:19:48Z</time></trkpt><trkpt lat="37.3158606794" lon="-3.4349352680"><ele>1324.83</ele><time>2015-01-24T15:19:49Z</time></trkpt><trkpt lat="37.3158573266" lon="-3.4349226113"><ele>1324.83</ele><time>2015-01-24T15:19:50Z</time></trkpt><trkpt lat="37.3158591706" lon="-3.4348426480"><ele>1324.83</ele><time>2015-01-24T15:19:55Z</time></trkpt><trkpt lat="37.3158770241" lon="-3.4346180968"><ele>1325.31</ele><time>2015-01-24T15:20:11Z</time></trkpt><trkpt lat="37.3159128148" lon="-3.4343132470"><ele>1325.31</ele><time>2015-01-24T15:20:29Z</time></trkpt><trkpt lat="37.3158990685" lon="-3.4340824932"><ele>1324.35</ele><time>2015-01-24T15:20:45Z</time></trkpt><trkpt lat="37.3158831429" lon="-3.4340145160"><ele>1324.35</ele><time>2015-01-24T15:20:56Z</time></trkpt><trkpt lat="37.3158812150" lon="-3.4340092354"><ele>1323.87</ele><time>2015-01-24T15:21:13Z</time></trkpt><trkpt lat="37.3158961348" lon="-3.4340171982"><ele>1323.87</ele><time>2015-01-24T15:21:48Z</time></trkpt><trkpt lat="37.3158928659" lon="-3.4340364765"><ele>1323.87</ele><time>2015-01-24T15:22:05Z</time></trkpt><trkpt lat="37.3159034271" lon="-3.4340231493"><ele>1325.31</ele><time>2015-01-24T15:22:07Z</time></trkpt><trkpt lat="37.3159134854" lon="-3.4339892026"><ele>1325.31</ele><time>2015-01-24T15:22:10Z</time></trkpt><trkpt lat="37.3159073666" lon="-3.4338589478"><ele>1325.31</ele><time>2015-01-24T15:22:21Z</time></trkpt><trkpt lat="37.3159073666" lon="-3.4337127674"><ele>1325.31</ele><time>2015-01-24T15:22:34Z</time></trkpt><trkpt lat="37.3158935364" lon="-3.4334445465"><ele>1325.80</ele><time>2015-01-24T15:22:53Z</time></trkpt><trkpt lat="37.3158860765" lon="-3.4333823528"><ele>1325.80</ele><time>2015-01-24T15:22:57Z</time></trkpt><trkpt lat="37.3158727493" lon="-3.4332162235"><ele>1325.80</ele><time>2015-01-24T15:23:09Z</time></trkpt><trkpt lat="37.3158439156" lon="-3.4330386110"><ele>1325.80</ele><time>2015-01-24T15:23:21Z</time></trkpt><trkpt lat="37.3157750163" lon="-3.4329386149"><ele>1325.80</ele><time>2015-01-24T15:23:30Z</time></trkpt><trkpt lat="37.3157640360" lon="-3.4329307359"><ele>1325.80</ele><time>2015-01-24T15:23:31Z</time></trkpt><trkpt lat="37.3157112300" lon="-3.4329215158"><ele>1325.80</ele><time>2015-01-24T15:23:36Z</time></trkpt><trkpt lat="37.3155380599" lon="-3.4328735713"><ele>1325.80</ele><time>2015-01-24T15:23:52Z</time></trkpt><trkpt lat="37.3154058773" lon="-3.4328037500"><ele>1325.80</ele><time>2015-01-24T15:24:03Z</time></trkpt><trkpt lat="37.3153782170" lon="-3.4327870701"><ele>1325.80</ele><time>2015-01-24T15:24:06Z</time></trkpt><trkpt lat="37.3151284363" lon="-3.4326686338"><ele>1325.80</ele><time>2015-01-24T15:24:28Z</time></trkpt><trkpt lat="37.3149416875" lon="-3.4325600043"><ele>1325.80</ele><time>2015-01-24T15:24:45Z</time></trkpt><trkpt lat="37.3148033861" lon="-3.4324298333"><ele>1324.83</ele><time>2015-01-24T15:24:59Z</time></trkpt><trkpt lat="37.3146544397" lon="-3.4321852494"><ele>1323.87</ele><time>2015-01-24T15:25:18Z</time></trkpt><trkpt lat="37.3146050703" lon="-3.4320409968"><ele>1323.87</ele><time>2015-01-24T15:25:28Z</time></trkpt><trkpt lat="37.3145113606" lon="-3.4317905456"><ele>1323.87</ele><time>2015-01-24T15:25:45Z</time></trkpt><trkpt lat="37.3144479934" lon="-3.4314969275"><ele>1323.87</ele><time>2015-01-24T15:26:06Z</time></trkpt><trkpt lat="37.3144737259" lon="-3.4312160499"><ele>1322.91</ele><time>2015-01-24T15:26:24Z</time></trkpt><trkpt lat="37.3144422937" lon="-3.4309764113"><ele>1322.43</ele><time>2015-01-24T15:26:43Z</time></trkpt><trkpt lat="37.3144238535" lon="-3.4308558796"><ele>1322.43</ele><time>2015-01-24T15:26:56Z</time></trkpt><trkpt lat="37.3144023959" lon="-3.4308120422"><ele>1322.43</ele><time>2015-01-24T15:27:15Z</time></trkpt><trkpt lat="37.3143514339" lon="-3.4306897502"><ele>1322.43</ele><time>2015-01-24T15:27:28Z</time></trkpt><trkpt lat="37.3142885696" lon="-3.4305581544"><ele>1321.47</ele><time>2015-01-24T15:27:42Z</time></trkpt><trkpt lat="37.3142619990" lon="-3.4304196853"><ele>1320.99</ele><time>2015-01-24T15:27:57Z</time></trkpt><trkpt lat="37.3142943531" lon="-3.4304541349"><ele>1320.99</ele><time>2015-01-24T15:28:13Z</time></trkpt><trkpt lat="37.3142804392" lon="-3.4302530531"><ele>1320.03</ele><time>2015-01-24T15:28:31Z</time></trkpt><trkpt lat="37.3142933473" lon="-3.4301590919"><ele>1319.55</ele><time>2015-01-24T15:28:37Z</time></trkpt><trkpt lat="37.3143258691" lon="-3.4299530648"><ele>1318.10</ele><time>2015-01-24T15:28:51Z</time></trkpt><trkpt lat="37.3143510986" lon="-3.4298336226"><ele>1317.14</ele><time>2015-01-24T15:29:05Z</time></trkpt><trkpt lat="37.3143584747" lon="-3.4298464470"><ele>1317.14</ele><time>2015-01-24T15:29:20Z</time></trkpt><trkpt lat="37.3143353406" lon="-3.4298531525"><ele>1318.10</ele><time>2015-01-24T15:29:50Z</time></trkpt><trkpt lat="37.3143825307" lon="-3.4298041184"><ele>1318.10</ele><time>2015-01-24T15:30:06Z</time></trkpt><trkpt lat="37.3143874761" lon="-3.4297902044"><ele>1318.10</ele><time>2015-01-24T15:30:07Z</time></trkpt><trkpt lat="37.3144611530" lon="-3.4295831714"><ele>1318.10</ele><time>2015-01-24T15:30:23Z</time></trkpt><trkpt lat="37.3144624103" lon="-3.4295666590"><ele>1316.66</ele><time>2015-01-24T15:30:24Z</time></trkpt><trkpt lat="37.3145171441" lon="-3.4294136893"><ele>1316.18</ele><time>2015-01-24T15:30:36Z</time></trkpt><trkpt lat="37.3145827744" lon="-3.4291769005"><ele>1315.22</ele><time>2015-01-24T15:30:53Z</time></trkpt><trkpt lat="37.3146079201" lon="-3.4290657565"><ele>1315.22</ele><time>2015-01-24T15:31:00Z</time></trkpt><trkpt lat="37.3146055732" lon="-3.4290484898"><ele>1315.22</ele><time>2015-01-24T15:31:01Z</time></trkpt><trkpt lat="37.3146217503" lon="-3.4289680235"><ele>1314.26</ele><time>2015-01-24T15:31:07Z</time></trkpt><trkpt lat="37.3146249354" lon="-3.4289516788"><ele>1314.26</ele><time>2015-01-24T15:31:08Z</time></trkpt><trkpt lat="37.3146287072" lon="-3.4289368428"><ele>1314.26</ele><time>2015-01-24T15:31:09Z</time></trkpt><trkpt lat="37.3146297131" lon="-3.4288094379"><ele>1313.78</ele><time>2015-01-24T15:31:19Z</time></trkpt><trkpt lat="37.3146220017" lon="-3.4287270438"><ele>1313.30</ele><time>2015-01-24T15:31:25Z</time></trkpt><trkpt lat="37.3146220017" lon="-3.4287108667"><ele>1313.30</ele><time>2015-01-24T15:31:26Z</time></trkpt><trkpt lat="37.3145774100" lon="-3.4285154846"><ele>1312.34</ele><time>2015-01-24T15:31:40Z</time></trkpt><trkpt lat="37.3145518452" lon="-3.4283723217"><ele>1311.38</ele><time>2015-01-24T15:31:49Z</time></trkpt><trkpt lat="37.3145406134" lon="-3.4283002373"><ele>1310.90</ele><time>2015-01-24T15:31:54Z</time></trkpt><trkpt lat="37.3145395238" lon="-3.4282838926"><ele>1310.90</ele><time>2015-01-24T15:31:55Z</time></trkpt><trkpt lat="37.3145347461" lon="-3.4282669611"><ele>1310.41</ele><time>2015-01-24T15:31:56Z</time></trkpt><trkpt lat="37.3145304713" lon="-3.4282505326"><ele>1310.41</ele><time>2015-01-24T15:31:57Z</time></trkpt><trkpt lat="37.3145278729" lon="-3.4282349423"><ele>1310.41</ele><time>2015-01-24T15:31:58Z</time></trkpt><trkpt lat="37.3145254422" lon="-3.4282199387"><ele>1310.41</ele><time>2015-01-24T15:31:59Z</time></trkpt><trkpt lat="37.3144959379" lon="-3.4280040208"><ele>1309.45</ele><time>2015-01-24T15:32:13Z</time></trkpt><trkpt lat="37.3144552018" lon="-3.4278458543"><ele>1308.49</ele><time>2015-01-24T15:32:25Z</time></trkpt><trkpt lat="37.3144514300" lon="-3.4277076367"><ele>1308.49</ele><time>2015-01-24T15:32:35Z</time></trkpt><trkpt lat="37.3143831175" lon="-3.4275659826"><ele>1305.61</ele><time>2015-01-24T15:32:50Z</time></trkpt><trkpt lat="37.3143209238" lon="-3.4275021963"><ele>1303.69</ele><time>2015-01-24T15:32:58Z</time></trkpt><trkpt lat="37.3142078519" lon="-3.4275031183"><ele>1301.76</ele><time>2015-01-24T15:33:10Z</time></trkpt><trkpt lat="37.3142013978" lon="-3.4275121707"><ele>1301.76</ele><time>2015-01-24T15:33:11Z</time></trkpt><trkpt lat="37.3141929321" lon="-3.4275232349"><ele>1301.76</ele><time>2015-01-24T15:33:12Z</time></trkpt><trkpt lat="37.3141844664" lon="-3.4275346342"><ele>1301.76</ele><time>2015-01-24T15:33:13Z</time></trkpt><trkpt lat="37.3140518647" lon="-3.4276608657"><ele>1300.80</ele><time>2015-01-24T15:33:29Z</time></trkpt><trkpt lat="37.3140150681" lon="-3.4277051222"><ele>1300.32</ele><time>2015-01-24T15:33:34Z</time></trkpt><trkpt lat="37.3140092008" lon="-3.4277202934"><ele>1300.32</ele><time>2015-01-24T15:33:35Z</time></trkpt><trkpt lat="37.3140038364" lon="-3.4277348779"><ele>1300.32</ele><time>2015-01-24T15:33:36Z</time></trkpt><trkpt lat="37.3139976338" lon="-3.4277477860"><ele>1300.32</ele><time>2015-01-24T15:33:37Z</time></trkpt><trkpt lat="37.3139590770" lon="-3.4278191999"><ele>1299.84</ele><time>2015-01-24T15:33:44Z</time></trkpt><trkpt lat="37.3139496055" lon="-3.4278295934"><ele>1299.84</ele><time>2015-01-24T15:33:45Z</time></trkpt><trkpt lat="37.3139350209" lon="-3.4279150050"><ele>1298.88</ele><time>2015-01-24T15:33:52Z</time></trkpt><trkpt lat="37.3138490226" lon="-3.4279951360"><ele>1297.44</ele><time>2015-01-24T15:34:05Z</time></trkpt><trkpt lat="37.3138102144" lon="-3.4280981496"><ele>1294.07</ele><time>2015-01-24T15:34:18Z</time></trkpt><trkpt lat="37.3137940373" lon="-3.4281365387"><ele>1293.59</ele><time>2015-01-24T15:34:21Z</time></trkpt><trkpt lat="37.3137636110" lon="-3.4281500336"><ele>1292.15</ele><time>2015-01-24T15:34:23Z</time></trkpt><trkpt lat="37.3136413191" lon="-3.4280997422"><ele>1290.23</ele><time>2015-01-24T15:34:36Z</time></trkpt><trkpt lat="37.3135153390" lon="-3.4280971438"><ele>1287.82</ele><time>2015-01-24T15:34:51Z</time></trkpt><trkpt lat="37.3135652952" lon="-3.4282796178"><ele>1286.38</ele><time>2015-01-24T15:35:05Z</time></trkpt><trkpt lat="37.3135749344" lon="-3.4285221901"><ele>1284.94</ele><time>2015-01-24T15:35:21Z</time></trkpt><trkpt lat="37.3135544825" lon="-3.4285727330"><ele>1284.94</ele><time>2015-01-24T15:35:25Z</time></trkpt><trkpt lat="37.3133658059" lon="-3.4288463183"><ele>1282.06</ele><time>2015-01-24T15:35:44Z</time></trkpt><trkpt lat="37.3133235611" lon="-3.4289155528"><ele>1281.09</ele><time>2015-01-24T15:35:48Z</time></trkpt><trkpt lat="37.3131921329" lon="-3.4291535150"><ele>1279.65</ele><time>2015-01-24T15:36:05Z</time></trkpt><trkpt lat="37.3131377343" lon="-3.4293709416"><ele>1278.21</ele><time>2015-01-24T15:36:19Z</time></trkpt><trkpt lat="37.3130102456" lon="-3.4296493046"><ele>1275.33</ele><time>2015-01-24T15:36:40Z</time></trkpt><trkpt lat="37.3128483910" lon="-3.4297808167"><ele>1273.88</ele><time>2015-01-24T15:36:55Z</time></trkpt><trkpt lat="37.3127609678" lon="-3.4298289288"><ele>1273.40</ele><time>2015-01-24T15:37:04Z</time></trkpt><trkpt lat="37.3126454651" lon="-3.4300875105"><ele>1271.48</ele><time>2015-01-24T15:37:23Z</time></trkpt><trkpt lat="37.3125947546" lon="-3.4303729981"><ele>1269.08</ele><time>2015-01-24T15:37:41Z</time></trkpt><trkpt lat="37.3125574552" lon="-3.4305759240"><ele>1267.16</ele><time>2015-01-24T15:37:56Z</time></trkpt><trkpt lat="37.3125360813" lon="-3.4306351840"><ele>1266.67</ele><time>2015-01-24T15:37:59Z</time></trkpt><trkpt lat="37.3124538548" lon="-3.4309355915"><ele>1265.23</ele><time>2015-01-24T15:38:17Z</time></trkpt><trkpt lat="37.3123822734" lon="-3.4311953466"><ele>1263.31</ele><time>2015-01-24T15:38:33Z</time></trkpt><trkpt lat="37.3123672698" lon="-3.4314370807"><ele>1262.35</ele><time>2015-01-24T15:38:48Z</time></trkpt><trkpt lat="37.3124010488" lon="-3.4315396752"><ele>1261.39</ele><time>2015-01-24T15:38:55Z</time></trkpt><trkpt lat="37.3124158848" lon="-3.4316033777"><ele>1261.39</ele><time>2015-01-24T15:38:59Z</time></trkpt><trkpt lat="37.3125155456" lon="-3.4318047110"><ele>1260.43</ele><time>2015-01-24T15:39:15Z</time></trkpt><trkpt lat="37.3126554396" lon="-3.4319448564"><ele>1258.98</ele><time>2015-01-24T15:39:29Z</time></trkpt><trkpt lat="37.3127721995" lon="-3.4322352055"><ele>1257.06</ele><time>2015-01-24T15:39:50Z</time></trkpt><trkpt lat="37.3127887957" lon="-3.4325093776"><ele>1255.62</ele><time>2015-01-24T15:40:05Z</time></trkpt><trkpt lat="37.3128282744" lon="-3.4327824600"><ele>1253.70</ele><time>2015-01-24T15:40:23Z</time></trkpt><trkpt lat="37.3128149472" lon="-3.4330404550"><ele>1251.77</ele><time>2015-01-24T15:40:38Z</time></trkpt><trkpt lat="37.3128025420" lon="-3.4331155568"><ele>1251.29</ele><time>2015-01-24T15:40:42Z</time></trkpt><trkpt lat="37.3128010333" lon="-3.4332096018"><ele>1250.81</ele><time>2015-01-24T15:40:48Z</time></trkpt><trkpt lat="37.3127889633" lon="-3.4334618971"><ele>1249.85</ele><time>2015-01-24T15:41:03Z</time></trkpt><trkpt lat="37.3127895501" lon="-3.4335142840"><ele>1249.37</ele><time>2015-01-24T15:41:06Z</time></trkpt><trkpt lat="37.3128319625" lon="-3.4337971732"><ele>1247.93</ele><time>2015-01-24T15:41:23Z</time></trkpt><trkpt lat="37.3128573596" lon="-3.4340569284"><ele>1246.49</ele><time>2015-01-24T15:41:38Z</time></trkpt><trkpt lat="37.3128697649" lon="-3.4340944793"><ele>1246.49</ele><time>2015-01-24T15:41:40Z</time></trkpt><trkpt lat="37.3129336350" lon="-3.4342824016"><ele>1244.56</ele><time>2015-01-24T15:41:51Z</time></trkpt><trkpt lat="37.3129659891" lon="-3.4344021790"><ele>1244.08</ele><time>2015-01-24T15:41:58Z</time></trkpt><trkpt lat="37.3129461240" lon="-3.4347382933"><ele>1241.68</ele><time>2015-01-24T15:42:17Z</time></trkpt><trkpt lat="37.3128767218" lon="-3.4349539597"><ele>1239.76</ele><time>2015-01-24T15:42:31Z</time></trkpt><trkpt lat="37.3126997799" lon="-3.4351438098"><ele>1237.35</ele><time>2015-01-24T15:42:50Z</time></trkpt><trkpt lat="37.3125176411" lon="-3.4353899024"><ele>1234.95</ele><time>2015-01-24T15:43:10Z</time></trkpt><trkpt lat="37.3123721313" lon="-3.4355702810"><ele>1233.99</ele><time>2015-01-24T15:43:26Z</time></trkpt><trkpt lat="37.3122402001" lon="-3.4357858635"><ele>1232.07</ele><time>2015-01-24T15:43:42Z</time></trkpt><trkpt lat="37.3121644277" lon="-3.4360094927"><ele>1230.62</ele><time>2015-01-24T15:43:56Z</time></trkpt><trkpt lat="37.3121294752" lon="-3.4361370653"><ele>1229.66</ele><time>2015-01-24T15:44:06Z</time></trkpt><trkpt lat="37.3121250328" lon="-3.4362417553"><ele>1229.18</ele><time>2015-01-24T15:44:12Z</time></trkpt><trkpt lat="37.3120999709" lon="-3.4363307711"><ele>1228.70</ele><time>2015-01-24T15:44:26Z</time></trkpt><trkpt lat="37.3121054191" lon="-3.4362952318"><ele>1228.70</ele><time>2015-01-24T15:44:38Z</time></trkpt><trkpt lat="37.3121050838" lon="-3.4362586867"><ele>1228.22</ele><time>2015-01-24T15:44:51Z</time></trkpt><trkpt lat="37.3120940197" lon="-3.4362757020"><ele>1228.22</ele><time>2015-01-24T15:45:17Z</time></trkpt><trkpt lat="37.3120921757" lon="-3.4362990037"><ele>1228.70</ele><time>2015-01-24T15:45:49Z</time></trkpt><trkpt lat="37.3121022340" lon="-3.4363083076"><ele>1228.70</ele><time>2015-01-24T15:46:28Z</time></trkpt><trkpt lat="37.3121205065" lon="-3.4362701699"><ele>1228.70</ele><time>2015-01-24T15:46:56Z</time></trkpt><trkpt lat="37.3121025693" lon="-3.4362915438"><ele>1228.70</ele><time>2015-01-24T15:47:17Z</time></trkpt><trkpt lat="37.3121152259" lon="-3.4362953156"><ele>1229.18</ele><time>2015-01-24T15:47:41Z</time></trkpt><trkpt lat="37.3121024016" lon="-3.4363813978"><ele>1230.14</ele><time>2015-01-24T15:47:51Z</time></trkpt><trkpt lat="37.3120806087" lon="-3.4364300128"><ele>1230.14</ele><time>2015-01-24T15:47:56Z</time></trkpt><trkpt lat="37.3120702989" lon="-3.4364991635"><ele>1228.70</ele><time>2015-01-24T15:48:01Z</time></trkpt><trkpt lat="37.3120468296" lon="-3.4366460145"><ele>1228.22</ele><time>2015-01-24T15:48:11Z</time></trkpt><trkpt lat="37.3120388668" lon="-3.4367113933"><ele>1227.74</ele><time>2015-01-24T15:48:15Z</time></trkpt><trkpt lat="37.3120632581" lon="-3.4370115492"><ele>1226.78</ele><time>2015-01-24T15:48:34Z</time></trkpt><trkpt lat="37.3121685348" lon="-3.4371916763"><ele>1225.34</ele><time>2015-01-24T15:48:49Z</time></trkpt><trkpt lat="37.3122773319" lon="-3.4372709692"><ele>1224.38</ele><time>2015-01-24T15:48:59Z</time></trkpt><trkpt lat="37.3123090155" lon="-3.4373500105"><ele>1224.38</ele><time>2015-01-24T15:49:05Z</time></trkpt><trkpt lat="37.3122745659" lon="-3.4374174848"><ele>1223.90</ele><time>2015-01-24T15:49:11Z</time></trkpt><trkpt lat="37.3120542057" lon="-3.4375337418"><ele>1221.49</ele><time>2015-01-24T15:49:29Z</time></trkpt><trkpt lat="37.3118901718" lon="-3.4377437085"><ele>1220.05</ele><time>2015-01-24T15:49:46Z</time></trkpt><trkpt lat="37.3117528763" lon="-3.4380456246"><ele>1218.61</ele><time>2015-01-24T15:50:06Z</time></trkpt><trkpt lat="37.3116586637" lon="-3.4381965827"><ele>1216.69</ele><time>2015-01-24T15:50:18Z</time></trkpt><trkpt lat="37.3115548957" lon="-3.4381781425"><ele>1215.72</ele><time>2015-01-24T15:50:28Z</time></trkpt><trkpt lat="37.3114602640" lon="-3.4379214048"><ele>1215.24</ele><time>2015-01-24T15:50:43Z</time></trkpt><trkpt lat="37.3114415724" lon="-3.4378478955"><ele>1215.24</ele><time>2015-01-24T15:50:48Z</time></trkpt><trkpt lat="37.3114003334" lon="-3.4378049802"><ele>1215.24</ele><time>2015-01-24T15:50:52Z</time></trkpt><trkpt lat="37.3112994153" lon="-3.4377254359"><ele>1215.24</ele><time>2015-01-24T15:51:01Z</time></trkpt><trkpt lat="37.3112725094" lon="-3.4377064090"><ele>1214.76</ele><time>2015-01-24T15:51:03Z</time></trkpt><trkpt lat="37.3111965694" lon="-3.4376649186"><ele>1214.76</ele><time>2015-01-24T15:51:09Z</time></trkpt><trkpt lat="37.3111186177" lon="-3.4376048204"><ele>1214.76</ele><time>2015-01-24T15:51:16Z</time></trkpt><trkpt lat="37.3110172804" lon="-3.4375267010"><ele>1214.28</ele><time>2015-01-24T15:51:25Z</time></trkpt><trkpt lat="37.3109500576" lon="-3.4374808520"><ele>1214.28</ele><time>2015-01-24T15:51:31Z</time></trkpt><trkpt lat="37.3108814098" lon="-3.4373653494"><ele>1213.80</ele><time>2015-01-24T15:51:46Z</time></trkpt><trkpt lat="37.3108073138" lon="-3.4372956958"><ele>1213.80</ele><time>2015-01-24T15:51:55Z</time></trkpt><trkpt lat="37.3107468802" lon="-3.4372581448"><ele>1213.80</ele><time>2015-01-24T15:52:01Z</time></trkpt><trkpt lat="37.3105731234" lon="-3.4370585717"><ele>1213.80</ele><time>2015-01-24T15:52:19Z</time></trkpt><trkpt lat="37.3105105944" lon="-3.4369879961"><ele>1213.80</ele><time>2015-01-24T15:52:25Z</time></trkpt><trkpt lat="37.3104543518" lon="-3.4369107150"><ele>1213.80</ele><time>2015-01-24T15:52:31Z</time></trkpt><trkpt lat="37.3104187287" lon="-3.4367838129"><ele>1213.80</ele><time>2015-01-24T15:52:40Z</time></trkpt><trkpt lat="37.3104469758" lon="-3.4365873411"><ele>1213.80</ele><time>2015-01-24T15:52:53Z</time></trkpt><trkpt lat="37.3104586266" lon="-3.4365242254"><ele>1213.80</ele><time>2015-01-24T15:52:57Z</time></trkpt><trkpt lat="37.3104726244" lon="-3.4363093134"><ele>1213.32</ele><time>2015-01-24T15:53:14Z</time></trkpt><trkpt lat="37.3104711156" lon="-3.4361672401"><ele>1213.32</ele><time>2015-01-24T15:53:27Z</time></trkpt><trkpt lat="37.3104728758" lon="-3.4359406773"><ele>1212.36</ele><time>2015-01-24T15:53:42Z</time></trkpt><trkpt lat="37.3105101753" lon="-3.4357215744"><ele>1211.40</ele><time>2015-01-24T15:53:55Z</time></trkpt><trkpt lat="37.3105963413" lon="-3.4354527667"><ele>1210.44</ele><time>2015-01-24T15:54:12Z</time></trkpt><trkpt lat="37.3106157873" lon="-3.4352303948"><ele>1209.96</ele><time>2015-01-24T15:54:27Z</time></trkpt><trkpt lat="37.3105628975" lon="-3.4350681212"><ele>1209.48</ele><time>2015-01-24T15:54:39Z</time></trkpt><trkpt lat="37.3105130251" lon="-3.4349760041"><ele>1209.48</ele><time>2015-01-24T15:54:48Z</time></trkpt><trkpt lat="37.3104803357" lon="-3.4349592403"><ele>1209.48</ele><time>2015-01-24T15:54:51Z</time></trkpt><trkpt lat="37.3104526754" lon="-3.4349339269"><ele>1209.48</ele><time>2015-01-24T15:54:54Z</time></trkpt><trkpt lat="37.3103640787" lon="-3.4347544704"><ele>1209.48</ele><time>2015-01-24T15:55:06Z</time></trkpt><trkpt lat="37.3102629930" lon="-3.4345766902"><ele>1209.48</ele><time>2015-01-24T15:55:18Z</time></trkpt><trkpt lat="37.3102215864" lon="-3.4343939647"><ele>1209.48</ele><time>2015-01-24T15:55:30Z</time></trkpt><trkpt lat="37.3102192394" lon="-3.4343772009"><ele>1209.48</ele><time>2015-01-24T15:55:31Z</time></trkpt><trkpt lat="37.3102382664" lon="-3.4342213813"><ele>1209.00</ele><time>2015-01-24T15:55:41Z</time></trkpt><trkpt lat="37.3102384340" lon="-3.4342082217"><ele>1209.00</ele><time>2015-01-24T15:55:42Z</time></trkpt><trkpt lat="37.3102388531" lon="-3.4341907874"><ele>1209.00</ele><time>2015-01-24T15:55:43Z</time></trkpt><trkpt lat="37.3102384340" lon="-3.4341750294"><ele>1209.00</ele><time>2015-01-24T15:55:44Z</time></trkpt><trkpt lat="37.3102383502" lon="-3.4341604449"><ele>1209.00</ele><time>2015-01-24T15:55:45Z</time></trkpt><trkpt lat="37.3102373444" lon="-3.4341477882"><ele>1209.00</ele><time>2015-01-24T15:55:46Z</time></trkpt><trkpt lat="37.3101882264" lon="-3.4339868557"><ele>1209.00</ele><time>2015-01-24T15:55:59Z</time></trkpt><trkpt lat="37.3101769947" lon="-3.4339803178"><ele>1209.00</ele><time>2015-01-24T15:56:00Z</time></trkpt><trkpt lat="37.3101649247" lon="-3.4339719359"><ele>1209.00</ele><time>2015-01-24T15:56:01Z</time></trkpt><trkpt lat="37.3101544473" lon="-3.4339599498"><ele>1209.00</ele><time>2015-01-24T15:56:02Z</time></trkpt><trkpt lat="37.3101427127" lon="-3.4339499753"><ele>1209.00</ele><time>2015-01-24T15:56:03Z</time></trkpt><trkpt lat="37.3101318162" lon="-3.4339370672"><ele>1209.00</ele><time>2015-01-24T15:56:04Z</time></trkpt><trkpt lat="37.3101096042" lon="-3.4338944033"><ele>1209.00</ele><time>2015-01-24T15:56:08Z</time></trkpt><trkpt lat="37.3100118712" lon="-3.4337355662"><ele>1209.00</ele><time>2015-01-24T15:56:21Z</time></trkpt><trkpt lat="37.3099201731" lon="-3.4335774835"><ele>1209.00</ele><time>2015-01-24T15:56:33Z</time></trkpt><trkpt lat="37.3098979611" lon="-3.4335334785"><ele>1209.00</ele><time>2015-01-24T15:56:37Z</time></trkpt><trkpt lat="37.3098210990" lon="-3.4333243500"><ele>1209.00</ele><time>2015-01-24T15:56:51Z</time></trkpt><trkpt lat="37.3096833844" lon="-3.4330492560"><ele>1209.00</ele><time>2015-01-24T15:57:11Z</time></trkpt><trkpt lat="37.3096419778" lon="-3.4329736512"><ele>1209.00</ele><time>2015-01-24T15:57:16Z</time></trkpt><trkpt lat="37.3096362781" lon="-3.4329620842"><ele>1208.51</ele><time>2015-01-24T15:57:17Z</time></trkpt><trkpt lat="37.3096299078" lon="-3.4329502657"><ele>1208.51</ele><time>2015-01-24T15:57:18Z</time></trkpt><trkpt lat="37.3096239567" lon="-3.4329391178"><ele>1208.51</ele><time>2015-01-24T15:57:19Z</time></trkpt><trkpt lat="37.3096168321" lon="-3.4329267126"><ele>1208.51</ele><time>2015-01-24T15:57:20Z</time></trkpt><trkpt lat="37.3096088693" lon="-3.4329130501"><ele>1208.51</ele><time>2015-01-24T15:57:21Z</time></trkpt><trkpt lat="37.3095977213" lon="-3.4329010639"><ele>1208.51</ele><time>2015-01-24T15:57:22Z</time></trkpt><trkpt lat="37.3095721565" lon="-3.4328640159"><ele>1208.51</ele><time>2015-01-24T15:57:25Z</time></trkpt><trkpt lat="37.3095620982" lon="-3.4328515269"><ele>1208.51</ele><time>2015-01-24T15:57:26Z</time></trkpt><trkpt lat="37.3095542192" lon="-3.4328376967"><ele>1208.51</ele><time>2015-01-24T15:57:27Z</time></trkpt><trkpt lat="37.3095459212" lon="-3.4328234475"><ele>1208.51</ele><time>2015-01-24T15:57:28Z</time></trkpt><trkpt lat="37.3095376231" lon="-3.4328014869"><ele>1208.51</ele><time>2015-01-24T15:57:29Z</time></trkpt><trkpt lat="37.3095329292" lon="-3.4327829629"><ele>1208.51</ele><time>2015-01-24T15:57:30Z</time></trkpt><trkpt lat="37.3094779439" lon="-3.4325335175"><ele>1208.51</ele><time>2015-01-24T15:57:46Z</time></trkpt><trkpt lat="37.3095864058" lon="-3.4323267359"><ele>1208.03</ele><time>2015-01-24T15:58:02Z</time></trkpt><trkpt lat="37.3097674549" lon="-3.4321229719"><ele>1208.03</ele><time>2015-01-24T15:58:20Z</time></trkpt><trkpt lat="37.3098060954" lon="-3.4320052061"><ele>1207.55</ele><time>2015-01-24T15:58:29Z</time></trkpt><trkpt lat="37.3098029941" lon="-3.4319866821"><ele>1207.55</ele><time>2015-01-24T15:58:30Z</time></trkpt><trkpt lat="37.3097999766" lon="-3.4319686610"><ele>1207.55</ele><time>2015-01-24T15:58:31Z</time></trkpt><trkpt lat="37.3097732384" lon="-3.4319008514"><ele>1207.55</ele><time>2015-01-24T15:58:36Z</time></trkpt><trkpt lat="37.3097404651" lon="-3.4318459500"><ele>1207.55</ele><time>2015-01-24T15:58:40Z</time></trkpt><trkpt lat="37.3095865734" lon="-3.4316787310"><ele>1207.55</ele><time>2015-01-24T15:58:54Z</time></trkpt><trkpt lat="37.3094760999" lon="-3.4315075725"><ele>1207.55</ele><time>2015-01-24T15:59:07Z</time></trkpt><trkpt lat="37.3093965556" lon="-3.4312593006"><ele>1207.55</ele><time>2015-01-24T15:59:23Z</time></trkpt><trkpt lat="37.3093161732" lon="-3.4310170636"><ele>1208.03</ele><time>2015-01-24T15:59:39Z</time></trkpt><trkpt lat="37.3092842381" lon="-3.4309045784"><ele>1207.07</ele><time>2015-01-24T15:59:45Z</time></trkpt><trkpt lat="37.3092786223" lon="-3.4308869764"><ele>1207.07</ele><time>2015-01-24T15:59:46Z</time></trkpt><trkpt lat="37.3092734255" lon="-3.4308711346"><ele>1207.07</ele><time>2015-01-24T15:59:47Z</time></trkpt><trkpt lat="37.3091853317" lon="-3.4306708071"><ele>1207.55</ele><time>2015-01-24T16:00:02Z</time></trkpt><trkpt lat="37.3091584258" lon="-3.4304937813"><ele>1207.55</ele><time>2015-01-24T16:00:14Z</time></trkpt><trkpt lat="37.3091825657" lon="-3.4302329365"><ele>1207.07</ele><time>2015-01-24T16:00:30Z</time></trkpt><trkpt lat="37.3092230503" lon="-3.4301081300"><ele>1206.59</ele><time>2015-01-24T16:00:39Z</time></trkpt><trkpt lat="37.3092230503" lon="-3.4300886001"><ele>1206.59</ele><time>2015-01-24T16:00:40Z</time></trkpt><trkpt lat="37.3092239723" lon="-3.4300710820"><ele>1206.59</ele><time>2015-01-24T16:00:41Z</time></trkpt><trkpt lat="37.3092258163" lon="-3.4300495405"><ele>1206.59</ele><time>2015-01-24T16:00:42Z</time></trkpt><trkpt lat="37.3092287499" lon="-3.4300311841"><ele>1206.59</ele><time>2015-01-24T16:00:43Z</time></trkpt><trkpt lat="37.3092345335" lon="-3.4300122410"><ele>1206.59</ele><time>2015-01-24T16:00:44Z</time></trkpt><trkpt lat="37.3092386406" lon="-3.4299937170"><ele>1206.59</ele><time>2015-01-24T16:00:45Z</time></trkpt><trkpt lat="37.3092374671" lon="-3.4299774561"><ele>1206.59</ele><time>2015-01-24T16:00:46Z</time></trkpt><trkpt lat="37.3092398141" lon="-3.4299608599"><ele>1206.59</ele><time>2015-01-24T16:00:47Z</time></trkpt><trkpt lat="37.3092446756" lon="-3.4299408272"><ele>1206.59</ele><time>2015-01-24T16:00:48Z</time></trkpt><trkpt lat="37.3092489503" lon="-3.4299244825"><ele>1206.59</ele><time>2015-01-24T16:00:49Z</time></trkpt><trkpt lat="37.3092533089" lon="-3.4299088083"><ele>1206.59</ele><time>2015-01-24T16:00:50Z</time></trkpt><trkpt lat="37.3092584219" lon="-3.4298940562"><ele>1206.59</ele><time>2015-01-24T16:00:51Z</time></trkpt><trkpt lat="37.3092663009" lon="-3.4298831597"><ele>1206.59</ele><time>2015-01-24T16:00:52Z</time></trkpt><trkpt lat="37.3092732579" lon="-3.4298696648"><ele>1206.59</ele><time>2015-01-24T16:00:53Z</time></trkpt><trkpt lat="37.3092785385" lon="-3.4298565891"><ele>1206.59</ele><time>2015-01-24T16:00:54Z</time></trkpt><trkpt lat="37.3092867527" lon="-3.4298432618"><ele>1206.59</ele><time>2015-01-24T16:00:55Z</time></trkpt><trkpt lat="37.3092924524" lon="-3.4298295993"><ele>1206.59</ele><time>2015-01-24T16:00:56Z</time></trkpt><trkpt lat="37.3092966434" lon="-3.4298170265"><ele>1206.59</ele><time>2015-01-24T16:00:57Z</time></trkpt><trkpt lat="37.3093026783" lon="-3.4298007656"><ele>1206.59</ele><time>2015-01-24T16:00:58Z</time></trkpt><trkpt lat="37.3093621898" lon="-3.4297023620"><ele>1206.59</ele><time>2015-01-24T16:01:05Z</time></trkpt><trkpt lat="37.3093543109" lon="-3.4295176249"><ele>1206.59</ele><time>2015-01-24T16:01:18Z</time></trkpt><trkpt lat="37.3093295004" lon="-3.4294768050"><ele>1206.59</ele><time>2015-01-24T16:01:21Z</time></trkpt><trkpt lat="37.3093179334" lon="-3.4294639807"><ele>1206.59</ele><time>2015-01-24T16:01:22Z</time></trkpt><trkpt lat="37.3093062826" lon="-3.4294509050"><ele>1206.59</ele><time>2015-01-24T16:01:23Z</time></trkpt><trkpt lat="37.3092952184" lon="-3.4294381645"><ele>1206.11</ele><time>2015-01-24T16:01:24Z</time></trkpt><trkpt lat="37.3092834838" lon="-3.4294281900"><ele>1206.11</ele><time>2015-01-24T16:01:25Z</time></trkpt><trkpt lat="37.3092445917" lon="-3.4293498192"><ele>1206.11</ele><time>2015-01-24T16:01:31Z</time></trkpt><trkpt lat="37.3092396464" lon="-3.4293368272"><ele>1206.11</ele><time>2015-01-24T16:01:32Z</time></trkpt><trkpt lat="37.3092336953" lon="-3.4293182194"><ele>1206.11</ele><time>2015-01-24T16:01:33Z</time></trkpt><trkpt lat="37.3092270736" lon="-3.4293025453"><ele>1206.11</ele><time>2015-01-24T16:01:34Z</time></trkpt><trkpt lat="37.3092209548" lon="-3.4292866196"><ele>1206.11</ele><time>2015-01-24T16:01:35Z</time></trkpt><trkpt lat="37.3092165124" lon="-3.4292679280"><ele>1206.11</ele><time>2015-01-24T16:01:36Z</time></trkpt><trkpt lat="37.3092147522" lon="-3.4292500746"><ele>1206.11</ele><time>2015-01-24T16:01:37Z</time></trkpt><trkpt lat="37.3092115670" lon="-3.4292302933"><ele>1206.11</ele><time>2015-01-24T16:01:38Z</time></trkpt><trkpt lat="37.3092048615" lon="-3.4291983582"><ele>1206.11</ele><time>2015-01-24T16:01:40Z</time></trkpt><trkpt lat="37.3092109803" lon="-3.4289795905"><ele>1206.11</ele><time>2015-01-24T16:01:53Z</time></trkpt><trkpt lat="37.3092228826" lon="-3.4289073385"><ele>1206.11</ele><time>2015-01-24T16:01:57Z</time></trkpt><trkpt lat="37.3092232179" lon="-3.4288871381"><ele>1206.11</ele><time>2015-01-24T16:01:58Z</time></trkpt><trkpt lat="37.3092248105" lon="-3.4288705420"><ele>1206.11</ele><time>2015-01-24T16:01:59Z</time></trkpt><trkpt lat="37.3091326095" lon="-3.4286763333"><ele>1207.55</ele><time>2015-01-24T16:02:13Z</time></trkpt><trkpt lat="37.3090858385" lon="-3.4286571387"><ele>1207.55</ele><time>2015-01-24T16:02:17Z</time></trkpt><trkpt lat="37.3090731818" lon="-3.4286569711"><ele>1207.55</ele><time>2015-01-24T16:02:18Z</time></trkpt><trkpt lat="37.3090434261" lon="-3.4286755789"><ele>1207.55</ele><time>2015-01-24T16:02:21Z</time></trkpt><trkpt lat="37.3090318590" lon="-3.4286881518"><ele>1207.55</ele><time>2015-01-24T16:02:22Z</time></trkpt><trkpt lat="37.3089142609" lon="-3.4287205059"><ele>1208.03</ele><time>2015-01-24T16:02:32Z</time></trkpt><trkpt lat="37.3087367322" lon="-3.4287027363"><ele>1208.51</ele><time>2015-01-24T16:02:45Z</time></trkpt><trkpt lat="37.3085682560" lon="-3.4286631737"><ele>1208.51</ele><time>2015-01-24T16:02:59Z</time></trkpt><trkpt lat="37.3085109238" lon="-3.4286676161"><ele>1208.51</ele><time>2015-01-24T16:03:04Z</time></trkpt><trkpt lat="37.3084983509" lon="-3.4286689572"><ele>1208.51</ele><time>2015-01-24T16:03:05Z</time></trkpt><trkpt lat="37.3084856942" lon="-3.4286693763"><ele>1208.51</ele><time>2015-01-24T16:03:06Z</time></trkpt><trkpt lat="37.3084708583" lon="-3.4286659397"><ele>1208.51</ele><time>2015-01-24T16:03:07Z</time></trkpt><trkpt lat="37.3084580339" lon="-3.4286651853"><ele>1208.51</ele><time>2015-01-24T16:03:08Z</time></trkpt><trkpt lat="37.3084425274" lon="-3.4286622517"><ele>1208.51</ele><time>2015-01-24T16:03:09Z</time></trkpt><trkpt lat="37.3083894700" lon="-3.4286524449"><ele>1208.51</ele><time>2015-01-24T16:03:13Z</time></trkpt><trkpt lat="37.3083748017" lon="-3.4286507685"><ele>1208.51</ele><time>2015-01-24T16:03:14Z</time></trkpt><trkpt lat="37.3083619773" lon="-3.4286492597"><ele>1208.51</ele><time>2015-01-24T16:03:15Z</time></trkpt><trkpt lat="37.3082105163" lon="-3.4286091942"><ele>1208.51</ele><time>2015-01-24T16:03:27Z</time></trkpt><trkpt lat="37.3081983626" lon="-3.4286060929"><ele>1208.51</ele><time>2015-01-24T16:03:28Z</time></trkpt><trkpt lat="37.3081854545" lon="-3.4286040813"><ele>1208.51</ele><time>2015-01-24T16:03:29Z</time></trkpt><trkpt lat="37.3081704509" lon="-3.4285994712"><ele>1208.51</ele><time>2015-01-24T16:03:30Z</time></trkpt><trkpt lat="37.3080025613" lon="-3.4285071865"><ele>1208.51</ele><time>2015-01-24T16:03:45Z</time></trkpt><trkpt lat="37.3078984581" lon="-3.4284037538"><ele>1208.51</ele><time>2015-01-24T16:03:57Z</time></trkpt><trkpt lat="37.3078707978" lon="-3.4283745848"><ele>1207.07</ele><time>2015-01-24T16:03:59Z</time></trkpt><trkpt lat="37.3078607395" lon="-3.4283629339"><ele>1207.07</ele><time>2015-01-24T16:04:00Z</time></trkpt><trkpt lat="37.3078526091" lon="-3.4283559769"><ele>1207.07</ele><time>2015-01-24T16:04:01Z</time></trkpt><trkpt lat="37.3076961190" lon="-3.4281965531"><ele>1206.11</ele><time>2015-01-24T16:04:16Z</time></trkpt><trkpt lat="37.3076030798" lon="-3.4280969761"><ele>1205.63</ele><time>2015-01-24T16:04:25Z</time></trkpt><trkpt lat="37.3075915966" lon="-3.4280889295"><ele>1205.15</ele><time>2015-01-24T16:04:26Z</time></trkpt><trkpt lat="37.3074879963" lon="-3.4280080441"><ele>1204.19</ele><time>2015-01-24T16:04:36Z</time></trkpt><trkpt lat="37.3074793629" lon="-3.4279995784"><ele>1203.71</ele><time>2015-01-24T16:04:37Z</time></trkpt><trkpt lat="37.3073808756" lon="-3.4279005043"><ele>1203.23</ele><time>2015-01-24T16:04:46Z</time></trkpt><trkpt lat="37.3073708173" lon="-3.4278905299"><ele>1203.23</ele><time>2015-01-24T16:04:47Z</time></trkpt><trkpt lat="37.3072415683" lon="-3.4277630411"><ele>1201.79</ele><time>2015-01-24T16:04:58Z</time></trkpt><trkpt lat="37.3070709128" lon="-3.4275036212"><ele>1199.86</ele><time>2015-01-24T16:05:15Z</time></trkpt><trkpt lat="37.3068960663" lon="-3.4273258410"><ele>1197.94</ele><time>2015-01-24T16:05:33Z</time></trkpt><trkpt lat="37.3068073019" lon="-3.4272110928"><ele>1197.94</ele><time>2015-01-24T16:05:42Z</time></trkpt><trkpt lat="37.3068008479" lon="-3.4271956701"><ele>1197.94</ele><time>2015-01-24T16:05:43Z</time></trkpt><trkpt lat="37.3067754507" lon="-3.4271063190"><ele>1197.46</ele><time>2015-01-24T16:05:49Z</time></trkpt><trkpt lat="37.3067694996" lon="-3.4270900581"><ele>1197.46</ele><time>2015-01-24T16:05:50Z</time></trkpt><trkpt lat="37.3066937272" lon="-3.4268665127"><ele>1196.98</ele><time>2015-01-24T16:06:04Z</time></trkpt><trkpt lat="37.3066193797" lon="-3.4267252777"><ele>1196.98</ele><time>2015-01-24T16:06:16Z</time></trkpt><trkpt lat="37.3065189645" lon="-3.4265704639"><ele>1196.50</ele><time>2015-01-24T16:06:34Z</time></trkpt><trkpt lat="37.3064719420" lon="-3.4265416302"><ele>1196.50</ele><time>2015-01-24T16:06:47Z</time></trkpt><trkpt lat="37.3064473830" lon="-3.4264995530"><ele>1196.50</ele><time>2015-01-24T16:07:00Z</time></trkpt><trkpt lat="37.3064151127" lon="-3.4264660254"><ele>1196.50</ele><time>2015-01-24T16:07:12Z</time></trkpt><trkpt lat="37.3064014502" lon="-3.4264779277"><ele>1196.02</ele><time>2015-01-24T16:07:23Z</time></trkpt><trkpt lat="37.3063602112" lon="-3.4264723118"><ele>1196.02</ele><time>2015-01-24T16:07:33Z</time></trkpt><trkpt lat="37.3063248396" lon="-3.4265021514"><ele>1194.09</ele><time>2015-01-24T16:07:39Z</time></trkpt><trkpt lat="37.3063160386" lon="-3.4265011456"><ele>1194.09</ele><time>2015-01-24T16:07:40Z</time></trkpt><trkpt lat="37.3062472232" lon="-3.4264381975"><ele>1194.09</ele><time>2015-01-24T16:07:52Z</time></trkpt><trkpt lat="37.3062264360" lon="-3.4263801947"><ele>1194.09</ele><time>2015-01-24T16:07:58Z</time></trkpt><trkpt lat="37.3061974347" lon="-3.4263401292"><ele>1195.54</ele><time>2015-01-24T16:08:03Z</time></trkpt><trkpt lat="37.3061815090" lon="-3.4262637701"><ele>1195.06</ele><time>2015-01-24T16:08:27Z</time></trkpt><trkpt lat="37.3061790783" lon="-3.4262587409"><ele>1194.58</ele><time>2015-01-24T16:08:33Z</time></trkpt></trkseg></trk></gpx>